[[{"header":{"parameterUnit":"m.s-1","parameterCategory":1,"la1":31.0,"la2":29.5877,"lo1":-88.7671,"lo2":-86.6584,"dx":0.0162,"dy":0.0185,"nx":115,"ny":88,"refTime":"2023-02-06T18:00:00:Z","depth":0,"parameterNumber":2,"parameterNumberName":"U-component_of_WINDS"},"data":[0.0,0.0,0.0,0.0,0.0,0.0,0.0,0.0,0.0,0.0,0.0,0.0,0.0,0.0,0.0,0.0,0.0,0.0,0.0,0.0,0.0,0.0,0.0,0.0,0.0,0.0,0.0,0.0,0.0,0.0,0.0,0.0,0.0,0.0,0.0,0.0,0.0,0.0,0.0,0.0,0.0,0.0,0.0,0.0,0.0,0.0,0.0,0.0,0.0,0.0,0.0,0.0,0.0,0.0,0.0,0.0,0.0,0.0,0.0,0.0,0.0,0.0,0.0,0.0,0.0,0.0,0.0,0.0,0.0,0.0,0.0,0.0,0.0,0.0,0.0,0.0,0.0,0.0,0.0,0.0,0.0,0.0,0.0,0.0,0.0,0.0,0.0,0.0,0.0,0.0,0.0,0.0,0.0,0.0,0.0,0.0,0.0,0.0,0.0,0.0,0.0,0.0,0.0,0.0,0.0,0.0,0.0,0.0,0.0,0.0,0.0,0.0,0.0,0.0,0.0,0.0,0.0,0.0,0.0,0.0,0.0,0.0,0.0,0.0,0.0,0.0,0.0,0.0,0.0,0.0,0.0,0.0,0.0,0.0,0.0,0.0,0.0,0.0,0.0,0.0,0.0,0.0,0.0,0.0,0.0,0.0,0.0,0.0,0.0,0.0,0.0,0.0,0.0,0.0,0.0,0.0,0.0,0.0,0.0,0.0,0.0,0.0,0.0,0.0,0.0,0.0,0.0,0.0,0.0,0.0,0.0,0.0,0.0,0.0,0.0,0.0,0.0,0.0,0.0,0.0,0.0,0.0,0.0,0.0,0.0,0.0,0.0,0.0,0.0,0.0,0.0,0.0,0.0,0.0,0.0,0.0,0.0,0.0,0.0,0.0,0.0,0.0,0.0,0.0,0.0,0.0,0.0,0.0,0.0,0.0,0.0,0.0,0.0,0.0,0.0,0.0,0.0,0.0,0.0,0.0,0.0,0.0,0.0,0.0,0.0,0.0,0.0,0.0,0.0,0.0,0.0,0.0,0.0,0.0,0.0,0.0,0.0,0.0,0.0,0.0,0.0,0.0,0.0,0.0,0.0,0.0,0.0,0.0,0.0,0.0,0.0,0.0,0.0,0.0,0.0,0.0,0.0,0.0,0.0,0.0,0.0,0.0,0.0,0.0,0.0,0.0,0.0,0.0,0.0,0.0,0.0,0.0,0.0,0.0,0.0,0.0,0.0,0.0,0.0,0.0,0.0,0.0,0.0,0.0,0.0,0.0,0.0,0.0,0.0,0.0,0.0,0.0,0.0,0.0,0.0,0.0,0.0,0.0,0.0,0.0,0.0,0.0,0.0,0.0,0.0,0.0,0.0,0.0,0.0,0.0,0.0,0.0,0.0,0.0,0.0,0.0,0.0,0.0,0.0,0.0,0.0,0.0,0.0,0.0,0.0,0.0,0.0,0.0,0.0,0.0,0.0,0.0,0.0,0.0,0.0,0.0,0.0,0.0,0.0,0.0,0.0,0.0,0.0,0.0,0.0,0.0,0.0,0.0,0.0,0.0,0.0,0.0,0.0,0.0,0.0,0.0,0.0,0.0,0.0,0.0,0.0,0.0,0.0,0.0,0.0,0.0,0.0,0.0,0.0,0.0,0.0,0.0,0.0,0.0,0.0,0.0,0.0,0.0,0.0,0.0,0.0,0.0,0.0,0.0,0.0,0.0,0.0,0.0,0.0,0.0,0.0,0.0,0.0,0.0,0.0,0.0,0.0,0.0,0.0,0.0,0.0,0.0,0.0,0.0,0.0,0.0,0.0,0.0,0.0,0.0,0.0,0.0,0.0,0.0,0.0,0.0,0.0,0.0,0.0,0.0,0.0,0.0,0.0,0.0,0.0,0.0,0.0,0.0,0.0,0.0,0.0,0.0,0.0,0.0,0.0,0.0,0.0,0.0,0.0,0.0,0.0,0.0,0.0,0.0,0.0,0.0,0.0,0.0,0.0,0.0,0.0,0.0,0.0,0.0,0.0,0.0,0.0,0.0,0.0,0.0,0.0,0.0,0.0,0.0,0.0,0.0,0.0,0.0,0.0,0.0,0.0,0.0,0.0,0.0,0.0,0.0,0.0,0.0,0.0,0.0,0.0,0.0,0.0,0.0,0.0,0.0,0.0,0.0,0.0,0.0,0.0,0.0,0.0,0.0,0.0,0.0,0.0,0.0,0.0,0.0,0.0,0.0,0.0,0.0,0.0,0.0,0.0,0.0,0.0,0.0,0.0,0.0,0.0,0.0,0.0,0.0,0.0,0.0,0.0,0.0,0.0,0.0,0.0,0.0,0.0,0.0,0.0,0.0,0.0,0.0,0.0,0.0,0.0,0.0,0.0,0.0,0.0,0.0,0.0,0.0,0.0,0.0,0.0,0.0,0.0,0.0,0.0,0.0,0.0,0.0,0.0,0.0,0.0,0.0,0.0,0.0,0.0,0.0,0.0,0.0,0.0,0.0,0.0,0.0,0.0,0.0,0.0,0.0,0.0,0.0,0.0,0.0,0.0,0.0,0.0,0.0,0.0,0.0,0.0,0.0,0.0,0.0,0.0,0.0,0.0,0.0,0.0,0.0,0.0,0.0,0.0,0.0,0.0,0.0,0.0,0.0,0.0,0.0,0.0,0.0,0.0,0.0,0.0,0.0,0.0,0.0,0.0,0.0,0.0,0.0,0.0,0.0,0.0,0.0,0.0,0.0,0.0,0.0,0.0,0.0,0.0,0.0,0.0,0.0,0.0,0.0,0.0,0.0,0.0,0.0,0.0,0.0,0.0,0.0,0.0,0.0,0.0,0.0,0.0,0.0,0.0,0.0,0.0,0.0,0.0,0.0,0.0,0.0,0.0,0.0,0.0,0.0,0.0,0.0,0.0,0.0,0.0,0.0,0.0,0.0,0.0,0.0,0.0,0.0,0.0,0.0,0.0,0.0,0.0,0.0,0.0,0.0,0.0,0.0,0.0,0.0,0.0,0.0,0.0,0.0,0.0,0.0,0.0,0.0,0.0,0.0,0.0,0.0,0.0,0.0,0.0,0.0,0.0,0.0,0.0,0.0,0.0,0.0,0.0,0.0,0.0,0.0,0.0,0.0,0.0,0.0,0.0,0.0,0.0,0.0,0.0,0.0,0.0,0.0,0.0,0.0,0.0,0.0,0.0,0.0,0.0,0.0,0.0,0.0,0.0,0.0,0.0,0.0,0.0,0.0,0.0,0.0,0.0,0.0,0.0,0.0,0.0,0.0,0.0,0.0,0.0,0.0,0.0,0.0,0.0,0.0,0.0,0.0,0.0,0.0,0.0,0.0,0.0,0.0,0.0,0.0,0.0,0.0,0.0,0.0,0.0,0.0,0.0,0.0,0.0,0.0,0.0,0.0,0.0,0.0,0.0,0.0,0.0,0.0,0.0,0.0,0.0,0.0,0.0,0.0,0.0,0.0,0.0,0.0,0.0,0.0,0.0,0.0,0.0,0.0,0.0,0.0,0.0,0.0,0.0,0.0,0.0,0.0,0.0,0.0,0.0,0.0,0.0,0.0,0.0,0.0,0.0,0.0,0.0,0.0,0.0,0.0,0.0,0.0,0.0,0.0,0.0,0.0,0.0,0.0,0.0,0.0,0.0,0.0,0.0,0.0,0.0,0.0,0.0,0.0,0.0,0.0,0.0,0.0,0.0,0.0,0.0,0.0,0.0,0.0,0.0,0.0,0.0,0.0,0.0,0.0,0.0,0.0,0.0,0.0,0.0,0.0,0.0,0.0,0.0,0.0,0.0,0.0,0.0,0.0,0.0,0.0,0.0,0.0,0.0,0.0,0.0,0.0,0.0,0.0,0.0,0.0,0.0,0.0,0.0,0.0,0.0,0.0,0.0,0.0,0.0,0.0,0.0,0.0,0.0,0.0,0.0,0.0,0.0,0.0,0.0,0.0,0.0,0.0,0.0,0.0,0.0,0.0,0.0,0.0,0.0,0.0,0.0,0.0,0.0,0.0,0.0,0.0,0.0,0.0,0.0,0.0,0.0,0.0,0.0,0.0,0.0,0.0,0.0,0.0,0.0,0.0,0.0,0.0,0.0,0.0,0.0,0.0,0.0,0.0,0.0,0.0,0.0,0.0,0.0,0.0,0.0,0.0,0.0,0.0,0.0,0.0,0.0,0.0,0.0,0.0,0.0,0.0,0.0,0.0,0.0,0.0,0.0,0.0,0.0,0.0,0.0,0.0,0.0,0.0,0.0,0.0,0.0,0.0,0.0,0.0,2.7464,0.0,0.0,0.0,0.0,0.0,0.0,0.0,0.0,0.0,0.0,0.0,0.0,0.0,0.0,0.0,0.0,0.0,0.0,0.0,0.0,0.0,0.0,0.0,0.0,0.0,0.0,0.0,0.0,0.0,0.0,0.0,0.0,0.0,0.0,0.0,0.0,0.0,0.0,0.0,0.0,0.0,0.0,0.0,0.0,0.0,0.0,0.0,0.0,0.0,0.0,0.0,0.0,0.0,0.0,0.0,0.0,0.0,0.0,0.0,0.0,0.0,0.0,0.0,0.0,0.0,0.0,0.0,0.0,0.0,0.0,0.0,0.0,0.0,0.0,0.0,0.0,0.0,0.0,0.0,0.0,0.0,0.0,0.0,0.0,0.0,0.0,0.0,0.0,0.0,0.0,0.0,0.0,0.0,0.0,0.0,0.0,0.0,0.0,0.0,0.0,0.0,0.0,0.0,0.0,0.0,0.0,0.0,0.0,0.0,0.0,2.8131,2.7302,2.887,2.9209,2.7891,0.0,0.0,0.0,0.0,0.0,0.0,0.0,0.0,0.0,0.0,0.0,0.0,0.0,0.0,0.0,0.0,0.0,0.0,0.0,0.0,0.0,0.0,0.0,0.0,0.0,0.0,0.0,0.0,0.0,0.0,0.0,0.0,0.0,0.0,0.0,0.0,0.0,0.0,0.0,0.0,0.0,0.0,0.0,0.0,0.0,0.0,0.0,0.0,0.0,0.0,0.0,0.0,0.0,0.0,0.0,0.0,0.0,0.0,0.0,0.0,0.0,0.0,0.0,0.0,0.0,0.0,0.0,0.0,0.0,0.0,0.0,0.0,0.0,0.0,0.0,0.0,0.0,0.0,0.0,0.0,0.0,0.0,0.0,0.0,0.0,0.0,0.0,0.0,0.0,0.0,0.0,0.0,0.0,0.0,0.0,0.0,0.0,0.0,0.0,0.0,0.0,0.0,0.0,0.0,0.0,0.0,0.0,0.0,0.0,0.0,0.0,0.0,2.9365,2.9287,2.8211,0.0,0.0,0.0,0.0,0.0,0.0,0.0,0.0,0.0,0.0,0.0,0.0,0.0,0.0,0.0,0.0,0.0,0.0,0.0,0.0,0.0,0.0,0.0,0.0,0.0,0.0,0.0,0.0,0.0,0.0,0.0,0.0,0.0,0.0,0.0,0.0,0.0,0.0,0.0,0.0,0.0,0.0,0.0,0.0,0.0,0.0,0.0,0.0,0.0,0.0,0.0,0.0,0.0,0.0,0.0,0.0,0.0,0.0,0.0,0.0,0.0,0.0,0.0,0.0,0.0,0.0,0.0,0.0,0.0,0.0,0.0,0.0,0.0,0.0,0.0,0.0,0.0,0.0,0.0,0.0,0.0,0.0,0.0,0.0,0.0,0.0,0.0,0.0,0.0,0.0,0.0,0.0,0.0,0.0,0.0,0.0,0.0,0.0,0.0,0.0,0.0,0.0,0.0,0.0,0.0,0.0,0.0,0.0,0.0,0.0,2.9287,2.8554,2.9287,0.0,2.7383,0.0,0.0,0.0,0.0,0.0,0.0,0.0,0.0,0.0,0.0,0.0,0.0,0.0,0.0,0.0,0.0,0.0,0.0,0.0,0.0,0.0,0.0,0.0,0.0,0.0,0.0,0.0,0.0,0.0,0.0,0.0,0.0,0.0,0.0,0.0,0.0,0.0,0.0,0.0,0.0,0.0,0.0,0.0,0.0,0.0,0.0,0.0,0.0,0.0,0.0,0.0,0.0,0.0,0.0,0.0,0.0,0.0,0.0,0.0,0.0,0.0,0.0,0.0,0.0,0.0,0.0,0.0,0.0,0.0,0.0,0.0,0.0,0.0,0.0,0.0,0.0,0.0,0.0,0.0,0.0,0.0,0.0,0.0,0.0,0.0,0.0,0.0,0.0,0.0,0.0,0.0,0.0,0.0,0.0,0.0,0.0,0.0,0.0,0.0,0.0,0.0,0.0,0.0,0.0,0.0,0.0,0.0,0.0,0.0,0.0,2.9624,2.9287,2.9131,2.8949,0.0,0.0,0.0,0.0,0.0,0.0,0.0,0.0,0.0,0.0,0.0,0.0,0.0,0.0,0.0,0.0,0.0,0.0,0.0,0.0,0.0,0.0,0.0,0.0,0.0,0.0,0.0,0.0,0.0,0.0,0.0,0.0,0.0,0.0,0.0,0.0,0.0,0.0,0.0,0.0,0.0,0.0,0.0,0.0,0.0,0.0,0.0,0.0,0.0,0.0,0.0,0.0,0.0,0.0,0.0,0.0,0.0,0.0,0.0,0.0,0.0,0.0,0.0,0.0,0.0,0.0,0.0,0.0,0.0,0.0,0.0,0.0,0.0,0.0,0.0,0.0,0.0,0.0,0.0,0.0,0.0,0.0,0.0,0.0,0.0,0.0,0.0,0.0,0.0,0.0,0.0,0.0,0.0,0.0,0.0,0.0,0.0,0.0,0.0,0.0,0.0,0.0,0.0,0.0,0.0,0.0,0.0,0.0,0.0,0.0,2.9779,2.9779,2.9779,2.9209,2.9052,2.9443,0.0,0.0,0.0,0.0,0.0,0.0,0.0,0.0,0.0,0.0,0.0,0.0,0.0,0.0,0.0,0.0,0.0,0.0,0.0,0.0,0.0,0.0,0.0,0.0,0.0,0.0,0.0,0.0,0.0,0.0,0.0,0.0,0.0,0.0,0.0,0.0,0.0,0.0,0.0,0.0,0.0,0.0,0.0,0.0,0.0,0.0,0.0,0.0,0.0,0.0,0.0,0.0,0.0,0.0,0.0,0.0,0.0,0.0,0.0,0.0,0.0,0.0,0.0,0.0,0.0,0.0,0.0,0.0,0.0,0.0,0.0,0.0,0.0,0.0,0.0,0.0,0.0,0.0,0.0,0.0,0.0,0.0,0.0,0.0,0.0,0.0,0.0,0.0,0.0,0.0,0.0,0.0,0.0,0.0,0.0,0.0,0.0,0.0,0.0,0.0,0.0,0.0,0.0,0.0,0.0,0.0,0.0,0.0,2.9779,2.9779,2.9779,2.9779,2.9779,2.9365,0.0,0.0,0.0,0.0,0.0,0.0,0.0,0.0,0.0,0.0,0.0,0.0,0.0,0.0,0.0,0.0,0.0,0.0,0.0,0.0,0.0,0.0,0.0,0.0,0.0,0.0,0.0,0.0,0.0,0.0,0.0,0.0,0.0,0.0,0.0,0.0,0.0,0.0,0.0,0.0,0.0,0.0,0.0,0.0,0.0,0.0,0.0,0.0,0.0,0.0,0.0,0.0,0.0,0.0,0.0,0.0,0.0,0.0,0.0,0.0,0.0,0.0,0.0,0.0,0.0,0.0,0.0,0.0,0.0,0.0,0.0,0.0,0.0,0.0,0.0,0.0,0.0,0.0,0.0,0.0,0.0,0.0,0.0,0.0,0.0,0.0,0.0,0.0,0.0,0.0,0.0,0.0,0.0,0.0,0.0,0.0,0.0,0.0,0.0,0.0,0.0,0.0,0.0,0.0,0.0,0.0,0.0,0.0,0.0,2.9779,2.9779,2.9779,2.9779,2.9779,2.9624,0.0,0.0,0.0,0.0,0.0,0.0,0.0,0.0,0.0,0.0,0.0,0.0,0.0,0.0,0.0,0.0,0.0,0.0,0.0,0.0,0.0,0.0,0.0,0.0,0.0,0.0,0.0,0.0,0.0,0.0,0.0,0.0,0.0,0.0,0.0,0.0,0.0,0.0,0.0,0.0,0.0,0.0,0.0,0.0,0.0,0.0,0.0,0.0,0.0,0.0,0.0,0.0,0.0,0.0,0.0,0.0,0.0,0.0,0.0,0.0,0.0,0.0,0.0,0.0,0.0,0.0,0.0,0.0,0.0,0.0,0.0,0.0,0.0,0.0,0.0,0.0,0.0,0.0,0.0,0.0,0.0,0.0,0.0,0.0,0.0,0.0,0.0,0.0,0.0,0.0,0.0,0.0,0.0,0.0,0.0,0.0,0.0,0.0,0.0,0.0,0.0,0.0,0.0,0.0,0.0,0.0,0.0,0.0,0.0,2.9779,0.0,2.9779,2.9779,2.9779,2.9779,0.0,0.0,0.0,0.0,0.0,0.0,0.0,0.0,0.0,0.0,0.0,0.0,0.0,0.0,0.0,0.0,0.0,0.0,0.0,0.0,0.0,0.0,0.0,0.0,0.0,0.0,0.0,0.0,0.0,0.0,0.0,0.0,0.0,0.0,0.0,0.0,0.0,0.0,0.0,0.0,0.0,0.0,0.0,0.0,0.0,0.0,0.0,0.0,0.0,0.0,0.0,0.0,0.0,0.0,0.0,0.0,0.0,0.0,0.0,0.0,0.0,0.0,0.0,0.0,0.0,0.0,0.0,0.0,0.0,0.0,0.0,0.0,0.0,0.0,0.0,0.0,0.0,0.0,0.0,0.0,0.0,0.0,0.0,0.0,0.0,0.0,0.0,0.0,0.0,0.0,0.0,0.0,0.0,0.0,0.0,0.0,0.0,0.0,0.0,0.0,0.0,0.0,0.0,0.0,0.0,0.0,0.0,0.0,2.9779,2.9779,2.9779,2.9779,2.9779,2.9779,2.9779,0.0,0.0,0.0,0.0,0.0,0.0,0.0,0.0,0.0,0.0,0.0,0.0,0.0,0.0,0.0,0.0,0.0,0.0,0.0,0.0,0.0,0.0,0.0,0.0,0.0,0.0,0.0,0.0,0.0,0.0,0.0,0.0,0.0,0.0,0.0,0.0,0.0,0.0,0.0,0.0,0.0,0.0,0.0,0.0,0.0,0.0,0.0,0.0,0.0,0.0,0.0,0.0,0.0,0.0,0.0,0.0,0.0,0.0,0.0,0.0,0.0,0.0,0.0,0.0,0.0,0.0,0.0,0.0,0.0,0.0,0.0,0.0,0.0,0.0,0.0,0.0,0.0,0.0,0.0,0.0,0.0,0.0,0.0,0.0,0.0,0.0,0.0,0.0,0.0,0.0,0.0,0.0,0.0,0.0,0.0,0.0,0.0,0.0,0.0,0.0,0.0,0.0,0.0,0.0,0.0,0.0,0.0,0.0,0.0,2.9779,2.9779,2.9779,2.9779,2.9779,2.9779,0.0,0.0,0.0,0.0,0.0,0.0,0.0,0.0,0.0,0.0,0.0,0.0,0.0,0.0,0.0,0.0,0.0,0.0,0.0,0.0,0.0,0.0,0.0,0.0,0.0,0.0,0.0,0.0,0.0,0.0,0.0,0.0,0.0,0.0,0.0,0.0,0.0,0.0,0.0,0.0,0.0,0.0,0.0,0.0,0.0,0.0,0.0,0.0,0.0,0.0,0.0,0.0,0.0,0.0,0.0,0.0,0.0,0.0,0.0,0.0,0.0,0.0,0.0,0.0,0.0,0.0,0.0,0.0,0.0,0.0,0.0,0.0,0.0,0.0,0.0,0.0,0.0,0.0,0.0,0.0,0.0,0.0,0.0,0.0,0.0,0.0,0.0,0.0,0.0,0.0,0.0,0.0,0.0,0.0,0.0,0.0,0.0,0.0,0.0,0.0,0.0,0.0,0.0,0.0,0.0,0.0,0.0,0.0,0.0,2.9779,2.9779,2.9779,2.9779,2.9779,2.9779,2.9779,0.0,0.0,0.0,0.0,0.0,0.0,0.0,0.0,0.0,0.0,0.0,0.0,0.0,0.0,0.0,0.0,0.0,0.0,0.0,0.0,0.0,0.0,0.0,0.0,0.0,0.0,0.0,0.0,0.0,0.0,0.0,0.0,0.0,0.0,0.0,0.0,0.0,0.0,0.0,0.0,0.0,0.0,0.0,0.0,0.0,0.0,0.0,0.0,0.0,0.0,0.0,0.0,0.0,0.0,0.0,0.0,0.0,0.0,0.0,0.0,0.0,0.0,0.0,0.0,0.0,0.0,0.0,0.0,0.0,0.0,0.0,0.0,0.0,0.0,0.0,0.0,0.0,0.0,0.0,0.0,0.0,0.0,0.0,0.0,0.0,0.0,0.0,0.0,0.0,0.0,0.0,0.0,0.0,0.0,0.0,0.0,0.0,0.0,0.0,0.0,0.0,0.0,0.0,0.0,0.0,0.0,0.0,0.0,2.9779,2.9779,2.9779,2.9779,2.9779,2.9779,0.0,0.0,0.0,0.0,0.0,0.0,0.0,0.0,0.0,0.0,0.0,0.0,0.0,0.0,0.0,0.0,0.0,0.0,0.0,0.0,0.0,0.0,0.0,0.0,0.0,0.0,0.0,0.0,0.0,0.0,0.0,0.0,0.0,0.0,0.0,0.0,0.0,0.0,0.0,0.0,0.0,0.0,0.0,0.0,0.0,0.0,0.0,0.0,0.0,0.0,0.0,0.0,0.0,0.0,0.0,0.0,0.0,0.0,0.0,0.0,0.0,0.0,0.0,0.0,0.0,0.0,0.0,0.0,0.0,0.0,0.0,0.0,0.0,0.0,0.0,0.0,0.0,0.0,0.0,0.0,0.0,0.0,0.0,0.0,0.0,0.0,0.0,0.0,0.0,0.0,0.0,0.0,0.0,0.0,0.0,0.0,0.0,0.0,0.0,0.0,0.0,0.0,0.0,0.0,0.0,0.0,0.0,0.0,0.0,2.9779,2.9779,2.9779,2.9779,2.9779,2.9779,0.0,0.0,0.0,0.0,0.0,0.0,0.0,0.0,0.0,0.0,0.0,0.0,0.0,0.0,0.0,0.0,0.0,0.0,0.0,0.0,0.0,0.0,0.0,0.0,0.0,0.0,0.0,0.0,0.0,0.0,0.0,0.0,0.0,0.0,0.0,0.0,0.0,0.0,0.0,0.0,0.0,0.0,0.0,0.0,0.0,0.0,0.0,0.0,0.0,0.0,0.0,0.0,0.0,0.0,0.0,0.0,0.0,0.0,0.0,0.0,0.0,0.0,0.0,0.0,0.0,0.0,0.0,0.0,0.0,0.0,0.0,0.0,0.0,0.0,0.0,0.0,0.0,0.0,0.0,0.0,0.0,0.0,0.0,0.0,0.0,0.0,0.0,0.0,0.0,0.0,0.0,0.0,0.0,0.0,0.0,0.0,0.0,0.0,0.0,0.0,0.0,0.0,0.0,0.0,0.0,0.0,0.0,0.0,2.9779,2.9779,2.9779,2.9779,2.9779,2.9779,2.9779,0.0,0.0,0.0,0.0,0.0,0.0,0.0,0.0,0.0,0.0,0.0,0.0,0.0,0.0,0.0,0.0,0.0,0.0,0.0,0.0,0.0,0.0,0.0,0.0,0.0,0.0,0.0,0.0,0.0,0.0,0.0,0.0,0.0,0.0,0.0,0.0,0.0,0.0,0.0,0.0,0.0,0.0,0.0,0.0,0.0,0.0,0.0,0.0,0.0,0.0,0.0,0.0,0.0,0.0,0.0,0.0,0.0,0.0,0.0,0.0,0.0,0.0,0.0,0.0,0.0,0.0,0.0,0.0,0.0,0.0,0.0,0.0,0.0,0.0,0.0,0.0,0.0,0.0,0.0,0.0,0.0,0.0,0.0,0.0,0.0,0.0,0.0,0.0,0.0,0.0,0.0,0.0,0.0,0.0,0.0,0.0,0.0,0.0,0.0,0.0,0.0,0.0,0.0,0.0,0.0,0.0,0.0,0.0,2.9779,2.9779,2.9779,2.9779,2.9779,2.9779,2.9779,0.0,0.0,0.0,0.0,0.0,0.0,0.0,0.0,0.0,0.0,0.0,0.0,0.0,0.0,0.0,0.0,0.0,0.0,0.0,0.0,0.0,0.0,0.0,0.0,0.0,0.0,0.0,0.0,0.0,0.0,0.0,0.0,0.0,0.0,0.0,0.0,0.0,0.0,0.0,0.0,0.0,0.0,0.0,0.0,0.0,0.0,0.0,0.0,0.0,0.0,0.0,0.0,0.0,0.0,0.0,0.0,0.0,0.0,0.0,0.0,0.0,0.0,0.0,0.0,0.0,0.0,0.0,0.0,0.0,0.0,0.0,0.0,0.0,0.0,0.0,0.0,0.0,0.0,0.0,0.0,0.0,0.0,0.0,0.0,0.0,0.0,0.0,0.0,0.0,0.0,0.0,0.0,0.0,0.0,0.0,0.0,0.0,0.0,0.0,0.0,0.0,0.0,0.0,0.0,0.0,0.0,0.0,0.0,2.9779,2.9779,2.9779,2.9779,2.9779,2.9779,2.9779,0.0,0.0,0.0,0.0,0.0,0.0,0.0,0.0,0.0,0.0,0.0,0.0,0.0,0.0,0.0,0.0,0.0,0.0,0.0,0.0,0.0,0.0,0.0,0.0,0.0,0.0,0.0,0.0,0.0,0.0,0.0,0.0,0.0,0.0,0.0,0.0,0.0,0.0,0.0,0.0,0.0,0.0,0.0,0.0,0.0,0.0,0.0,0.0,2.1298,0.0,0.0,0.0,0.0,0.0,0.0,0.0,0.0,0.0,0.0,0.0,0.0,0.0,0.0,0.0,0.0,0.0,0.0,0.0,0.0,0.0,0.0,0.0,0.0,0.0,0.0,0.0,0.0,0.0,0.0,0.0,0.0,0.0,0.0,0.0,0.0,0.0,0.0,0.0,0.0,0.0,0.0,0.0,0.0,0.0,0.0,0.0,0.0,0.0,0.0,0.0,0.0,0.0,0.0,0.0,0.0,0.0,0.0,0.0,2.9779,2.9779,2.9779,2.9779,2.9779,2.9779,2.9779,0.0,0.0,0.0,0.0,0.0,0.0,0.0,0.0,0.0,0.0,0.0,0.0,0.0,0.0,0.0,0.0,0.0,0.0,0.0,0.0,0.0,0.0,0.0,0.0,0.0,0.0,0.0,0.0,0.0,0.0,0.0,0.0,0.0,0.0,0.0,0.0,0.0,0.0,0.0,0.0,0.0,0.0,0.0,0.0,0.0,0.0,0.0,0.0,0.0,0.0,0.0,0.0,0.0,0.0,0.0,0.0,0.0,0.0,0.0,0.0,0.0,0.0,0.0,0.0,0.0,0.0,0.0,0.0,0.0,0.0,0.0,0.0,0.0,0.0,0.0,0.0,0.0,0.0,0.0,0.0,0.0,0.0,0.0,0.0,0.0,0.0,0.0,0.0,0.0,0.0,0.0,0.0,0.0,0.0,0.0,0.0,0.0,0.0,0.0,0.0,0.0,0.0,0.0,0.0,0.0,0.0,0.0,3.0005,3.003,3.003,3.003,3.0005,2.993,2.993,2.988,2.9804,0.0,0.0,0.0,0.0,0.0,0.0,0.0,0.0,0.0,0.0,0.0,0.0,0.0,0.0,0.0,0.0,0.0,0.0,0.0,0.0,0.0,0.0,0.0,0.0,0.0,0.0,0.0,0.0,0.0,0.0,0.0,0.0,0.0,0.0,0.0,0.0,0.0,0.0,2.455,2.455,0.0,0.0,0.0,0.0,0.0,0.0,0.0,0.0,2.0235,0.0,0.0,0.0,0.0,0.0,0.0,0.0,0.0,0.0,0.0,0.0,0.0,0.0,0.0,0.0,0.0,0.0,0.0,0.0,0.0,0.0,0.0,0.0,0.0,0.0,0.0,0.0,0.0,0.0,0.0,0.0,0.0,0.0,0.0,0.0,0.0,0.0,0.0,0.0,0.0,0.0,0.0,0.0,0.0,0.0,0.0,0.0,0.0,0.0,0.0,0.0,0.0,0.0,0.0,0.0,0.0,3.0482,3.0909,3.1135,3.1135,3.1135,3.0909,3.0507,3.0482,3.0256,2.9829,0.0,0.0,0.0,0.0,0.0,0.0,0.0,0.0,0.0,0.0,0.0,0.0,0.0,0.0,0.0,0.0,0.0,0.0,0.0,0.0,0.0,0.0,0.0,0.0,0.0,0.0,0.0,0.0,0.0,0.0,0.0,0.0,0.0,0.0,0.0,0.0,0.0,0.0,0.0,2.455,2.4464,0.0,0.0,0.0,0.0,0.0,0.0,0.0,0.0,2.0439,0.0,0.0,0.0,0.0,0.0,0.0,0.0,0.0,0.0,0.0,0.0,0.0,0.0,0.0,0.0,0.0,0.0,0.0,0.0,0.0,0.0,0.0,0.0,0.0,0.0,0.0,0.0,0.0,0.0,0.0,0.0,0.0,0.0,0.0,0.0,0.0,0.0,0.0,0.0,0.0,0.0,0.0,0.0,0.0,0.0,0.0,0.0,0.0,0.0,0.0,0.0,0.0,0.0,0.0,0.0,3.1035,3.126,3.1386,3.1386,3.1386,3.1286,3.1035,3.1009,3.0884,0.0,0.0,0.0,0.0,0.0,0.0,0.0,0.0,0.0,0.0,0.0,0.0,0.0,0.0,0.0,0.0,0.0,0.0,0.0,0.0,0.0,0.0,0.0,0.0,0.0,0.0,0.0,0.0,0.0,0.0,0.0,0.0,0.0,0.0,0.0,0.0,0.0,0.0,0.0,0.0,2.4378,2.4378,2.4464,0.0,0.0,0.0,0.0,0.0,0.0,2.1752,2.0799,0.0,0.0,0.0,0.0,0.0,0.0,0.0,0.0,0.0,0.0,0.0,0.0,0.0,0.0,0.0,0.0,0.0,0.0,0.0,0.0,0.0,0.0,0.0,0.0,0.0,0.0,0.0,0.0,0.0,0.0,0.0,0.0,0.0,0.0,0.0,0.0,0.0,0.0,0.0,0.0,0.0,0.0,0.0,0.0,0.0,0.0,0.0,0.0,0.0,0.0,0.0,0.0,0.0,0.0,0.0,3.1562,3.1662,3.1738,3.1738,3.1738,3.1687,3.1562,3.1562,3.1512,0.0,0.0,0.0,0.0,0.0,0.0,0.0,0.0,0.0,0.0,0.0,0.0,0.0,0.0,0.0,0.0,0.0,0.0,0.0,0.0,0.0,0.0,0.0,0.0,0.0,0.0,0.0,0.0,0.0,0.0,0.0,0.0,0.0,0.0,0.0,0.0,0.0,0.0,0.0,0.0,0.0,2.4333,2.4588,2.4592,0.0,0.0,0.0,0.0,2.3171,2.264,0.0,0.0,0.0,0.0,0.0,0.0,0.0,0.0,0.0,0.0,0.0,0.0,0.0,0.0,0.0,0.0,0.0,0.0,0.0,0.0,0.0,0.0,0.0,0.0,0.0,0.0,0.0,0.0,0.0,0.0,0.0,0.0,0.0,0.0,0.0,0.0,0.0,0.0,0.0,0.0,0.0,0.0,0.0,0.0,0.0,0.0,0.0,0.0,0.0,0.0,0.0,0.0,0.0,0.0,0.0,0.0,3.2139,3.2641,3.2893,3.2893,3.2893,3.2641,3.2139,3.2114,3.1888,0.0,0.0,0.0,0.0,0.0,0.0,0.0,0.0,0.0,0.0,0.0,0.0,0.0,0.0,0.0,0.0,0.0,0.0,0.0,0.0,0.0,0.0,0.0,0.0,0.0,0.0,0.0,0.0,0.0,0.0,0.0,0.0,0.0,0.0,0.0,0.0,0.0,0.0,0.0,0.0,0.0,2.4436,2.5001,2.4799,2.4559,0.0,0.0,2.5091,2.5462,2.4925,0.0,0.0,0.0,0.0,0.0,0.0,0.0,0.0,0.0,0.0,0.0,0.0,0.0,0.0,0.0,0.0,0.0,0.0,0.0,0.0,0.0,0.0,0.0,0.0,0.0,0.0,0.0,0.0,0.0,0.0,0.0,0.0,0.0,0.0,0.0,0.0,0.0,0.0,0.0,0.0,0.0,0.0,0.0,0.0,0.0,0.0,0.0,0.0,0.0,0.0,0.0,0.0,0.0,0.0,0.0,3.2692,3.2717,3.2943,3.3093,3.3093,3.3093,3.2968,3.2717,3.2692,3.2591,0.0,0.0,0.0,0.0,0.0,0.0,0.0,0.0,0.0,0.0,0.0,0.0,0.0,0.0,0.0,0.0,0.0,0.0,0.0,0.0,0.0,0.0,0.0,0.0,0.0,0.0,0.0,0.0,0.0,0.0,0.0,0.0,0.0,0.0,0.0,0.0,0.0,0.0,0.0,0.0,0.0,0.0,2.5124,2.5275,0.0,0.0,0.0,2.5861,2.6564,0.0,0.0,0.0,0.0,0.0,0.0,0.0,0.0,0.0,0.0,0.0,0.0,0.0,0.0,0.0,0.0,0.0,0.0,0.0,0.0,0.0,0.0,0.0,0.0,0.0,0.0,0.0,0.0,0.0,0.0,0.0,0.0,0.0,0.0,0.0,0.0,0.0,0.0,0.0,0.0,0.0,0.0,0.0,0.0,0.0,0.0,0.0,0.0,0.0,0.0,0.0,0.0,0.0,0.0,0.0,0.0,0.0,3.3093,3.3093,3.3093,3.3093,3.3093,3.3093,3.3093,3.3093,0.0,0.0,0.0,0.0,0.0,0.0,0.0,0.0,0.0,0.0,0.0,0.0,0.0,0.0,0.0,0.0,0.0,0.0,0.0,0.0,0.0,0.0,0.0,0.0,0.0,0.0,0.0,2.7879,0.0,0.0,0.0,0.0,0.0,0.0,0.0,0.0,0.0,0.0,0.0,0.0,0.0,0.0,2.5084,2.5475,2.5661,2.5624,0.0,0.0,2.6389,2.7218,2.671,2.5747,0.0,0.0,0.0,0.0,0.0,0.0,0.0,0.0,0.0,0.0,0.0,0.0,0.0,0.0,0.0,0.0,0.0,0.0,0.0,0.0,0.0,0.0,0.0,0.0,0.0,0.0,0.0,0.0,0.0,0.0,0.0,0.0,0.0,0.0,0.0,0.0,0.0,0.0,0.0,0.0,0.0,0.0,0.0,0.0,0.0,0.0,0.0,0.0,0.0,0.0,0.0,0.0,0.0,0.0,0.0,3.3093,3.3093,3.3093,3.3093,3.3093,3.3093,3.3093,3.3093,3.3093,0.0,0.0,0.0,0.0,0.0,0.0,0.0,0.0,0.0,0.0,0.0,0.0,0.0,0.0,0.0,0.0,0.0,0.0,0.0,0.0,0.0,0.0,0.0,0.0,0.0,0.0,0.0,0.0,0.0,0.0,0.0,0.0,0.0,0.0,0.0,0.0,0.0,0.0,0.0,0.0,0.0,2.5473,2.6434,2.5961,2.5911,0.0,0.0,2.6775,2.7232,2.7274,2.7084,2.6703,0.0,0.0,0.0,0.0,0.0,0.0,0.0,0.0,0.0,0.0,0.0,0.0,0.0,0.0,0.0,0.0,0.0,0.0,0.0,0.0,0.0,0.0,0.0,0.0,0.0,0.0,0.0,0.0,0.0,0.0,0.0,0.0,0.0,0.0,0.0,0.0,0.0,0.0,0.0,0.0,0.0,0.0,0.0,0.0,0.0,0.0,0.0,0.0,0.0,0.0,0.0,0.0,0.0,3.3093,3.3093,3.3093,3.3093,3.3093,3.3093,3.3093,3.3093,3.3093,3.3093,0.0,0.0,0.0,0.0,0.0,0.0,0.0,0.0,0.0,0.0,0.0,0.0,0.0,0.0,0.0,0.0,0.0,0.0,0.0,0.0,0.0,0.0,0.0,0.0,0.0,0.0,0.0,0.0,3.0286,3.0146,3.0517,0.0,0.0,0.0,0.0,0.0,0.0,0.0,0.0,0.0,0.0,2.5744,2.6279,2.6402,0.0,0.0,2.6968,2.6886,2.7208,2.7435,2.7482,2.7482,2.7611,0.0,0.0,0.0,0.0,0.0,0.0,0.0,0.0,0.0,0.0,0.0,0.0,0.0,0.0,0.0,0.0,0.0,0.0,0.0,0.0,0.0,0.0,0.0,0.0,0.0,0.0,0.0,0.0,0.0,0.0,0.0,0.0,0.0,0.0,0.0,0.0,0.0,0.0,0.0,0.0,0.0,0.0,0.0,0.0,0.0,0.0,0.0,0.0,0.0,0.0,0.0,0.0,3.3395,3.3545,3.3571,3.3571,3.3571,3.3571,3.3571,3.3571,3.3571,3.3495,0.0,0.0,0.0,0.0,0.0,0.0,0.0,0.0,0.0,0.0,0.0,0.0,0.0,0.0,0.0,0.0,0.0,0.0,0.0,0.0,0.0,0.0,0.0,0.0,0.0,0.0,0.0,0.0,3.1096,3.1327,3.1665,0.0,0.0,0.0,0.0,0.0,0.0,0.0,0.0,0.0,0.0,2.6034,2.6222,2.6601,2.6962,2.7221,2.7201,2.7242,2.7482,2.7652,2.7836,2.7934,0.0,0.0,0.0,0.0,0.0,0.0,0.0,0.0,0.0,0.0,0.0,0.0,0.0,0.0,0.0,0.0,0.0,0.0,0.0,0.0,0.0,0.0,0.0,0.0,0.0,0.0,0.0,0.0,0.0,0.0,3.4319,0.0,0.0,0.0,0.0,0.0,0.0,0.0,0.0,0.0,0.0,0.0,0.0,0.0,0.0,0.0,0.0,0.0,0.0,0.0,0.0,0.0,0.0,3.4148,3.4675,3.465,3.4675,3.4675,3.4675,3.4675,3.465,3.4675,3.4424,3.3897,0.0,0.0,0.0,0.0,0.0,0.0,0.0,0.0,0.0,0.0,0.0,0.0,0.0,0.0,0.0,0.0,0.0,0.0,0.0,0.0,0.0,0.0,0.0,0.0,0.0,0.0,3.1713,3.1649,3.1649,0.0,0.0,0.0,0.0,0.0,0.0,0.0,0.0,0.0,0.0,2.6284,2.6496,2.6496,2.6709,2.6967,2.7215,2.759,2.793,2.7941,2.8025,2.8227,0.0,0.0,0.0,0.0,0.0,0.0,0.0,0.0,0.0,0.0,0.0,0.0,0.0,0.0,0.0,0.0,0.0,0.0,0.0,0.0,0.0,0.0,0.0,0.0,0.0,0.0,0.0,3.4397,3.4397,0.0,0.0,0.0,0.0,0.0,0.0,0.0,0.0,0.0,0.0,0.0,3.4806,3.4539,0.0,0.0,0.0,0.0,0.0,0.0,0.0,0.0,0.0,0.0,0.0,0.0,3.4525,3.4726,3.4726,3.4726,3.4726,3.4726,3.4726,3.4726,3.4726,3.465,3.4449,0.0,0.0,0.0,0.0,0.0,0.0,0.0,0.0,0.0,0.0,0.0,0.0,0.0,0.0,0.0,0.0,0.0,0.0,0.0,0.0,0.0,0.0,0.0,0.0,0.0,3.1673,0.0,0.0,0.0,0.0,0.0,0.0,0.0,0.0,0.0,0.0,0.0,2.5663,2.58,2.6173,2.6468,2.6645,2.6983,2.7282,0.0,0.0,0.0,0.0,0.0,0.0,0.0,0.0,0.0,0.0,0.0,0.0,0.0,0.0,2.7767,2.791,2.7871,2.7996,2.7871,0.0,0.0,0.0,0.0,0.0,0.0,0.0,0.0,0.0,0.0,0.0,0.0,0.0,0.0,0.0,0.0,3.4999,0.0,0.0,0.0,0.0,0.0,0.0,0.0,0.0,3.5264,3.5187,3.5364,3.5183,3.5193,0.0,3.5303,3.5303,0.0,0.0,0.0,0.0,0.0,0.0,0.0,0.0,3.5102,3.5278,3.5278,3.5303,3.5303,3.5278,3.5278,3.5278,3.5102,3.5002,3.5002,3.4826,3.4726,0.0,0.0,0.0,0.0,0.0,0.0,0.0,0.0,0.0,0.0,0.0,0.0,0.0,0.0,0.0,0.0,0.0,0.0,0.0,0.0,0.0,0.0,0.0,3.1673,0.0,0.0,0.0,0.0,0.0,0.0,0.0,0.0,0.0,2.6251,2.5977,2.6016,2.6152,2.6506,2.6783,2.6983,0.0,0.0,0.0,0.0,0.0,0.0,0.0,2.9229,2.9332,2.9618,2.9754,2.9662,2.9272,2.9046,2.9082,0.0,0.0,2.8769,2.875,2.873,2.873,2.8281,2.8066,2.8633,2.8301,2.8144,0.0,0.0,0.0,0.0,0.0,0.0,0.0,0.0,3.607,3.607,0.0,3.607,0.0,0.0,0.0,0.0,0.0,3.562,0.0,0.0,3.543,3.5415,3.5897,3.5923,3.6202,3.6709,3.6521,3.6521,3.6539,3.537,0.0,0.0,0.0,0.0,0.0,0.0,3.583,3.6307,3.6332,3.6358,3.6332,3.6358,3.6358,3.6332,3.583,3.5487,3.5554,3.5077,3.4776,3.4776,3.4776,0.0,0.0,0.0,0.0,0.0,0.0,0.0,0.0,0.0,0.0,0.0,0.0,0.0,0.0,0.0,0.0,0.0,0.0,0.0,0.0,3.1673,0.0,0.0,0.0,0.0,0.0,0.0,0.0,0.0,0.0,0.0,2.6923,2.6506,2.6543,2.6953,0.0,0.0,0.0,0.0,2.76,2.7168,2.8101,2.9188,2.9953,2.9805,2.9679,2.97,0.0,0.0,2.9603,2.9662,2.9662,2.9702,2.957,2.959,2.9609,2.9682,2.9662,2.9531,2.9473,2.9551,2.957,2.9434,2.9473,3.7142,0.0,0.0,0.0,0.0,3.6096,3.6096,3.6096,3.6096,3.6096,3.6096,3.6096,0.0,0.0,0.0,0.0,0.0,0.0,3.6715,3.7013,3.6856,3.6816,3.6759,3.6759,3.6743,3.6709,3.664,3.6546,3.6427,3.615,3.5881,3.5881,0.0,0.0,0.0,0.0,3.6207,3.6358,3.6358,3.6358,3.6358,3.6358,3.6358,3.6358,3.6207,3.6132,3.6132,3.5981,3.5881,3.5881,3.5529,0.0,0.0,0.0,0.0,0.0,0.0,0.0,0.0,0.0,0.0,0.0,0.0,0.0,0.0,0.0,0.0,0.0,0.0,0.0,3.1673,3.1673,3.1817,0.0,0.0,0.0,0.0,0.0,0.0,0.0,0.0,0.0,2.8734,2.8207,2.7763,0.0,0.0,2.7584,2.7584,2.7944,2.8246,2.8351,2.8765,0.0,3.045,3.0491,3.0488,3.0818,3.0874,3.0778,3.055,3.0349,3.0227,3.032,2.9961,2.9812,3.0391,3.0571,3.0346,2.9741,2.957,2.957,2.957,2.957,2.9668,3.7691,3.7325,3.6959,3.6828,3.6828,3.6828,3.6828,3.6828,3.6828,3.6802,3.6802,3.6828,3.6802,3.6828,3.6802,0.0,0.0,0.0,3.7352,3.769,3.7505,3.7413,3.7227,3.7294,3.7201,3.7015,3.6803,3.6734,3.6828,3.6546,3.6578,3.6874,0.0,0.0,3.6358,3.6358,3.6358,3.6358,3.6358,3.6358,3.6358,3.6358,3.6358,3.6358,3.6358,3.6358,3.6358,3.6358,3.6358,3.6358,3.6056,3.5881,0.0,0.0,0.0,0.0,0.0,0.0,0.0,0.0,0.0,0.0,0.0,3.3168,3.2901,0.0,0.0,0.0,3.2274,3.2322,3.2298,3.2322,0.0,0.0,0.0,0.0,0.0,0.0,0.0,3.2676,3.2699,3.219,3.0961,3.0184,2.9206,2.7727,2.7754,2.8015,2.8226,0.0,2.866,2.9313,2.946,2.9876,3.1054,3.1096,3.1112,3.1457,3.1519,3.1491,3.1299,3.1095,3.097,3.0869,3.0662,3.0606,3.1074,3.1307,3.1357,3.0423,3.0418,3.0418,3.0418,3.0305,3.0384,3.8031,3.8031,3.8031,3.7978,3.79,3.79,3.79,3.79,3.79,3.79,3.79,3.79,3.79,3.79,3.79,0.0,3.79,3.7598,3.7716,3.7978,3.7675,3.7609,3.7635,3.7661,3.7635,3.7635,3.7143,3.7143,3.7568,3.6887,3.695,3.7622,3.695,3.6578,3.6508,3.6508,3.6483,3.6483,3.6508,3.6508,3.6508,3.6483,3.6508,3.6508,3.6458,3.6433,3.6433,3.6383,3.6358,3.6358,3.6358,3.6358,3.6358,0.0,0.0,0.0,0.0,0.0,0.0,0.0,0.0,0.0,0.0,0.0,0.0,0.0,0.0,0.0,3.3119,0.0,3.3284,3.3284,0.0,0.0,0.0,3.3356,3.3404,3.3404,3.3597,3.4054,0.0,0.0,3.3254,3.2275,3.0888,2.8747,2.8427,2.8514,2.9066,2.8893,2.912,3.0166,3.0248,3.0689,3.1532,3.1636,3.154,3.1666,3.1769,3.184,3.1957,3.2004,3.1772,3.156,3.1604,3.1603,3.1543,3.2135,3.2354,3.1582,3.154,3.1792,3.1772,3.154,3.1327,3.9207,3.9207,3.9207,3.871,3.79,3.79,3.79,3.79,3.79,3.79,3.79,3.79,3.79,3.79,3.79,3.79,3.79,3.7808,3.8043,3.8501,3.8434,3.8668,3.9086,3.9112,3.9016,3.8799,3.8704,3.8582,3.8486,3.8293,3.8273,3.8206,3.7982,3.7808,3.7613,3.7613,3.7465,3.7267,3.7465,3.7613,3.7613,3.7613,3.7613,3.7613,3.7211,3.6985,3.6985,3.6584,3.6358,3.6358,3.6358,3.6358,3.6358,3.6358,0.0,0.0,0.0,0.0,0.0,0.0,0.0,0.0,0.0,3.4156,3.3717,0.0,3.3586,0.0,3.3425,3.3284,3.3284,3.3284,0.0,0.0,3.3861,3.403,3.4414,3.4463,3.4511,3.4631,3.4655,3.429,3.33,3.2297,3.1202,3.0175,2.9013,2.8525,2.9252,2.9311,2.9559,3.0506,3.0717,3.1011,3.1836,3.2209,3.2437,3.2427,3.2715,3.2984,3.2971,3.3044,3.3031,3.2674,3.2157,3.1855,3.1992,3.2532,3.2794,3.2395,3.2216,3.2096,3.2096,3.2076,3.1976,3.9625,3.9625,3.9625,3.9233,3.8658,3.8658,3.8658,3.8658,3.8658,3.8658,3.8658,3.8658,3.8658,3.8658,3.8658,3.8658,3.8658,3.8658,3.8815,3.9102,3.9102,3.9285,3.9625,3.9625,3.9503,3.9407,3.931,3.9188,3.9188,3.8897,3.8902,3.9086,3.8914,3.8817,3.8919,3.8365,3.7866,3.7692,3.7866,3.799,3.799,3.799,3.799,3.799,3.7713,3.7538,3.7538,3.7262,3.7086,3.7086,3.686,3.6734,3.6709,3.6508,3.6358,0.0,0.0,0.0,0.0,0.0,0.0,0.0,0.0,0.0,0.0,0.0,3.4265,3.4268,3.41,3.3982,3.3982,3.3982,3.4078,3.4366,3.439,3.4511,3.4799,3.4823,3.4823,3.4823,3.4823,3.47,3.4322,3.2915,3.1858,3.17,3.0052,2.9055,2.949,2.9659,3.0018,3.0772,3.1075,3.1543,3.252,3.2851,3.3099,3.3306,3.3534,3.3679,3.3679,3.3767,3.3714,3.3355,3.3075,3.2811,3.293,3.3394,3.3636,3.3474,3.3331,3.3069,3.2732,3.2512,3.2391,3.9834,3.9834,3.9834,3.9834,3.9834,3.9834,3.9756,3.9625,3.9625,3.9625,3.9625,3.9625,3.9625,3.9625,3.9625,3.9625,3.9625,3.9625,3.9651,3.9703,3.9703,3.9756,3.9834,3.9834,3.9834,3.9834,3.9615,3.9615,3.9834,3.9298,3.9458,4.002,3.9674,3.9728,4.0007,3.8894,3.8216,3.8216,3.8216,3.8216,3.8216,3.8216,3.8216,3.8216,3.8165,3.8115,3.8115,3.804,3.799,3.799,3.7538,3.7287,3.7287,3.6835,3.6584,0.0,3.6584,0.0,0.0,0.0,0.0,0.0,0.0,0.0,0.0,3.5622,3.5017,3.4823,3.4823,3.4823,3.4823,3.4823,3.4823,3.4823,3.4823,3.4823,3.4823,3.4823,3.4847,3.4919,3.4919,3.5136,3.5541,3.3823,3.2757,3.309,3.1558,3.0409,3.0398,3.0266,3.0498,3.1124,3.1604,3.2292,3.3244,3.3451,3.3596,3.3948,3.4113,3.4155,3.4155,3.4238,3.4159,3.394,3.4105,3.4207,3.3983,3.4161,3.4403,3.4363,3.4238,3.4017,3.3416,3.2993,3.2792,4.0984,4.0984,4.0984,4.0984,4.0984,4.0984,4.0461,3.9625,3.9625,3.9625,3.9625,3.9625,3.9625,3.9625,3.9625,3.9625,3.9625,3.9625,3.9834,4.0252,4.0252,4.0514,4.0984,4.0984,4.0984,4.101,4.0885,4.0885,4.101,4.0885,4.0837,4.0715,4.064,4.0389,4.0058,0.0,0.0,0.0,3.9371,3.9371,3.9371,3.9371,3.9371,3.9371,3.8944,0.0,3.8693,3.8266,3.799,3.799,3.7914,0.0,0.0,0.0,0.0,0.0,0.0,0.0,0.0,0.0,0.0,0.0,3.6307,3.6338,3.6368,3.5404,3.4848,3.4799,3.4823,3.4823,3.4823,3.4823,3.4823,3.4823,3.4823,3.4823,3.4823,3.4823,3.4992,3.54,3.5473,3.5665,3.6045,3.5095,3.4425,3.4774,3.379,3.287,3.2467,3.1564,3.1184,3.193,3.2526,3.319,3.3844,3.3927,3.3969,3.4093,3.4403,3.461,3.4652,3.4921,3.5026,3.4759,3.4738,3.4655,3.4407,3.4383,3.4423,3.4423,3.4423,3.4238,3.3828,3.3664,3.3559,4.1324,0.0,4.1324,4.1324,0.0,4.1324,4.0984,4.0461,4.0461,4.0435,4.0461,4.0461,4.0435,4.0461,4.0461,4.0461,4.0435,4.0461,4.0592,4.0853,4.0853,4.101,4.1324,4.1324,4.1324,4.1324,4.1324,4.1324,4.1324,4.1324,4.1224,4.1097,4.0997,4.0769,4.0491,4.0287,3.9981,3.9697,3.9697,3.9697,3.9697,3.9697,3.9697,3.9697,3.9421,0.0,0.0,0.0,0.0,0.0,0.0,0.0,0.0,0.0,0.0,3.799,3.799,3.7889,3.7613,3.7588,3.7462,3.7186,3.6671,3.6351,3.6223,3.5596,3.5162,3.5211,3.5235,3.5138,3.5017,3.5017,3.492,3.4823,3.4823,3.4919,3.516,3.4939,3.5131,3.5881,3.6174,3.6392,3.6723,3.5817,3.5373,3.5619,3.4296,3.338,3.3215,3.2809,3.2621,3.2936,3.3182,3.3628,3.406,3.4163,3.4265,3.4471,3.4697,3.4943,3.5086,3.5149,3.517,3.517,3.4922,3.4673,3.4673,3.4548,3.4423,3.4423,3.4423,3.4298,3.4047,3.3922,3.3796,4.1324,4.1324,4.1324,4.1324,4.1324,4.1324,4.1324,4.1324,0.0,0.0,0.0,4.1324,4.1324,4.1324,4.1324,4.1324,4.1324,4.1324,4.1324,4.1324,4.1324,4.1324,4.1324,4.1428,4.1455,4.1481,4.1559,4.1611,4.1611,4.1611,4.1611,4.1611,4.1383,4.1207,4.1079,4.0568,4.0181,3.9973,3.9798,3.9697,3.9697,3.9697,3.9697,3.9697,3.9697,3.9697,3.9697,3.9697,3.9697,3.9672,3.927,3.9019,3.8994,3.8567,3.8316,3.8316,3.8316,3.8266,3.8165,3.8165,3.8115,3.8015,3.7295,3.6677,3.6326,3.6109,3.6012,3.5891,3.5891,3.5819,3.56,3.56,3.5503,3.5308,3.521,3.5304,3.5689,3.5294,3.5461,3.6411,3.6753,3.7097,3.7252,3.6567,3.6094,3.634,3.5268,3.3933,3.4128,3.3863,3.3617,3.4031,3.4036,3.3981,3.437,3.4513,3.4657,3.4923,3.5005,3.5046,3.5294,3.517,3.517,3.5294,3.4922,3.4797,3.4922,3.4797,3.4548,3.4548,3.4548,3.4423,3.4047,3.4047,3.3922,4.1324,4.1324,4.1324,4.1324,4.1324,4.1324,4.1324,4.1324,4.1324,4.1324,4.1324,4.1324,4.1324,4.1324,4.1324,4.1324,4.1324,4.1324,4.1324,0.0,4.1324,4.1324,4.135,4.1821,4.2056,4.2082,4.2526,4.2788,4.2788,4.2762,4.2788,4.2762,4.2684,4.245,4.2057,4.1423,4.1103,4.1103,4.0174,3.9697,3.9697,3.9697,3.9697,3.9697,3.9722,3.9697,3.9697,3.9697,3.9697,3.9697,3.9622,3.9572,3.9572,3.9496,3.9471,3.9446,3.9446,3.9245,3.8768,3.8743,3.8542,3.8065,3.8164,3.8015,3.7394,3.7543,3.7494,3.7097,3.7047,3.7097,3.6997,3.6948,3.6923,3.6848,3.6673,3.6521,3.6594,3.6069,3.6135,3.6988,3.706,3.7276,3.7709,3.7642,3.7726,3.8203,3.7606,3.7799,3.7199,3.5221,3.4155,3.5227,3.5134,3.4838,3.5046,3.5191,3.5211,3.5273,3.5294,3.5294,3.5418,3.5294,3.5294,3.5418,3.517,3.517,3.5294,3.5294,3.5046,3.5046,3.5046,3.4922,3.4298,3.4173,3.4047,4.2239,4.2239,4.2239,4.2239,4.2239,4.2239,4.2239,4.211,4.1543,4.1308,4.1324,4.1324,4.1324,4.135,4.1638,4.1768,4.1794,4.2108,4.2239,4.2239,4.2239,4.2239,4.2265,4.25,4.2631,4.2657,4.2892,4.3023,4.3023,4.3023,4.3023,4.3023,4.2814,4.2604,4.2182,4.1757,4.1436,4.1329,4.0852,4.0576,4.0601,4.0601,4.0576,4.0576,4.0576,4.0576,4.0601,4.0576,4.0576,4.0576,4.0325,4.0278,4.0124,3.9873,3.9697,3.9697,3.9697,3.9572,3.9346,3.932,3.9195,3.8944,3.9095,3.912,3.8716,3.8467,3.8165,3.7717,3.7717,3.7618,3.7518,3.7494,3.7294,3.7017,3.7017,3.714,3.7181,3.6627,3.6589,3.7573,3.7718,3.7685,3.795,3.8238,3.8503,3.8707,3.8651,3.8681,3.8689,3.6535,3.496,3.5997,3.594,3.5414,3.5005,3.4797,3.4922,3.5046,3.517,3.517,3.5294,3.517,3.4922,3.5046,3.4673,3.4423,3.4548,3.4423,3.4298,3.4298,3.4423,3.4298,3.4047,3.3796,3.3796,4.3023,4.3023,4.3023,4.3023,4.3023,4.3023,4.3023,4.2866,4.2086,4.1647,4.1641,4.169,4.1716,4.1742,4.216,4.2369,4.2422,4.2814,4.3023,4.3023,4.3023,4.3023,4.3049,4.3154,4.3206,4.3232,4.3337,4.3389,4.3389,4.3415,4.3415,4.331,4.2993,4.2806,4.2567,4.222,4.1897,4.1706,4.1706,4.158,4.1354,4.1329,4.1329,4.1329,4.1329,4.1329,4.1329,4.1329,4.1329,4.1304,4.0953,4.0727,4.0676,4.017,4.0023,4.0049,3.9948,3.9823,3.9697,3.9697,3.9697,3.9697,3.9697,3.9697,3.9647,3.9222,3.8717,3.8417,3.8442,3.8317,3.8141,3.8116,3.789,3.7486,3.7587,3.7885,3.7898,3.7387,3.7252,3.8218,3.8331,3.8345,3.8369,3.8755,3.9141,3.9406,3.9273,3.9312,3.9175,3.8044,3.7407,3.6902,3.646,3.55,3.4548,3.4423,3.4548,3.4797,3.4797,3.4922,3.5046,3.4797,3.4548,3.4673,3.4173,3.3922,3.3922,3.3922,3.3796,3.3796,3.4047,3.3922,3.367,3.3544,3.3418,4.3023,4.3023,4.3075,4.3023,4.3049,4.3049,4.3075,4.3049,4.2866,4.284,4.2866,4.2866,4.2866,4.2866,4.2918,4.2944,4.2944,4.2997,4.3049,4.3075,4.3023,4.3023,4.3127,4.3546,4.3781,4.3859,4.4278,4.446,4.4487,4.4513,4.4539,4.4457,4.4048,4.3694,4.3694,4.3144,4.2811,4.2836,4.2836,4.2333,4.1404,4.1329,4.1329,4.1329,4.1354,4.1329,4.1404,4.1329,4.1354,4.1329,4.0989,4.0939,4.1121,4.0889,4.0839,4.1021,4.0727,4.0224,3.9772,3.9697,3.9747,3.9697,3.9722,3.9722,3.9697,3.9597,3.9546,3.9471,3.9496,3.9446,3.9521,3.9471,3.9318,3.9166,3.9113,3.9134,3.903,3.8841,3.855,3.8396,3.9004,3.9369,3.9248,3.9504,4.0123,4.0783,4.1047,4.1322,4.1347,4.0937,4.0129,3.868,3.6695,3.4881,3.4383,3.4423,3.4548,3.4548,3.4673,3.4797,3.4673,3.4673,3.4797,3.4423,3.4298,3.4173,3.4173,3.4298,3.4173,3.4047,3.4047,3.4173,3.3922,3.3544,3.3418,4.4016,4.4042,4.4042,4.4016,4.4042,4.4042,4.4042,4.4042,4.4042,4.4042,4.4042,4.4042,4.365,4.3049,4.3363,4.352,4.3546,4.3859,4.4042,4.4042,4.4042,4.4042,4.4068,4.4251,4.4382,4.4382,4.4617,4.4748,4.4748,4.4748,4.4748,4.4613,4.4203,4.3899,4.3899,4.3321,4.2986,4.2986,4.2986,4.276,4.2359,4.2308,4.2308,4.2308,4.2308,4.2308,4.2308,4.2308,4.2308,4.2283,4.2192,4.2016,4.1831,4.1947,4.1878,4.1354,4.1128,4.0902,4.0676,4.0676,4.0526,4.0199,4.0174,4.0049,3.9722,3.9697,3.9697,3.9697,3.9697,3.9697,3.9697,3.9697,3.9697,3.949,3.9387,3.9283,3.9283,3.929,3.9382,3.9357,3.9501,3.9649,3.9782,4.0061,4.0595,4.1281,4.1736,4.1859,4.1997,4.1492,4.0432,3.9239,3.7089,3.5333,3.4575,3.519,3.5335,3.4901,3.4797,3.4797,3.4423,3.4298,3.4298,3.4173,3.3922,3.3922,3.3796,3.3796,3.3796,3.3796,3.3796,3.3796,3.3922,3.367,3.3418,4.4748,4.4748,4.4748,4.4748,4.4748,4.4748,4.4748,4.4748,4.4748,4.4748,4.4748,4.4748,4.4278,4.3624,4.3938,4.4121,4.4173,4.4539,4.4748,4.4748,4.4748,4.4722,4.4748,4.4748,4.4748,4.4748,4.4722,4.4748,4.4748,4.4748,4.4613,4.4505,4.4094,4.3874,4.3764,4.3184,4.2986,4.2986,4.2986,4.2986,4.2961,4.2986,4.2986,4.2986,4.2986,4.2986,4.2986,4.2986,4.2986,4.2986,4.2982,4.2891,4.2494,4.2772,4.2518,4.1739,4.1555,4.1505,4.1354,4.1329,4.1153,4.0802,4.0752,4.0576,4.0249,4.0149,4.0149,4.0174,4.0149,4.0099,3.9722,3.9697,3.9644,3.9665,3.9586,3.9636,3.9835,3.9841,3.9775,4.0219,4.0389,4.0293,4.0463,4.0692,4.1217,4.1623,4.172,4.1859,4.1972,4.1378,4.0595,4.0176,3.8857,3.7221,3.539,3.5046,3.55,3.5025,3.4423,3.4423,3.4173,3.3922,3.3796,3.3796,3.3544,3.3418,3.3544,3.3418,3.3418,3.3418,3.3418,3.3544,3.367,3.3544,3.3418,4.4748,4.4748,4.4748,4.4748,4.4748,4.4748,4.4748,4.4748,4.4748,4.4748,4.4748,4.4748,4.4696,4.4591,4.4617,4.4696,4.4696,4.4696,4.4748,4.4748,4.4748,4.4748,4.4748,4.4748,4.4748,4.4748,4.4748,4.4748,4.4748,4.4748,4.4505,4.4313,4.401,4.3764,4.3517,4.3209,4.2986,4.2986,4.2986,4.2986,4.2986,4.2986,4.2986,4.2986,4.2986,4.2986,4.2986,4.2986,4.2986,4.2986,4.2961,4.2936,4.2936,4.3022,4.2771,4.2208,4.2108,4.1907,4.148,4.143,4.1379,4.1304,4.1304,4.1279,4.1128,4.1103,4.1103,4.1204,4.1128,4.0777,3.9973,3.9898,4.0023,4.032,4.037,4.0595,4.1046,4.0202,4.0144,4.0789,4.1323,4.1457,4.1412,4.1785,4.1785,4.1972,4.1997,4.211,4.211,4.1972,4.1981,4.2127,4.1619,4.0457,3.724,3.5976,3.4777,3.3922,3.4047,3.3922,3.3796,3.367,3.3544,3.3544,3.3418,3.3418,3.3418,3.3418,3.3418,3.3418,3.3418,3.3418,3.3544,3.3437,3.3496,4.4748,4.4748,4.4748,4.4748,4.4748,4.4748,4.4748,4.4748,4.4748,4.4748,4.4748,4.4748,4.4748,4.4748,4.4748,4.4748,4.4748,4.4748,4.4748,4.4748,4.4748,4.4748,4.4748,4.4748,4.4748,4.4748,4.4748,4.4748,4.4748,4.4748,4.4613,4.4505,4.4094,4.3899,4.3653,4.3209,4.2986,4.2986,4.2986,4.2986,4.2986,4.2986,4.2986,4.2986,4.2986,4.2986,4.2986,4.2986,4.2986,4.2986,4.2986,4.2986,4.2986,4.2986,4.2886,4.271,4.2685,4.261,4.2434,4.2384,4.2233,4.1907,4.1856,4.1706,4.1404,4.1329,4.1329,4.1354,4.1329,4.1078,4.0902,4.0752,4.0827,4.0978,4.0814,4.0914,4.1089,4.0671,4.0489,4.1225,4.1657,4.1623,4.1468,4.1402,4.1631,4.1745,4.172,4.1859,4.1997,4.211,4.2054,4.2031,4.0857,3.909,3.7584,3.709,3.6338,3.4528,3.3796,3.3796,3.3544,3.3544,3.3418,3.3544,3.3418,3.3418,3.3418,3.3418,3.3418,3.3476,3.3476,3.3516,3.3418,3.3672,3.3809,4.4748,4.4748,4.4748,4.4748,4.4748,4.4748,4.4748,4.4748,4.4748,4.4748,4.4748,4.4748,4.4748,4.4748,4.4748,4.4748,4.4748,4.4748,4.4748,4.4748,4.4748,4.4748,4.4748,4.4748,4.4748,4.4748,4.4748,4.4748,4.4748,4.4748,4.4613,4.4531,4.4094,4.3874,4.3653,4.3209,4.2986,4.2986,4.2986,4.2986,4.2986,4.2986,4.2986,4.2986,4.2986,4.2986,4.2986,4.2986,4.2986,4.2986,4.2986,4.2986,4.2986,4.2986,4.2986,4.2986,4.2986,4.2986,4.2986,4.2986,4.2811,4.2484,4.2409,4.2233,4.1907,4.1882,4.1856,4.1856,4.1856,4.1882,4.1856,4.1882,4.1806,4.1656,4.1389,4.1464,4.1747,4.1582,4.1373,4.1496,4.1565,4.1468,4.1287,4.1172,4.1287,4.1492,4.1492,4.1631,4.1769,4.1426,4.1365,4.1543,3.9652,3.7703,3.6329,3.5911,3.5827,3.4278,3.367,3.3544,3.3544,3.3418,3.3418,3.3418,3.3418,3.3418,3.3418,3.3418,3.3496,3.3594,3.3711,3.3789,3.3887,3.4101,3.4219,4.4748,4.4748,4.4748,4.4748,4.4748,4.4748,4.4748,4.4748,4.4748,4.4748,4.4748,4.4748,4.4748,4.4748,4.4748,4.4748,4.4748,4.4748,4.4748,4.4748,4.4748,4.4748,4.4748,4.4748,4.4748,4.4748,4.4748,4.4748,4.4748,4.4748,4.4613,4.4313,4.401,4.3764,4.3406,4.3184,4.2986,4.2986,4.2986,4.2986,4.2986,4.2986,4.2986,4.2986,4.2986,4.2986,4.2986,4.2986,4.2986,4.2986,4.2986,4.2986,4.2986,4.2986,4.2986,4.2986,4.2986,4.2986,4.2986,4.2986,4.2986,4.2886,4.2936,4.2861,4.2785,4.2811,4.2811,4.2785,4.2811,4.2886,4.2836,4.2836,4.2635,4.2258,4.2158,4.2248,4.276,4.2925,4.2499,4.1598,4.1444,4.1492,4.1287,4.1196,4.1172,4.1287,4.1287,4.1287,4.1172,4.0432,4.0036,4.015,3.8799,3.6524,3.5375,3.4389,3.4178,3.3796,3.3544,3.3418,3.3418,3.3418,3.3418,3.3418,3.3418,3.3418,3.3633,3.3652,3.3809,3.3906,3.4004,3.416,3.4316,3.4492,3.4648,4.4748,4.4748,4.4748,4.4748,4.4748,4.4748,4.4748,4.4748,4.4748,4.4748,4.4748,4.4748,4.4748,4.4748,4.4748,4.4748,4.4748,4.4748,4.4748,4.4748,4.4748,4.4748,4.4748,4.4748,4.4748,4.4748,4.4748,4.4748,4.4748,4.4748,4.4531,4.4313,4.401,4.3764,4.3406,4.3184,4.2986,4.2986,4.2986,4.2986,4.2986,4.2986,4.2986,4.2986,4.2986,4.2986,4.2986,4.2986,4.2986,4.2986,4.2986,4.2986,4.2986,4.2986,4.2986,4.2986,4.2986,4.2986,4.2986,4.2986,4.2986,4.2986,4.2986,4.2986,4.2986,4.2986,4.2986,4.2986,4.2986,4.2986,4.2986,4.2986,4.2886,4.2735,4.2488,4.2513,4.2824,4.27,4.1997,4.1378,4.1263,4.1287,4.1172,4.1196,4.1196,4.1196,4.1196,4.1196,4.1057,3.9966,3.8885,3.8545,3.6824,3.5581,3.4531,3.3888,3.3717,3.367,3.3544,3.3418,3.3418,3.3418,3.3418,3.3476,3.3476,3.3574,3.3769,3.3945,3.4101,3.4316,3.4492,3.4609,3.4707,3.4883,3.5078,4.4748,4.4748,4.4748,4.4748,4.4748,4.4748,4.4748,4.4748,4.4748,4.4748,4.4748,4.4748,4.4748,4.4748,4.4748,4.4748,4.4748,4.4748,4.4748,4.4748,4.4748,4.4748,4.4748,4.4748,4.4748,4.4748,4.4748,4.4748,4.4722,4.4613,4.4531,4.4313,4.3874,4.3653,4.3406,4.3184,4.2986,4.2986,4.2986,4.2986,4.2986,4.2986,4.2986,4.2986,4.2986,4.2986,4.2986,4.2986,4.2986,4.2986,4.2986,4.2986,4.2986,4.2986,4.2986,4.2986,4.2986,4.2986,4.2986,4.2986,4.2986,4.2986,4.2986,4.2986,4.2986,4.2986,4.2986,4.2986,4.2986,4.2986,4.2986,4.2986,4.2986,4.2986,4.2849,4.2762,4.2787,4.2337,4.1883,4.1426,4.1196,4.1196,4.1196,4.1196,4.1196,4.1196,4.1196,4.1196,4.0826,3.9592,3.8387,3.7067,3.5725,3.4632,3.365,3.3398,3.3398,3.3418,3.3418,3.3418,3.3418,3.3418,3.3437,3.3691,3.3769,3.3965,3.416,3.4277,3.4414,3.4668,3.498,3.5117,3.5254,3.543,3.5605,4.4748,4.4748,4.4748,4.4748,4.4748,4.4748,4.4748,4.4748,4.4748,4.4748,4.4748,4.4748,4.4748,4.4748,4.4748,4.4748,4.4748,4.4748,4.4748,4.4722,4.483,4.4938,4.4722,4.4938,4.5046,4.4938,4.5046,4.502,4.5235,4.483,4.4422,4.4396,4.3823,4.3381,4.3295,4.3073,4.2986,4.2986,4.2986,4.2986,4.2986,4.2986,4.2986,4.2986,4.2986,4.2986,4.2986,4.2986,4.2986,4.2986,4.2986,4.2986,4.2986,4.2986,4.2986,4.2986,4.2986,4.2986,4.2986,4.2986,4.2986,4.2986,4.2986,4.2986,4.2986,4.2986,4.2986,4.2986,4.2986,4.2986,4.2986,4.2986,4.2986,4.2986,4.2874,4.2787,4.2411,4.2135,4.1769,4.1311,4.1196,4.1196,4.1196,4.1196,4.1196,4.1196,4.1196,4.1196,4.0687,3.9474,3.779,3.646,3.5253,3.4153,3.3418,3.3418,3.3418,3.3457,3.3496,3.3555,3.3535,3.3535,3.3711,3.3945,3.4121,3.4336,3.4551,3.4687,3.4922,3.5254,3.5488,3.5664,3.5762,3.584,3.5743,4.4748,4.4748,4.4748,4.4748,4.4748,4.4748,4.4748,4.4722,4.4748,4.4748,4.4748,4.4748,4.4748,4.4748,4.4748,4.4748,4.4722,4.4748,4.4748,4.483,4.5662,4.5449,4.502,4.5555,4.5953,4.6058,4.6556,4.7177,4.7047,4.5926,4.5422,4.5101,4.4042,4.3381,4.3073,4.3073,4.2986,4.2986,4.2986,4.2986,4.3011,4.3011,4.2986,4.2986,4.3011,4.3011,4.2986,4.2986,4.2986,4.2986,4.2986,4.2986,4.2986,4.2986,4.2986,4.2986,4.2986,4.2986,4.2986,4.2986,4.2986,4.2986,4.2986,4.2986,4.2986,4.2986,4.2986,4.2986,4.2986,4.2986,4.2986,4.2986,4.2874,4.265,4.265,4.2425,4.2021,4.1769,4.1631,4.1287,4.1196,4.1196,4.1196,4.1196,4.1196,4.1196,4.1057,4.1057,4.0455,3.8885,3.6946,3.646,3.5479,3.4153,3.3418,3.3418,3.3437,3.3496,3.3613,3.3789,3.3769,3.3769,3.4082,3.4414,3.4512,3.4687,3.498,3.5215,3.5527,3.5723,3.582,3.5879,3.5782,3.584,3.5685,4.4748,4.4748,4.4748,4.4748,4.4748,4.4748,4.4938,4.5235,4.4938,4.5046,4.5235,4.483,4.4748,4.4748,4.4748,4.5046,4.5342,4.5449,4.5635,4.6269,4.6764,4.666,4.6347,4.6867,4.7074,4.7074,4.7661,4.7864,4.7689,4.6867,4.6347,4.582,4.467,4.4126,4.4453,4.3406,4.3295,4.3517,4.3295,4.3062,4.3288,4.3313,4.3489,4.3589,4.3664,4.3664,4.3664,4.3463,4.3237,4.3062,4.2986,4.2986,4.2986,4.2986,4.2986,4.2986,4.2986,4.2986,4.2986,4.2986,4.2986,4.2986,4.2986,4.2986,4.2986,4.2986,4.2986,4.2986,4.2986,4.2986,4.2986,4.2986,4.2874,4.265,4.2425,4.2199,4.1769,4.1631,4.1492,4.1287,4.1196,4.1196,4.1196,4.1196,4.1196,4.1057,4.0571,4.0432,3.9943,3.8029,3.6767,3.6465,3.5418,3.3922,3.3555,3.3613,3.3789,3.3828,3.4023,3.416,3.4219,3.4219,3.4492,3.4824,3.4902,3.5078,3.5371,3.5625,3.5762,3.5918,3.6016,3.6016,3.5879,3.5606,3.547,4.483,4.483,4.4722,4.4748,4.4748,4.4748,4.5342,4.6058,4.5342,4.5555,4.6164,4.5555,4.5342,4.502,4.5449,4.5662,4.6583,4.6583,4.7177,4.7791,4.8195,4.8195,4.8368,4.8195,4.8195,4.8167,4.8267,4.8396,4.8195,4.7689,4.7308,4.6764,4.5608,4.5475,4.5581,4.439,4.4061,4.4765,4.3873,4.3739,4.4042,4.4118,4.4066,4.4342,4.4418,4.4443,4.4367,4.4116,4.3689,4.3187,4.3062,4.2986,4.2986,4.2986,4.2986,4.2986,4.2986,4.2986,4.2986,4.2986,4.2986,4.2986,4.2986,4.2986,4.2986,4.2986,4.2986,4.2986,4.2986,4.2986,4.2986,4.2986,4.2762,4.2425,4.2199,4.1972,4.1606,4.1606,4.1492,4.1287,4.1196,4.1196,4.1196,4.1196,4.1196,4.1057,4.0455,3.9826,3.9098,3.7429,3.6896,3.7031,3.5521,3.3709,3.3633,3.3828,3.4082,3.4277,3.457,3.4746,3.4863,3.4922,3.5059,3.5234,3.5371,3.5547,3.5781,3.5957,3.5996,3.5996,3.6016,3.6016,3.5879,3.547,3.5333,4.6058,4.598,4.502,4.4748,4.4748,4.4748,4.5368,4.6428,4.6191,4.6769,4.741,4.7383,4.7177,4.7177,4.7074,4.7457,4.7661,4.7791,4.8296,4.912,4.9317,4.9805,5.0095,4.9708,4.9317,4.9415,5.0095,5.0316,4.9902,4.8894,4.8296,4.792,4.6873,4.638,4.6892,4.6005,4.5805,4.6781,4.5443,4.4903,4.5258,4.4878,4.4634,4.4719,4.4694,4.4669,4.4618,4.4518,4.4392,4.4091,4.3514,4.3112,4.3112,4.3037,4.3037,4.3037,4.2986,4.2986,4.2986,4.2986,4.2986,4.2986,4.2986,4.2986,4.2986,4.2986,4.2986,4.2986,4.2986,4.2986,4.2961,4.2762,4.2538,4.2199,4.1972,4.1631,4.1402,4.1287,4.1287,4.1172,4.1196,4.1196,4.1196,4.1196,4.1196,4.1057,4.0199,3.9334,3.8127,3.6703,3.6406,3.6413,3.5415,3.3633,3.4015,3.4309,3.457,3.4805,3.5078,3.5254,3.5371,3.541,3.5469,3.5644,3.584,3.5996,3.6016,3.6035,3.6016,3.6016,3.6035,3.5879,3.5606,3.5333,3.5135,4.7612,4.7929,4.6786,4.6381,4.6463,4.6867,4.7507,4.7929,4.8033,4.849,4.8979,4.8748,4.8274,4.7965,4.8066,4.8167,4.8795,4.9288,4.9805,5.0316,5.0316,5.0632,5.1011,5.0728,5.0316,5.0412,5.0728,5.0822,5.0442,4.9892,4.9421,4.9381,4.8238,4.8395,4.8869,4.7649,4.7432,4.8002,4.7203,4.6273,4.5822,4.5988,4.5639,4.5464,4.5422,4.5422,4.5447,4.5146,4.5045,4.4819,4.4242,4.3765,4.3689,4.3489,4.3388,4.3338,4.3087,4.3011,4.2986,4.2986,4.2986,4.2986,4.2986,4.2986,4.2986,4.2986,4.2986,4.2986,4.2986,4.2986,4.2961,4.2737,4.2425,4.211,4.1859,4.1492,4.1287,4.1196,4.1196,4.1196,4.1196,4.1196,4.1196,4.1196,4.1196,4.1057,3.9121,3.8127,3.7407,3.6093,3.5046,3.473,3.4366,3.3995,3.4398,3.4662,3.5078,3.5351,3.5605,3.5703,3.5781,3.5781,3.5781,3.5898,3.5996,3.5996,3.6035,3.6035,3.6035,3.6035,3.5899,3.5743,3.5547,3.5287,3.5105,4.932,5.0162,4.9,4.8463,4.8678,4.9504,4.9868,5.0077,5.0162,5.0383,5.0801,4.9982,4.9724,4.9023,4.9066,4.9408,5.0155,5.0892,5.1548,5.1518,5.1548,5.1643,5.1708,5.1613,5.1488,5.1528,5.128,5.109,5.0854,5.0632,5.0621,5.0643,4.9938,5.0075,5.0869,4.9833,4.9116,4.9688,4.89,4.8288,4.7132,4.744,4.6927,4.6289,4.615,4.615,4.605,4.5824,4.5598,4.5573,4.5146,4.4945,4.4719,4.4267,4.3915,4.389,4.3463,4.3212,4.3162,4.3062,4.2986,4.2986,4.2986,4.2986,4.2986,4.2986,4.2986,4.2986,4.2986,4.2986,4.2961,4.265,4.2312,4.2086,4.1745,4.1516,4.1287,4.1196,4.1196,4.1196,4.1196,4.1196,4.1196,4.1196,4.1196,4.0826,3.8744,3.7188,3.6603,3.5583,3.4604,3.4279,3.4113,3.4336,3.476,3.5093,3.5508,3.5664,3.5957,3.5976,3.6016,3.5957,3.5918,3.5957,3.6016,3.6035,3.6035,3.6035,3.6035,3.5899,3.5859,3.5701,3.5539,3.5255,3.5088,5.1193,5.1193,5.0162,4.9743,4.9771,4.9981,5.0663,5.1193,5.141,5.19,5.2634,5.2605,5.2221,5.2142,5.2299,5.2426,5.2375,5.2509,5.2695,5.2695,5.2695,5.2665,5.2636,5.2606,5.2725,5.2695,5.23,5.1981,5.1984,5.2023,5.1637,5.141,5.1237,5.1686,5.1811,5.125,5.1023,5.1711,5.071,5.027,5.0487,4.8965,4.747,4.6541,4.6421,4.6326,4.6326,4.6225,4.6175,4.6175,4.6075,4.5999,4.5748,4.502,4.4593,4.4367,4.3966,4.3664,4.3639,4.3263,4.3037,4.2986,4.2986,4.2986,4.2986,4.2986,4.2986,4.2986,4.2986,4.2986,4.2961,4.2538,4.2199,4.1972,4.1631,4.1287,4.1172,4.1196,4.1196,4.1196,4.1196,4.1196,4.1196,4.1196,4.1196,4.0571,3.8744,3.7616,3.7097,3.5832,3.4457,3.4269,3.4505,3.4785,3.5176,3.5527,3.5898,3.5859,3.5996,3.5996,3.6016,3.6016,3.6035,3.6035,3.6035,3.6035,3.6035,3.6055,3.5977,3.5898,3.5797,3.585,3.5584,3.5332,3.5253,5.2924,5.339,5.2307,5.1757,5.1861,5.241,5.2617,5.2617,5.3157,5.3485,5.3674,5.3713,5.3503,5.3264,5.3174,5.3174,5.3204,5.3174,5.3174,5.3174,5.3174,5.3174,5.3204,5.3204,5.3316,5.3307,5.3188,5.2753,5.2417,5.2088,5.215,5.218,5.2107,5.2426,5.2816,5.2512,5.2615,5.3095,5.2363,5.1846,5.2128,4.9435,4.7886,4.7298,4.6636,4.6301,4.6326,4.6326,4.6301,4.6301,4.6301,4.6326,4.615,4.5849,4.5347,4.5045,4.4543,4.4217,4.4141,4.374,4.3438,4.3388,4.3187,4.2986,4.2986,4.2986,4.2986,4.2986,4.2986,4.2986,4.2986,4.2425,4.211,4.1997,4.1541,4.1311,4.1196,4.1196,4.1196,4.1196,4.1196,4.1196,4.1196,4.1196,4.1196,4.0199,3.8766,3.8043,3.7593,3.5976,3.4297,3.459,3.4824,3.5176,3.5527,3.5781,3.6035,3.6035,3.6035,3.6035,3.6035,3.6035,3.6035,3.6035,3.6035,3.5957,3.6133,3.6211,3.5995,3.5973,3.6004,3.5849,3.5538,3.542,3.5499,5.4304,5.5078,5.4171,5.3756,5.3964,5.4743,5.4611,5.4068,5.4684,5.485,5.4461,5.4401,5.4102,5.3713,5.3623,5.3623,5.3563,5.3653,5.3683,5.3713,5.3713,5.3623,5.3495,5.3525,5.3724,5.3781,5.371,5.3402,5.2965,5.2471,5.2442,5.263,5.2775,5.2978,5.3279,5.3308,5.353,5.3452,5.3473,5.2715,5.1127,4.9522,4.8326,4.7977,4.6968,4.6326,4.6326,4.6326,4.6326,4.6326,4.6326,4.6326,4.6326,4.6301,4.61,4.5648,4.5121,4.4869,4.4669,4.4267,4.3966,4.394,4.3438,4.3237,4.3137,4.3137,4.2986,4.2986,4.2986,4.2986,4.2986,4.2425,4.211,4.1997,4.1655,4.1196,4.1196,4.1196,4.1196,4.1196,4.1196,4.1196,4.122,4.1196,4.1196,4.0597,3.914,3.8166,3.7508,3.5881,3.4707,3.5039,3.5312,3.5586,3.5801,3.5879,3.6035,3.6035,3.6035,3.6035,3.6035,3.6035,3.6074,3.6152,3.6093,3.6034,3.6191,3.6288,3.6147,3.594,3.6161,3.5961,3.5624,3.5702,3.5815,5.5078,5.5179,5.5078,5.4976,5.4976,5.5078,5.5179,5.4976,5.5078,5.5149,5.4999,5.5029,5.497,5.482,5.482,5.488,5.488,5.479,5.473,5.467,5.473,5.463,5.4577,5.4565,5.4256,5.417,5.3921,5.3876,5.3509,5.3377,5.3419,5.3297,5.3297,5.3442,5.3471,5.35,5.353,5.3511,5.3453,5.2865,5.1677,5.0405,4.9221,4.8326,4.7205,4.6421,4.6421,4.6421,4.6326,4.6326,4.6326,4.6326,4.6326,4.6326,4.6301,4.6075,4.5748,4.5372,4.5296,4.4869,4.4518,4.4443,4.4016,4.3929,4.3702,4.335,4.2986,4.2986,4.2986,4.2986,4.2874,4.2425,4.2199,4.1859,4.1516,4.1287,4.1196,4.1196,4.1196,4.1196,4.1196,4.1244,4.1268,4.122,4.1081,4.0387,3.9584,3.8487,3.7502,3.603,3.5117,3.5449,3.5586,3.584,3.5918,3.6016,3.6035,3.6035,3.6035,3.6035,3.6055,3.6113,3.6289,3.6387,3.6189,3.6224,3.6379,3.6335,3.6093,3.6058,3.6149,3.6029,3.5705,3.5815,3.6036,5.5209,5.5209,5.5209,5.5209,5.5209,5.5209,5.5209,5.5209,5.5209,5.5209,5.5209,5.5209,5.5209,5.5209,5.5209,5.5179,5.5209,5.5209,5.5209,5.5078,5.5078,5.4905,5.4743,5.4568,5.4333,5.4126,5.3993,5.3785,5.371,5.371,5.3605,5.35,5.35,5.35,5.35,5.35,5.35,5.353,5.35,5.329,5.2594,5.1593,5.0712,5.0014,4.8236,4.7468,4.7112,4.6541,4.6301,4.6326,4.6326,4.6326,4.6326,4.6326,4.6301,4.6276,4.61,4.5949,4.5899,4.5397,4.5171,4.497,4.4618,4.4166,4.384,4.3363,4.2986,4.2986,4.2986,4.2986,4.2737,4.2312,4.2086,4.1745,4.1516,4.1287,4.1196,4.1196,4.1196,4.1196,4.1244,4.1389,4.1509,4.1461,4.116,4.0267,3.9273,3.8211,3.7445,3.6395,3.5913,3.5859,3.5918,3.5976,3.5996,3.6035,3.6035,3.6035,3.6035,3.6055,3.6113,3.6211,3.6445,3.6541,3.6557,3.647,3.6417,3.639,3.6323,3.6281,3.6271,3.6072,3.587,3.5944,3.6146,5.5209,5.5209,5.5209,5.5209,5.5209,5.5209,5.5209,5.5209,5.5209,5.5209,5.5209,5.5209,5.5209,5.5209,5.5209,5.5209,5.5209,5.5209,5.5179,5.5078,5.4875,5.4671,5.4466,5.423,5.4097,5.3815,5.3815,5.371,5.3605,5.35,5.35,5.35,5.35,5.35,5.35,5.353,5.3588,5.3878,5.4052,5.4004,5.3761,5.2812,5.2126,5.1068,4.9764,4.8342,4.7766,4.7103,4.6552,4.6326,4.6326,4.6326,4.6326,4.6326,4.6326,4.6301,4.6225,4.625,4.615,4.5899,4.5723,4.5547,4.5313,4.4759,4.384,4.3363,4.3037,4.3011,4.2986,4.2874,4.2513,4.2312,4.1972,4.1745,4.1402,4.1287,4.122,4.1268,4.1413,4.1533,4.1629,4.1798,4.1846,4.1774,4.1259,4.0255,3.9187,3.8016,3.715,3.6455,3.6169,3.6016,3.6016,3.6035,3.6035,3.6035,3.6035,3.6055,3.6055,3.6152,3.6269,3.6465,3.6719,3.6813,3.6784,3.6828,3.6846,3.6777,3.6544,3.6402,3.6257,3.6368,3.6312,3.6201,3.6219,5.5209,5.5209,5.5209,5.5209,5.5209,5.5209,5.5209,5.5209,5.5209,5.5209,5.5209,5.5209,5.5209,5.5209,5.5179,5.5179,5.5179,5.5179,5.4976,5.4875,5.4803,5.4466,5.4126,5.3919,5.3815,5.3605,5.3605,5.3605,5.35,5.35,5.35,5.35,5.35,5.35,5.3617,5.3791,5.4052,5.4429,5.4778,5.5039,5.4742,5.3945,5.2797,5.168,5.0419,4.9023,4.7349,4.7126,4.6828,4.6426,4.6351,4.6326,4.6326,4.6326,4.6326,4.6326,4.6326,4.6326,4.625,4.6225,4.625,4.627,4.6036,4.538,4.4242,4.3462,4.3137,4.3137,4.3137,4.2812,4.2562,4.2199,4.1859,4.1776,4.1644,4.1601,4.1509,4.1461,4.1605,4.1822,4.2038,4.2372,4.2471,4.2447,4.1325,4.0173,3.8676,3.7473,3.68,3.6093,3.6112,3.6016,3.6035,3.6035,3.6035,3.6035,3.6035,3.6094,3.6133,3.6328,3.6523,3.6777,3.7129,3.7139,3.7163,3.7219,3.7029,3.6788,3.6495,3.6239,3.6201,3.6201,3.6349,3.6201,3.6237,5.5209,5.5209,5.5209,5.5209,5.5209,5.5209,5.5209,5.5209,5.5209,5.5209,5.5179,5.5209,5.5209,5.5179,5.5179,5.5078,5.5006,5.5006,5.4773,5.4539,5.4333,5.4126,5.3919,5.371,5.3605,5.35,5.35,5.35,5.35,5.3559,5.353,5.35,5.3588,5.382,5.4023,5.4429,5.4807,5.4981,5.5271,5.5416,5.5169,5.4258,5.3331,5.2761,5.0658,4.9646,4.8781,4.7648,4.7151,4.6778,4.6502,4.6376,4.6326,4.6326,4.6326,4.6326,4.6326,4.6326,4.6326,4.6326,4.6326,4.625,4.6213,4.5876,4.4744,4.4327,4.3851,4.3576,4.3375,4.3099,4.2386,4.1997,4.1704,4.174,4.1818,4.1938,4.187,4.1729,4.2014,4.2351,4.271,4.3022,4.312,4.3192,4.1684,4.024,3.8463,3.7104,3.6459,3.6035,3.6035,3.6035,3.6035,3.6035,3.6035,3.6035,3.6035,3.6133,3.625,3.6523,3.6836,3.7344,3.7533,3.7537,3.7421,3.7175,3.6976,3.6497,3.6239,3.6182,3.6201,3.6201,3.6201,3.6237,3.6384,5.5209,5.5078,5.5078,5.5078,5.5179,5.5209,5.5209,5.5179,5.5078,5.5078,5.5078,5.5006,5.5006,5.5108,5.4976,5.4875,5.4671,5.4641,5.4436,5.42,5.3993,5.3919,5.371,5.3605,5.35,5.35,5.35,5.35,5.353,5.3704,5.3849,5.3907,5.3994,5.4371,5.4517,5.53,5.5707,5.5736,5.591,5.5968,5.5776,5.5221,5.4403,5.4089,5.2579,5.1016,5.0106,4.8968,4.7973,4.7252,4.6778,4.6502,4.6376,4.6326,4.6326,4.6326,4.6326,4.6326,4.6326,4.6326,4.6326,4.6276,4.627,4.5943,4.559,4.5263,4.486,4.4141,4.3811,4.3342,4.2553,4.2494,4.222,4.23,4.2324,4.2303,4.2351,4.228,4.2639,4.2904,4.3192,4.3216,4.3041,4.2862,4.1548,3.9796,3.7909,3.6824,3.6364,3.6035,3.6035,3.6035,3.6035,3.6035,3.6035,3.6035,3.6094,3.6367,3.6523,3.6816,3.7187,3.7695,3.7922,3.7808,3.7524,3.7217,3.6793,3.6423,3.6294,3.6201,3.6219,3.6256,3.6476,3.6549,3.6714,5.5078,5.4803,5.4803,5.5006,5.5078,5.5179,5.5179,5.5078,5.4905,5.4803,5.4803,5.473,5.473,5.47,5.4539,5.4406,5.4333,5.4304,5.42,5.3919,5.3815,5.371,5.3605,5.35,5.35,5.35,5.353,5.353,5.3617,5.4081,5.4342,5.4662,5.4923,5.5097,5.472,5.5794,5.6345,5.6461,5.6897,5.7013,5.6901,5.6618,5.5766,5.5046,5.4082,5.2406,5.0926,4.9955,4.8804,4.7654,4.7154,4.6828,4.6502,4.6351,4.6326,4.6326,4.6326,4.6326,4.6326,4.6326,4.6326,4.6326,4.632,4.605,4.5817,4.5784,4.5658,4.4602,4.4269,4.3919,4.3634,4.3256,4.2853,4.2831,4.2735,4.2856,4.2832,4.2928,4.3313,4.3457,4.3383,4.3381,4.2997,4.2351,4.1136,3.9475,3.7421,3.6423,3.6152,3.6035,3.6035,3.6035,3.6035,3.6035,3.6035,3.6074,3.6191,3.6484,3.6836,3.7187,3.7358,3.7604,3.7788,3.7728,3.7511,3.696,3.6664,3.6497,3.6423,3.6329,3.6311,3.6384,3.6622,3.6879,3.7044,5.4905,5.4803,5.4539,5.4539,5.4611,5.4641,5.4641,5.4641,5.4598,5.4598,5.4568,5.4525,5.4525,5.4436,5.4333,5.42,5.3993,5.3993,5.3919,5.371,5.371,5.3605,5.35,5.35,5.353,5.353,5.3559,5.3849,5.4197,5.4575,5.4836,5.5155,5.5736,5.5939,5.6026,5.6607,5.7013,5.7042,5.7216,5.7303,5.7191,5.6594,5.5876,5.5383,5.4057,5.2593,5.1276,5.0447,4.9288,4.8158,4.7682,4.7079,4.6753,4.6602,4.6326,4.6326,4.6326,4.6326,4.6326,4.6326,4.6326,4.6326,4.6301,4.6225,4.605,4.6194,4.5748,4.5135,4.4606,4.4245,4.3427,4.3117,4.2927,4.3168,4.3313,4.3553,4.3697,4.3695,4.3962,4.4034,4.3959,4.3911,4.3731,4.2673,4.1248,3.967,3.7863,3.6539,3.6016,3.6016,3.6035,3.6035,3.6035,3.6035,3.6055,3.6211,3.6445,3.6758,3.7187,3.7494,3.7662,3.7731,3.7448,3.7364,3.7089,3.6664,3.6534,3.6423,3.6421,3.6476,3.6586,3.6677,3.6897,3.7173,3.7411,5.4568,5.4466,5.423,5.4097,5.4097,5.42,5.4304,5.423,5.4451,5.4422,5.423,5.4185,5.4185,5.4126,5.3993,5.3993,5.3815,5.3815,5.371,5.35,5.35,5.35,5.35,5.3559,5.3704,5.3762,5.3936,5.4197,5.4836,5.5068,5.5562,5.6113,5.649,5.6636,5.681,5.7071,5.7274,5.7245,5.7303,5.7303,5.7078,5.6594,5.5992,5.515,5.3937,5.2551,5.1511,5.0455,4.9444,4.8838,4.8058,4.7355,4.7104,4.6677,4.6351,4.6326,4.6326,4.6326,4.6326,4.6326,4.6326,4.6326,4.6326,4.6326,4.6326,4.6276,4.6005,4.5395,4.5031,4.4473,4.3843,4.3482,4.3361,4.3746,4.3818,4.4058,4.4106,4.4202,4.4227,4.4299,4.4323,4.4347,4.4099,4.2925,4.1633,3.9932,3.8242,3.7193,3.6152,3.6016,3.6035,3.6035,3.6094,3.6152,3.6269,3.6465,3.6719,3.7051,3.7358,3.7825,3.7769,3.7671,3.7326,3.696,3.6664,3.6516,3.6404,3.6347,3.6567,3.6842,3.7118,3.7191,3.7228,3.7466,3.7759,5.4097,5.3919,5.3919,5.371,5.3605,5.4023,5.4097,5.3919,5.4169,5.414,5.3919,5.3605,5.371,5.3815,5.3605,5.35,5.35,5.35,5.35,5.3559,5.3646,5.3646,5.3704,5.3791,5.4139,5.4429,5.4604,5.4836,5.5445,5.5968,5.6578,5.7013,5.7071,5.7158,5.7187,5.7245,5.7303,5.7303,5.7303,5.7303,5.7191,5.7191,5.648,5.5761,5.5032,5.3577,5.2455,5.1288,5.0304,4.9469,4.8485,4.7931,4.723,4.6627,4.6426,4.6326,4.6326,4.6326,4.6326,4.6326,4.6326,4.6326,4.6326,4.6326,4.6326,4.6301,4.5985,4.5718,4.5377,4.5086,4.4695,4.4401,4.413,4.4227,4.4227,4.4299,4.4299,4.4323,4.4323,4.4347,4.4347,4.4223,4.3701,4.2799,4.1723,3.9801,3.8242,3.7327,3.6403,3.6016,3.6035,3.6055,3.6152,3.6309,3.6484,3.6758,3.7109,3.7461,3.7754,3.802,3.7817,3.7658,3.7236,3.6812,3.6497,3.6256,3.6402,3.6604,3.6806,3.7118,3.7503,3.7594,3.7613,3.7851,3.8144,5.3993,5.3919,5.371,5.35,5.35,5.371,5.371,5.3635,5.3664,5.3635,5.3605,5.35,5.3605,5.3605,5.35,5.35,5.35,5.35,5.35,5.3675,5.4023,5.4168,5.4342,5.4575,5.4923,5.5068,5.5242,5.5474,5.6113,5.6752,5.7013,5.7245,5.7303,5.7303,5.7303,5.7303,5.7303,5.7303,5.7303,5.7303,5.7303,5.7303,5.6822,5.6337,5.55,5.4176,5.2876,5.1642,5.061,4.9647,4.8787,4.8207,4.7732,4.6878,4.6326,4.6326,4.6326,4.6326,4.6326,4.6326,4.6326,4.6326,4.6326,4.6326,4.6326,4.6301,4.618,4.5817,4.5453,4.5208,4.484,4.4594,4.4347,4.4347,4.4347,4.4347,4.4347,4.4347,4.4347,4.4371,4.4371,4.3969,4.3443,4.3008,4.1904,3.9778,3.8109,3.7348,3.6539,3.6152,3.5977,3.5996,3.6309,3.6504,3.6855,3.7168,3.7519,3.7871,3.8125,3.803,3.7728,3.7383,3.696,3.6683,3.6423,3.6457,3.6659,3.6879,3.7154,3.7521,3.7869,3.7943,3.8053,3.8079,3.8207,5.371,5.371,5.3605,5.35,5.35,5.35,5.35,5.35,5.35,5.35,5.35,5.35,5.35,5.35,5.35,5.353,5.353,5.3849,5.3965,5.4139,5.4575,5.4778,5.5039,5.5242,5.5503,5.5678,5.5881,5.6142,5.6694,5.7042,5.7303,5.7303,5.7303,5.7303,5.7303,5.7303,5.7303,5.7303,5.7303,5.7303,5.7303,5.7191,5.6822,5.5992,5.5032,5.3964,5.2262,5.1142,5.0436,4.9746,4.9115,4.8584,4.7957,4.6928,4.6326,4.6326,4.6326,4.6326,4.6326,4.6326,4.6326,4.6326,4.6326,4.6326,4.6326,4.6301,4.6059,4.5817,4.5453,4.5208,4.484,4.447,4.447,4.4347,4.4347,4.4347,4.4347,4.4347,4.4371,4.4395,4.4094,4.3734,4.3322,4.3008,4.1978,3.9683,3.8244,3.751,3.6773,3.6152,3.6035,3.6014,3.6366,3.6758,3.7148,3.77,3.7851,3.8125,3.832,3.8205,3.7696,3.7274,3.696,3.6738,3.6384,3.6604,3.6879,3.7246,3.7558,3.7906,3.8163,3.8273,3.8171,3.8122,3.8073,5.35,5.353,5.35,5.35,5.35,5.35,5.35,5.35,5.35,5.35,5.35,5.35,5.35,5.353,5.3646,5.3704,5.3936,5.4284,5.4575,5.4604,5.5213,5.5503,5.5533,5.5591,5.6113,5.6374,5.652,5.6694,5.71,5.7303,5.7303,5.7303,5.7303,5.7303,5.7303,5.7303,5.7303,5.7303,5.7303,5.7303,5.7303,5.6964,5.6222,5.4442,5.3604,5.2754,5.0816,4.9822,4.9694,4.962,4.9495,4.9011,4.7727,4.6903,4.6426,4.6326,4.6326,4.6326,4.6326,4.6326,4.6326,4.6326,4.6326,4.6326,4.6326,4.6326,4.6059,4.5939,4.5574,4.5331,4.4963,4.4594,4.4347,4.4347,4.4347,4.4347,4.4347,4.4491,4.4732,4.4804,4.4918,4.438,4.3461,4.3013,4.1898,3.965,3.8274,3.7726,3.6913,3.6113,3.6152,3.6089,3.6755,3.7207,3.77,3.8073,3.8144,3.8379,3.8516,3.8136,3.7549,3.7274,3.6979,3.6701,3.6586,3.6824,3.7099,3.7484,3.7833,3.8108,3.8365,3.8548,3.8481,3.8145,3.7986,5.35,5.35,5.35,5.35,5.35,5.35,5.353,5.35,5.35,5.3559,5.353,5.353,5.3588,5.3704,5.411,5.4255,5.4429,5.4894,5.5126,5.5387,5.5852,5.6142,5.6258,5.649,5.6839,5.7013,5.7129,5.71,5.7245,5.7303,5.7303,5.7303,5.7303,5.7303,5.7303,5.7303,5.7303,5.7078,5.7078,5.6964,5.6936,5.6936,5.6451,5.515,5.4442,5.312,5.1642,5.0916,5.0308,4.9849,4.9696,4.848,4.6753,4.6451,4.6326,4.6326,4.6326,4.6326,4.6326,4.6326,4.6326,4.6326,4.6326,4.6326,4.6326,4.6326,4.618,4.5939,4.5696,4.5453,4.5086,4.4594,4.4395,4.4395,4.4395,4.4395,4.4419,4.4756,4.5092,4.5357,4.5597,4.4853,4.3901,4.2849,4.1463,4.0141,3.8758,3.7852,3.6992,3.6328,3.6424,3.6576,3.7241,3.7734,3.8171,3.8347,3.8359,3.8312,3.8409,3.799,3.7421,3.7201,3.698,3.6904,3.6824,3.7118,3.7448,3.7759,3.8089,3.8328,3.8456,3.8603,3.8322,3.7986,3.7845,5.4342,5.4342,5.4371,5.4371,5.4342,5.4371,5.4371,5.4342,5.4371,5.4342,5.4284,5.411,5.4081,5.4284,5.4778,5.4923,5.5039,5.5562,5.5794,5.6055,5.6403,5.6723,5.6984,5.7129,5.7158,5.7303,5.7303,5.7303,5.7303,5.7303,5.7303,5.7303,5.7303,5.7303,5.7303,5.7303,5.7049,5.648,5.648,5.6222,5.5992,5.5992,5.5267,5.4414,5.3335,5.2359,5.1518,5.0664,5.0308,4.957,4.9141,4.8078,4.6728,4.6351,4.6326,4.6326,4.6326,4.6326,4.6326,4.6326,4.6326,4.6326,4.6326,4.6326,4.6326,4.6326,4.6326,4.6059,4.5574,4.5331,4.5086,4.4717,4.4712,4.4708,4.4804,4.4852,4.4918,4.523,4.5597,4.5917,4.5758,4.5124,4.4193,4.3493,4.2082,3.982,3.8523,3.8118,3.7171,3.6699,3.6774,3.6867,3.7533,3.8066,3.8301,3.8563,3.8496,3.8428,3.8302,3.7734,3.7312,3.7017,3.6867,3.6994,3.7154,3.7539,3.7851,3.8108,3.8291,3.8511,3.8585,3.8481,3.8163,3.7845,3.7525,5.5358,5.5416,5.5387,5.5387,5.5387,5.5387,5.5358,5.5358,5.5387,5.5445,5.5445,5.4981,5.5097,5.5271,5.5533,5.5533,5.5736,5.6229,5.6461,5.6636,5.7013,5.71,5.7187,5.7303,5.7303,5.7303,5.7303,5.7303,5.7303,5.7303,5.7303,5.7303,5.7303,5.7303,5.7303,5.7191,5.6822,5.5992,5.5412,5.4679,5.4442,5.4323,5.3577,5.2482,5.1393,5.0764,5.0078,4.959,4.959,4.9188,4.8687,4.7481,4.6728,4.6326,4.6326,4.6326,4.6326,4.6326,4.6326,4.6326,4.6326,4.6326,4.6326,4.6301,4.6326,4.618,4.618,4.5939,4.5574,4.5208,4.4963,4.4863,4.4905,4.502,4.5014,4.5206,4.5366,4.5581,4.5958,4.6384,4.5773,4.5137,4.4701,4.4025,4.2525,4.0259,3.8862,3.8219,3.7768,3.7468,3.728,3.7313,3.7767,3.8262,3.8516,3.8555,3.8574,3.8428,3.8155,3.7587,3.7072,3.698,3.6957,3.7154,3.7484,3.7851,3.8126,3.8365,3.8548,3.864,3.864,3.8481,3.8163,3.7685,3.7365,5.5416,5.5416,5.5416,5.5416,5.5445,5.5445,5.5416,5.5416,5.5445,5.5678,5.6084,5.6113,5.591,5.5474,5.6026,5.62,5.6287,5.681,5.7042,5.7216,5.7245,5.7274,5.7303,5.7303,5.7303,5.7303,5.7303,5.7303,5.7303,5.7303,5.7303,5.7303,5.7303,5.7303,5.7303,5.7049,5.648,5.55,5.4651,5.4057,5.2754,5.2631,5.2876,5.2112,5.1518,5.0664,4.995,4.959,4.959,4.9264,4.8535,4.7431,4.6728,4.6326,4.6326,4.6326,4.6326,4.6326,4.6326,4.6326,4.6326,4.6326,4.6326,4.6326,4.618,4.6059,4.5939,4.5817,4.5453,4.5086,4.4913,4.4957,4.4972,4.5062,4.523,4.5334,4.5538,4.5491,4.5725,4.5902,4.5725,4.5548,4.5524,4.4807,4.4086,4.206,4.0694,3.992,3.8505,3.8145,3.7786,3.7903,3.8039,3.8359,3.8574,3.8574,3.8574,3.8282,3.8047,3.7592,3.7297,3.6865,3.7007,3.7448,3.7759,3.8089,3.8365,3.8548,3.8585,3.864,3.864,3.8481,3.8004,3.7525,3.7045]},{"header":{"parameterUnit":"m.s-1","parameterCategory":1,"la1":31.0,"la2":29.5877,"lo1":-88.7671,"lo2":-86.6584,"dx":0.0162,"dy":0.0185,"nx":115,"ny":88,"refTime":"2023-02-06T18:00:00:Z","depth":0,"parameterNumber":3,"parameterNumberName":"V-component_of_WINDS"},"data":[0.0,0.0,0.0,0.0,0.0,0.0,0.0,0.0,0.0,0.0,0.0,0.0,0.0,0.0,0.0,0.0,0.0,0.0,0.0,0.0,0.0,0.0,0.0,0.0,0.0,0.0,0.0,0.0,0.0,0.0,0.0,0.0,0.0,0.0,0.0,0.0,0.0,0.0,0.0,0.0,0.0,0.0,0.0,0.0,0.0,0.0,0.0,0.0,0.0,0.0,0.0,0.0,0.0,0.0,0.0,0.0,0.0,0.0,0.0,0.0,0.0,0.0,0.0,0.0,0.0,0.0,0.0,0.0,0.0,0.0,0.0,0.0,0.0,0.0,0.0,0.0,0.0,0.0,0.0,0.0,0.0,0.0,0.0,0.0,0.0,0.0,0.0,0.0,0.0,0.0,0.0,0.0,0.0,0.0,0.0,0.0,0.0,0.0,0.0,0.0,0.0,0.0,0.0,0.0,0.0,0.0,0.0,0.0,0.0,0.0,0.0,0.0,0.0,0.0,0.0,0.0,0.0,0.0,0.0,0.0,0.0,0.0,0.0,0.0,0.0,0.0,0.0,0.0,0.0,0.0,0.0,0.0,0.0,0.0,0.0,0.0,0.0,0.0,0.0,0.0,0.0,0.0,0.0,0.0,0.0,0.0,0.0,0.0,0.0,0.0,0.0,0.0,0.0,0.0,0.0,0.0,0.0,0.0,0.0,0.0,0.0,0.0,0.0,0.0,0.0,0.0,0.0,0.0,0.0,0.0,0.0,0.0,0.0,0.0,0.0,0.0,0.0,0.0,0.0,0.0,0.0,0.0,0.0,0.0,0.0,0.0,0.0,0.0,0.0,0.0,0.0,0.0,0.0,0.0,0.0,0.0,0.0,0.0,0.0,0.0,0.0,0.0,0.0,0.0,0.0,0.0,0.0,0.0,0.0,0.0,0.0,0.0,0.0,0.0,0.0,0.0,0.0,0.0,0.0,0.0,0.0,0.0,0.0,0.0,0.0,0.0,0.0,0.0,0.0,0.0,0.0,0.0,0.0,0.0,0.0,0.0,0.0,0.0,0.0,0.0,0.0,0.0,0.0,0.0,0.0,0.0,0.0,0.0,0.0,0.0,0.0,0.0,0.0,0.0,0.0,0.0,0.0,0.0,0.0,0.0,0.0,0.0,0.0,0.0,0.0,0.0,0.0,0.0,0.0,0.0,0.0,0.0,0.0,0.0,0.0,0.0,0.0,0.0,0.0,0.0,0.0,0.0,0.0,0.0,0.0,0.0,0.0,0.0,0.0,0.0,0.0,0.0,0.0,0.0,0.0,0.0,0.0,0.0,0.0,0.0,0.0,0.0,0.0,0.0,0.0,0.0,0.0,0.0,0.0,0.0,0.0,0.0,0.0,0.0,0.0,0.0,0.0,0.0,0.0,0.0,0.0,0.0,0.0,0.0,0.0,0.0,0.0,0.0,0.0,0.0,0.0,0.0,0.0,0.0,0.0,0.0,0.0,0.0,0.0,0.0,0.0,0.0,0.0,0.0,0.0,0.0,0.0,0.0,0.0,0.0,0.0,0.0,0.0,0.0,0.0,0.0,0.0,0.0,0.0,0.0,0.0,0.0,0.0,0.0,0.0,0.0,0.0,0.0,0.0,0.0,0.0,0.0,0.0,0.0,0.0,0.0,0.0,0.0,0.0,0.0,0.0,0.0,0.0,0.0,0.0,0.0,0.0,0.0,0.0,0.0,0.0,0.0,0.0,0.0,0.0,0.0,0.0,0.0,0.0,0.0,0.0,0.0,0.0,0.0,0.0,0.0,0.0,0.0,0.0,0.0,0.0,0.0,0.0,0.0,0.0,0.0,0.0,0.0,0.0,0.0,0.0,0.0,0.0,0.0,0.0,0.0,0.0,0.0,0.0,0.0,0.0,0.0,0.0,0.0,0.0,0.0,0.0,0.0,0.0,0.0,0.0,0.0,0.0,0.0,0.0,0.0,0.0,0.0,0.0,0.0,0.0,0.0,0.0,0.0,0.0,0.0,0.0,0.0,0.0,0.0,0.0,0.0,0.0,0.0,0.0,0.0,0.0,0.0,0.0,0.0,0.0,0.0,0.0,0.0,0.0,0.0,0.0,0.0,0.0,0.0,0.0,0.0,0.0,0.0,0.0,0.0,0.0,0.0,0.0,0.0,0.0,0.0,0.0,0.0,0.0,0.0,0.0,0.0,0.0,0.0,0.0,0.0,0.0,0.0,0.0,0.0,0.0,0.0,0.0,0.0,0.0,0.0,0.0,0.0,0.0,0.0,0.0,0.0,0.0,0.0,0.0,0.0,0.0,0.0,0.0,0.0,0.0,0.0,0.0,0.0,0.0,0.0,0.0,0.0,0.0,0.0,0.0,0.0,0.0,0.0,0.0,0.0,0.0,0.0,0.0,0.0,0.0,0.0,0.0,0.0,0.0,0.0,0.0,0.0,0.0,0.0,0.0,0.0,0.0,0.0,0.0,0.0,0.0,0.0,0.0,0.0,0.0,0.0,0.0,0.0,0.0,0.0,0.0,0.0,0.0,0.0,0.0,0.0,0.0,0.0,0.0,0.0,0.0,0.0,0.0,0.0,0.0,0.0,0.0,0.0,0.0,0.0,0.0,0.0,0.0,0.0,0.0,0.0,0.0,0.0,0.0,0.0,0.0,0.0,0.0,0.0,0.0,0.0,0.0,0.0,0.0,0.0,0.0,0.0,0.0,0.0,0.0,0.0,0.0,0.0,0.0,0.0,0.0,0.0,0.0,0.0,0.0,0.0,0.0,0.0,0.0,0.0,0.0,0.0,0.0,0.0,0.0,0.0,0.0,0.0,0.0,0.0,0.0,0.0,0.0,0.0,0.0,0.0,0.0,0.0,0.0,0.0,0.0,0.0,0.0,0.0,0.0,0.0,0.0,0.0,0.0,0.0,0.0,0.0,0.0,0.0,0.0,0.0,0.0,0.0,0.0,0.0,0.0,0.0,0.0,0.0,0.0,0.0,0.0,0.0,0.0,0.0,0.0,0.0,0.0,0.0,0.0,0.0,0.0,0.0,0.0,0.0,0.0,0.0,0.0,0.0,0.0,0.0,0.0,0.0,0.0,0.0,0.0,0.0,0.0,0.0,0.0,0.0,0.0,0.0,0.0,0.0,0.0,0.0,0.0,0.0,0.0,0.0,0.0,0.0,0.0,0.0,0.0,0.0,0.0,0.0,0.0,0.0,0.0,0.0,0.0,0.0,0.0,0.0,0.0,0.0,0.0,0.0,0.0,0.0,0.0,0.0,0.0,0.0,0.0,0.0,0.0,0.0,0.0,0.0,0.0,0.0,0.0,0.0,0.0,0.0,0.0,0.0,0.0,0.0,0.0,0.0,0.0,0.0,0.0,0.0,0.0,0.0,0.0,0.0,0.0,0.0,0.0,0.0,0.0,0.0,0.0,0.0,0.0,0.0,0.0,0.0,0.0,0.0,0.0,0.0,0.0,0.0,0.0,0.0,0.0,0.0,0.0,0.0,0.0,0.0,0.0,0.0,0.0,0.0,0.0,0.0,0.0,0.0,0.0,0.0,0.0,0.0,0.0,0.0,0.0,0.0,0.0,0.0,0.0,0.0,0.0,0.0,0.0,0.0,0.0,0.0,0.0,0.0,0.0,0.0,0.0,0.0,0.0,0.0,0.0,0.0,0.0,0.0,0.0,0.0,0.0,0.0,0.0,0.0,0.0,0.0,0.0,0.0,0.0,0.0,0.0,0.0,0.0,0.0,0.0,0.0,0.0,0.0,0.0,0.0,0.0,0.0,0.0,0.0,0.0,0.0,0.0,0.0,0.0,0.0,0.0,0.0,0.0,0.0,0.0,0.0,0.0,0.0,0.0,0.0,0.0,0.0,0.0,0.0,0.0,0.0,0.0,0.0,0.0,0.0,0.0,0.0,0.0,0.0,0.0,0.0,0.0,0.0,0.0,0.0,0.0,0.0,0.0,0.0,0.0,0.0,0.0,0.0,0.0,0.0,0.0,0.0,0.0,0.0,0.0,0.0,0.0,0.0,0.0,0.0,0.0,0.0,0.0,0.0,0.0,0.0,0.0,0.0,0.0,0.0,0.0,0.0,0.0,0.0,0.0,0.0,0.0,0.0,0.0,0.0,0.0,0.0,0.0,0.0,0.0,0.0,0.0,0.0,0.0,0.0,0.0,0.0,0.0,0.0,0.0,0.0,0.0,0.0,0.0,0.0,0.0,0.0,0.0,0.0,0.0,0.0,0.0,0.0,0.0,0.0,-3.7115,0.0,0.0,0.0,0.0,0.0,0.0,0.0,0.0,0.0,0.0,0.0,0.0,0.0,0.0,0.0,0.0,0.0,0.0,0.0,0.0,0.0,0.0,0.0,0.0,0.0,0.0,0.0,0.0,0.0,0.0,0.0,0.0,0.0,0.0,0.0,0.0,0.0,0.0,0.0,0.0,0.0,0.0,0.0,0.0,0.0,0.0,0.0,0.0,0.0,0.0,0.0,0.0,0.0,0.0,0.0,0.0,0.0,0.0,0.0,0.0,0.0,0.0,0.0,0.0,0.0,0.0,0.0,0.0,0.0,0.0,0.0,0.0,0.0,0.0,0.0,0.0,0.0,0.0,0.0,0.0,0.0,0.0,0.0,0.0,0.0,0.0,0.0,0.0,0.0,0.0,0.0,0.0,0.0,0.0,0.0,0.0,0.0,0.0,0.0,0.0,0.0,0.0,0.0,0.0,0.0,0.0,0.0,0.0,0.0,0.0,-3.6662,-3.7235,-3.6133,-3.591,-3.6845,0.0,0.0,0.0,0.0,0.0,0.0,0.0,0.0,0.0,0.0,0.0,0.0,0.0,0.0,0.0,0.0,0.0,0.0,0.0,0.0,0.0,0.0,0.0,0.0,0.0,0.0,0.0,0.0,0.0,0.0,0.0,0.0,0.0,0.0,0.0,0.0,0.0,0.0,0.0,0.0,0.0,0.0,0.0,0.0,0.0,0.0,0.0,0.0,0.0,0.0,0.0,0.0,0.0,0.0,0.0,0.0,0.0,0.0,0.0,0.0,0.0,0.0,0.0,0.0,0.0,0.0,0.0,0.0,0.0,0.0,0.0,0.0,0.0,0.0,0.0,0.0,0.0,0.0,0.0,0.0,0.0,0.0,0.0,0.0,0.0,0.0,0.0,0.0,0.0,0.0,0.0,0.0,0.0,0.0,0.0,0.0,0.0,0.0,0.0,0.0,0.0,0.0,0.0,0.0,0.0,0.0,0.0,0.0,0.0,0.0,0.0,0.0,-3.5782,-3.5846,-3.66,0.0,0.0,0.0,0.0,0.0,0.0,0.0,0.0,0.0,0.0,0.0,0.0,0.0,0.0,0.0,0.0,0.0,0.0,0.0,0.0,0.0,0.0,0.0,0.0,0.0,0.0,0.0,0.0,0.0,0.0,0.0,0.0,0.0,0.0,0.0,0.0,0.0,0.0,0.0,0.0,0.0,0.0,0.0,0.0,0.0,0.0,0.0,0.0,0.0,0.0,0.0,0.0,0.0,0.0,0.0,0.0,0.0,0.0,0.0,0.0,0.0,0.0,0.0,0.0,0.0,0.0,0.0,0.0,0.0,0.0,0.0,0.0,0.0,0.0,0.0,0.0,0.0,0.0,0.0,0.0,0.0,0.0,0.0,0.0,0.0,0.0,0.0,0.0,0.0,0.0,0.0,0.0,0.0,0.0,0.0,0.0,0.0,0.0,0.0,0.0,0.0,0.0,0.0,0.0,0.0,0.0,0.0,0.0,0.0,0.0,-3.5846,-3.6383,-3.5846,0.0,-3.7175,0.0,0.0,0.0,0.0,0.0,0.0,0.0,0.0,0.0,0.0,0.0,0.0,0.0,0.0,0.0,0.0,0.0,0.0,0.0,0.0,0.0,0.0,0.0,0.0,0.0,0.0,0.0,0.0,0.0,0.0,0.0,0.0,0.0,0.0,0.0,0.0,0.0,0.0,0.0,0.0,0.0,0.0,0.0,0.0,0.0,0.0,0.0,0.0,0.0,0.0,0.0,0.0,0.0,0.0,0.0,0.0,0.0,0.0,0.0,0.0,0.0,0.0,0.0,0.0,0.0,0.0,0.0,0.0,0.0,0.0,0.0,0.0,0.0,0.0,0.0,0.0,0.0,0.0,0.0,0.0,0.0,0.0,0.0,0.0,0.0,0.0,0.0,0.0,0.0,0.0,0.0,0.0,0.0,0.0,0.0,0.0,0.0,0.0,0.0,0.0,0.0,0.0,0.0,0.0,0.0,0.0,0.0,0.0,0.0,0.0,-3.5619,-3.5846,-3.5973,-3.607,0.0,0.0,0.0,0.0,0.0,0.0,0.0,0.0,0.0,0.0,0.0,0.0,0.0,0.0,0.0,0.0,0.0,0.0,0.0,0.0,0.0,0.0,0.0,0.0,0.0,0.0,0.0,0.0,0.0,0.0,0.0,0.0,0.0,0.0,0.0,0.0,0.0,0.0,0.0,0.0,0.0,0.0,0.0,0.0,0.0,0.0,0.0,0.0,0.0,0.0,0.0,0.0,0.0,0.0,0.0,0.0,0.0,0.0,0.0,0.0,0.0,0.0,0.0,0.0,0.0,0.0,0.0,0.0,0.0,0.0,0.0,0.0,0.0,0.0,0.0,0.0,0.0,0.0,0.0,0.0,0.0,0.0,0.0,0.0,0.0,0.0,0.0,0.0,0.0,0.0,0.0,0.0,0.0,0.0,0.0,0.0,0.0,0.0,0.0,0.0,0.0,0.0,0.0,0.0,0.0,0.0,0.0,0.0,0.0,0.0,-3.5489,-3.5489,-3.5489,-3.591,-3.6037,-3.5718,0.0,0.0,0.0,0.0,0.0,0.0,0.0,0.0,0.0,0.0,0.0,0.0,0.0,0.0,0.0,0.0,0.0,0.0,0.0,0.0,0.0,0.0,0.0,0.0,0.0,0.0,0.0,0.0,0.0,0.0,0.0,0.0,0.0,0.0,0.0,0.0,0.0,0.0,0.0,0.0,0.0,0.0,0.0,0.0,0.0,0.0,0.0,0.0,0.0,0.0,0.0,0.0,0.0,0.0,0.0,0.0,0.0,0.0,0.0,0.0,0.0,0.0,0.0,0.0,0.0,0.0,0.0,0.0,0.0,0.0,0.0,0.0,0.0,0.0,0.0,0.0,0.0,0.0,0.0,0.0,0.0,0.0,0.0,0.0,0.0,0.0,0.0,0.0,0.0,0.0,0.0,0.0,0.0,0.0,0.0,0.0,0.0,0.0,0.0,0.0,0.0,0.0,0.0,0.0,0.0,0.0,0.0,0.0,-3.5489,-3.5489,-3.5489,-3.5489,-3.5489,-3.5782,0.0,0.0,0.0,0.0,0.0,0.0,0.0,0.0,0.0,0.0,0.0,0.0,0.0,0.0,0.0,0.0,0.0,0.0,0.0,0.0,0.0,0.0,0.0,0.0,0.0,0.0,0.0,0.0,0.0,0.0,0.0,0.0,0.0,0.0,0.0,0.0,0.0,0.0,0.0,0.0,0.0,0.0,0.0,0.0,0.0,0.0,0.0,0.0,0.0,0.0,0.0,0.0,0.0,0.0,0.0,0.0,0.0,0.0,0.0,0.0,0.0,0.0,0.0,0.0,0.0,0.0,0.0,0.0,0.0,0.0,0.0,0.0,0.0,0.0,0.0,0.0,0.0,0.0,0.0,0.0,0.0,0.0,0.0,0.0,0.0,0.0,0.0,0.0,0.0,0.0,0.0,0.0,0.0,0.0,0.0,0.0,0.0,0.0,0.0,0.0,0.0,0.0,0.0,0.0,0.0,0.0,0.0,0.0,0.0,-3.5489,-3.5489,-3.5489,-3.5489,-3.5489,-3.5619,0.0,0.0,0.0,0.0,0.0,0.0,0.0,0.0,0.0,0.0,0.0,0.0,0.0,0.0,0.0,0.0,0.0,0.0,0.0,0.0,0.0,0.0,0.0,0.0,0.0,0.0,0.0,0.0,0.0,0.0,0.0,0.0,0.0,0.0,0.0,0.0,0.0,0.0,0.0,0.0,0.0,0.0,0.0,0.0,0.0,0.0,0.0,0.0,0.0,0.0,0.0,0.0,0.0,0.0,0.0,0.0,0.0,0.0,0.0,0.0,0.0,0.0,0.0,0.0,0.0,0.0,0.0,0.0,0.0,0.0,0.0,0.0,0.0,0.0,0.0,0.0,0.0,0.0,0.0,0.0,0.0,0.0,0.0,0.0,0.0,0.0,0.0,0.0,0.0,0.0,0.0,0.0,0.0,0.0,0.0,0.0,0.0,0.0,0.0,0.0,0.0,0.0,0.0,0.0,0.0,0.0,0.0,0.0,0.0,-3.5489,0.0,-3.5489,-3.5489,-3.5489,-3.5489,0.0,0.0,0.0,0.0,0.0,0.0,0.0,0.0,0.0,0.0,0.0,0.0,0.0,0.0,0.0,0.0,0.0,0.0,0.0,0.0,0.0,0.0,0.0,0.0,0.0,0.0,0.0,0.0,0.0,0.0,0.0,0.0,0.0,0.0,0.0,0.0,0.0,0.0,0.0,0.0,0.0,0.0,0.0,0.0,0.0,0.0,0.0,0.0,0.0,0.0,0.0,0.0,0.0,0.0,0.0,0.0,0.0,0.0,0.0,0.0,0.0,0.0,0.0,0.0,0.0,0.0,0.0,0.0,0.0,0.0,0.0,0.0,0.0,0.0,0.0,0.0,0.0,0.0,0.0,0.0,0.0,0.0,0.0,0.0,0.0,0.0,0.0,0.0,0.0,0.0,0.0,0.0,0.0,0.0,0.0,0.0,0.0,0.0,0.0,0.0,0.0,0.0,0.0,0.0,0.0,0.0,0.0,0.0,-3.5489,-3.5489,-3.5489,-3.5489,-3.5489,-3.5489,-3.5489,0.0,0.0,0.0,0.0,0.0,0.0,0.0,0.0,0.0,0.0,0.0,0.0,0.0,0.0,0.0,0.0,0.0,0.0,0.0,0.0,0.0,0.0,0.0,0.0,0.0,0.0,0.0,0.0,0.0,0.0,0.0,0.0,0.0,0.0,0.0,0.0,0.0,0.0,0.0,0.0,0.0,0.0,0.0,0.0,0.0,0.0,0.0,0.0,0.0,0.0,0.0,0.0,0.0,0.0,0.0,0.0,0.0,0.0,0.0,0.0,0.0,0.0,0.0,0.0,0.0,0.0,0.0,0.0,0.0,0.0,0.0,0.0,0.0,0.0,0.0,0.0,0.0,0.0,0.0,0.0,0.0,0.0,0.0,0.0,0.0,0.0,0.0,0.0,0.0,0.0,0.0,0.0,0.0,0.0,0.0,0.0,0.0,0.0,0.0,0.0,0.0,0.0,0.0,0.0,0.0,0.0,0.0,0.0,0.0,-3.5489,-3.5489,-3.5489,-3.5489,-3.5489,-3.5489,0.0,0.0,0.0,0.0,0.0,0.0,0.0,0.0,0.0,0.0,0.0,0.0,0.0,0.0,0.0,0.0,0.0,0.0,0.0,0.0,0.0,0.0,0.0,0.0,0.0,0.0,0.0,0.0,0.0,0.0,0.0,0.0,0.0,0.0,0.0,0.0,0.0,0.0,0.0,0.0,0.0,0.0,0.0,0.0,0.0,0.0,0.0,0.0,0.0,0.0,0.0,0.0,0.0,0.0,0.0,0.0,0.0,0.0,0.0,0.0,0.0,0.0,0.0,0.0,0.0,0.0,0.0,0.0,0.0,0.0,0.0,0.0,0.0,0.0,0.0,0.0,0.0,0.0,0.0,0.0,0.0,0.0,0.0,0.0,0.0,0.0,0.0,0.0,0.0,0.0,0.0,0.0,0.0,0.0,0.0,0.0,0.0,0.0,0.0,0.0,0.0,0.0,0.0,0.0,0.0,0.0,0.0,0.0,0.0,-3.5489,-3.5489,-3.5489,-3.5489,-3.5489,-3.5489,-3.5489,0.0,0.0,0.0,0.0,0.0,0.0,0.0,0.0,0.0,0.0,0.0,0.0,0.0,0.0,0.0,0.0,0.0,0.0,0.0,0.0,0.0,0.0,0.0,0.0,0.0,0.0,0.0,0.0,0.0,0.0,0.0,0.0,0.0,0.0,0.0,0.0,0.0,0.0,0.0,0.0,0.0,0.0,0.0,0.0,0.0,0.0,0.0,0.0,0.0,0.0,0.0,0.0,0.0,0.0,0.0,0.0,0.0,0.0,0.0,0.0,0.0,0.0,0.0,0.0,0.0,0.0,0.0,0.0,0.0,0.0,0.0,0.0,0.0,0.0,0.0,0.0,0.0,0.0,0.0,0.0,0.0,0.0,0.0,0.0,0.0,0.0,0.0,0.0,0.0,0.0,0.0,0.0,0.0,0.0,0.0,0.0,0.0,0.0,0.0,0.0,0.0,0.0,0.0,0.0,0.0,0.0,0.0,0.0,-3.5489,-3.5489,-3.5489,-3.5489,-3.5489,-3.5489,0.0,0.0,0.0,0.0,0.0,0.0,0.0,0.0,0.0,0.0,0.0,0.0,0.0,0.0,0.0,0.0,0.0,0.0,0.0,0.0,0.0,0.0,0.0,0.0,0.0,0.0,0.0,0.0,0.0,0.0,0.0,0.0,0.0,0.0,0.0,0.0,0.0,0.0,0.0,0.0,0.0,0.0,0.0,0.0,0.0,0.0,0.0,0.0,0.0,0.0,0.0,0.0,0.0,0.0,0.0,0.0,0.0,0.0,0.0,0.0,0.0,0.0,0.0,0.0,0.0,0.0,0.0,0.0,0.0,0.0,0.0,0.0,0.0,0.0,0.0,0.0,0.0,0.0,0.0,0.0,0.0,0.0,0.0,0.0,0.0,0.0,0.0,0.0,0.0,0.0,0.0,0.0,0.0,0.0,0.0,0.0,0.0,0.0,0.0,0.0,0.0,0.0,0.0,0.0,0.0,0.0,0.0,0.0,0.0,-3.5489,-3.5489,-3.5489,-3.5489,-3.5489,-3.5489,0.0,0.0,0.0,0.0,0.0,0.0,0.0,0.0,0.0,0.0,0.0,0.0,0.0,0.0,0.0,0.0,0.0,0.0,0.0,0.0,0.0,0.0,0.0,0.0,0.0,0.0,0.0,0.0,0.0,0.0,0.0,0.0,0.0,0.0,0.0,0.0,0.0,0.0,0.0,0.0,0.0,0.0,0.0,0.0,0.0,0.0,0.0,0.0,0.0,0.0,0.0,0.0,0.0,0.0,0.0,0.0,0.0,0.0,0.0,0.0,0.0,0.0,0.0,0.0,0.0,0.0,0.0,0.0,0.0,0.0,0.0,0.0,0.0,0.0,0.0,0.0,0.0,0.0,0.0,0.0,0.0,0.0,0.0,0.0,0.0,0.0,0.0,0.0,0.0,0.0,0.0,0.0,0.0,0.0,0.0,0.0,0.0,0.0,0.0,0.0,0.0,0.0,0.0,0.0,0.0,0.0,0.0,0.0,-3.5489,-3.5489,-3.5489,-3.5489,-3.5489,-3.5489,-3.5489,0.0,0.0,0.0,0.0,0.0,0.0,0.0,0.0,0.0,0.0,0.0,0.0,0.0,0.0,0.0,0.0,0.0,0.0,0.0,0.0,0.0,0.0,0.0,0.0,0.0,0.0,0.0,0.0,0.0,0.0,0.0,0.0,0.0,0.0,0.0,0.0,0.0,0.0,0.0,0.0,0.0,0.0,0.0,0.0,0.0,0.0,0.0,0.0,0.0,0.0,0.0,0.0,0.0,0.0,0.0,0.0,0.0,0.0,0.0,0.0,0.0,0.0,0.0,0.0,0.0,0.0,0.0,0.0,0.0,0.0,0.0,0.0,0.0,0.0,0.0,0.0,0.0,0.0,0.0,0.0,0.0,0.0,0.0,0.0,0.0,0.0,0.0,0.0,0.0,0.0,0.0,0.0,0.0,0.0,0.0,0.0,0.0,0.0,0.0,0.0,0.0,0.0,0.0,0.0,0.0,0.0,0.0,0.0,-3.5489,-3.5489,-3.5489,-3.5489,-3.5489,-3.5489,-3.5489,0.0,0.0,0.0,0.0,0.0,0.0,0.0,0.0,0.0,0.0,0.0,0.0,0.0,0.0,0.0,0.0,0.0,0.0,0.0,0.0,0.0,0.0,0.0,0.0,0.0,0.0,0.0,0.0,0.0,0.0,0.0,0.0,0.0,0.0,0.0,0.0,0.0,0.0,0.0,0.0,0.0,0.0,0.0,0.0,0.0,0.0,0.0,0.0,0.0,0.0,0.0,0.0,0.0,0.0,0.0,0.0,0.0,0.0,0.0,0.0,0.0,0.0,0.0,0.0,0.0,0.0,0.0,0.0,0.0,0.0,0.0,0.0,0.0,0.0,0.0,0.0,0.0,0.0,0.0,0.0,0.0,0.0,0.0,0.0,0.0,0.0,0.0,0.0,0.0,0.0,0.0,0.0,0.0,0.0,0.0,0.0,0.0,0.0,0.0,0.0,0.0,0.0,0.0,0.0,0.0,0.0,0.0,0.0,-3.5489,-3.5489,-3.5489,-3.5489,-3.5489,-3.5489,-3.5489,0.0,0.0,0.0,0.0,0.0,0.0,0.0,0.0,0.0,0.0,0.0,0.0,0.0,0.0,0.0,0.0,0.0,0.0,0.0,0.0,0.0,0.0,0.0,0.0,0.0,0.0,0.0,0.0,0.0,0.0,0.0,0.0,0.0,0.0,0.0,0.0,0.0,0.0,0.0,0.0,0.0,0.0,0.0,0.0,0.0,0.0,0.0,0.0,-4.1801,0.0,0.0,0.0,0.0,0.0,0.0,0.0,0.0,0.0,0.0,0.0,0.0,0.0,0.0,0.0,0.0,0.0,0.0,0.0,0.0,0.0,0.0,0.0,0.0,0.0,0.0,0.0,0.0,0.0,0.0,0.0,0.0,0.0,0.0,0.0,0.0,0.0,0.0,0.0,0.0,0.0,0.0,0.0,0.0,0.0,0.0,0.0,0.0,0.0,0.0,0.0,0.0,0.0,0.0,0.0,0.0,0.0,0.0,0.0,-3.5489,-3.5489,-3.5489,-3.5489,-3.5489,-3.5489,-3.5489,0.0,0.0,0.0,0.0,0.0,0.0,0.0,0.0,0.0,0.0,0.0,0.0,0.0,0.0,0.0,0.0,0.0,0.0,0.0,0.0,0.0,0.0,0.0,0.0,0.0,0.0,0.0,0.0,0.0,0.0,0.0,0.0,0.0,0.0,0.0,0.0,0.0,0.0,0.0,0.0,0.0,0.0,0.0,0.0,0.0,0.0,0.0,0.0,0.0,0.0,0.0,0.0,0.0,0.0,0.0,0.0,0.0,0.0,0.0,0.0,0.0,0.0,0.0,0.0,0.0,0.0,0.0,0.0,0.0,0.0,0.0,0.0,0.0,0.0,0.0,0.0,0.0,0.0,0.0,0.0,0.0,0.0,0.0,0.0,0.0,0.0,0.0,0.0,0.0,0.0,0.0,0.0,0.0,0.0,0.0,0.0,0.0,0.0,0.0,0.0,0.0,0.0,0.0,0.0,0.0,0.0,0.0,-3.5759,-3.5789,-3.5789,-3.5789,-3.5759,-3.5669,-3.5669,-3.5609,-3.5519,0.0,0.0,0.0,0.0,0.0,0.0,0.0,0.0,0.0,0.0,0.0,0.0,0.0,0.0,0.0,0.0,0.0,0.0,0.0,0.0,0.0,0.0,0.0,0.0,0.0,0.0,0.0,0.0,0.0,0.0,0.0,0.0,0.0,0.0,0.0,0.0,0.0,0.0,-3.9288,-3.9288,0.0,0.0,0.0,0.0,0.0,0.0,0.0,0.0,-4.1719,0.0,0.0,0.0,0.0,0.0,0.0,0.0,0.0,0.0,0.0,0.0,0.0,0.0,0.0,0.0,0.0,0.0,0.0,0.0,0.0,0.0,0.0,0.0,0.0,0.0,0.0,0.0,0.0,0.0,0.0,0.0,0.0,0.0,0.0,0.0,0.0,0.0,0.0,0.0,0.0,0.0,0.0,0.0,0.0,0.0,0.0,0.0,0.0,0.0,0.0,0.0,0.0,0.0,0.0,0.0,0.0,-3.6327,-3.6836,-3.7105,-3.7105,-3.7105,-3.6836,-3.6357,-3.6327,-3.6058,-3.5549,0.0,0.0,0.0,0.0,0.0,0.0,0.0,0.0,0.0,0.0,0.0,0.0,0.0,0.0,0.0,0.0,0.0,0.0,0.0,0.0,0.0,0.0,0.0,0.0,0.0,0.0,0.0,0.0,0.0,0.0,0.0,0.0,0.0,0.0,0.0,0.0,0.0,0.0,0.0,-3.9288,-3.9342,0.0,0.0,0.0,0.0,0.0,0.0,0.0,0.0,-4.1445,0.0,0.0,0.0,0.0,0.0,0.0,0.0,0.0,0.0,0.0,0.0,0.0,0.0,0.0,0.0,0.0,0.0,0.0,0.0,0.0,0.0,0.0,0.0,0.0,0.0,0.0,0.0,0.0,0.0,0.0,0.0,0.0,0.0,0.0,0.0,0.0,0.0,0.0,0.0,0.0,0.0,0.0,0.0,0.0,0.0,0.0,0.0,0.0,0.0,0.0,0.0,0.0,0.0,0.0,0.0,-3.6985,-3.7255,-3.7404,-3.7404,-3.7404,-3.7285,-3.6985,-3.6956,-3.6806,0.0,0.0,0.0,0.0,0.0,0.0,0.0,0.0,0.0,0.0,0.0,0.0,0.0,0.0,0.0,0.0,0.0,0.0,0.0,0.0,0.0,0.0,0.0,0.0,0.0,0.0,0.0,0.0,0.0,0.0,0.0,0.0,0.0,0.0,0.0,0.0,0.0,0.0,0.0,0.0,-3.9395,-3.9395,-3.9342,0.0,0.0,0.0,0.0,0.0,0.0,-4.1125,-4.1265,0.0,0.0,0.0,0.0,0.0,0.0,0.0,0.0,0.0,0.0,0.0,0.0,0.0,0.0,0.0,0.0,0.0,0.0,0.0,0.0,0.0,0.0,0.0,0.0,0.0,0.0,0.0,0.0,0.0,0.0,0.0,0.0,0.0,0.0,0.0,0.0,0.0,0.0,0.0,0.0,0.0,0.0,0.0,0.0,0.0,0.0,0.0,0.0,0.0,0.0,0.0,0.0,0.0,0.0,0.0,-3.7614,-3.7734,-3.7823,-3.7823,-3.7823,-3.7764,-3.7614,-3.7614,-3.7554,0.0,0.0,0.0,0.0,0.0,0.0,0.0,0.0,0.0,0.0,0.0,0.0,0.0,0.0,0.0,0.0,0.0,0.0,0.0,0.0,0.0,0.0,0.0,0.0,0.0,0.0,0.0,0.0,0.0,0.0,0.0,0.0,0.0,0.0,0.0,0.0,0.0,0.0,0.0,0.0,0.0,-3.9515,-3.9541,-3.9355,0.0,0.0,0.0,0.0,-4.1375,-4.1268,0.0,0.0,0.0,0.0,0.0,0.0,0.0,0.0,0.0,0.0,0.0,0.0,0.0,0.0,0.0,0.0,0.0,0.0,0.0,0.0,0.0,0.0,0.0,0.0,0.0,0.0,0.0,0.0,0.0,0.0,0.0,0.0,0.0,0.0,0.0,0.0,0.0,0.0,0.0,0.0,0.0,0.0,0.0,0.0,0.0,0.0,0.0,0.0,0.0,0.0,0.0,0.0,0.0,0.0,0.0,0.0,-3.8302,-3.8901,-3.92,-3.92,-3.92,-3.8901,-3.8302,-3.8272,-3.8003,0.0,0.0,0.0,0.0,0.0,0.0,0.0,0.0,0.0,0.0,0.0,0.0,0.0,0.0,0.0,0.0,0.0,0.0,0.0,0.0,0.0,0.0,0.0,0.0,0.0,0.0,0.0,0.0,0.0,0.0,0.0,0.0,0.0,0.0,0.0,0.0,0.0,0.0,0.0,0.0,0.0,-3.9681,-4.0204,-3.9686,-3.9881,0.0,0.0,-4.0745,-4.1755,-4.1896,0.0,0.0,0.0,0.0,0.0,0.0,0.0,0.0,0.0,0.0,0.0,0.0,0.0,0.0,0.0,0.0,0.0,0.0,0.0,0.0,0.0,0.0,0.0,0.0,0.0,0.0,0.0,0.0,0.0,0.0,0.0,0.0,0.0,0.0,0.0,0.0,0.0,0.0,0.0,0.0,0.0,0.0,0.0,0.0,0.0,0.0,0.0,0.0,0.0,0.0,0.0,0.0,0.0,0.0,0.0,-3.896,-3.899,-3.926,-3.9439,-3.9439,-3.9439,-3.929,-3.899,-3.896,-3.8841,0.0,0.0,0.0,0.0,0.0,0.0,0.0,0.0,0.0,0.0,0.0,0.0,0.0,0.0,0.0,0.0,0.0,0.0,0.0,0.0,0.0,0.0,0.0,0.0,0.0,0.0,0.0,0.0,0.0,0.0,0.0,0.0,0.0,0.0,0.0,0.0,0.0,0.0,0.0,0.0,0.0,0.0,-4.0403,-4.0448,0.0,0.0,0.0,-4.1187,-4.1898,0.0,0.0,0.0,0.0,0.0,0.0,0.0,0.0,0.0,0.0,0.0,0.0,0.0,0.0,0.0,0.0,0.0,0.0,0.0,0.0,0.0,0.0,0.0,0.0,0.0,0.0,0.0,0.0,0.0,0.0,0.0,0.0,0.0,0.0,0.0,0.0,0.0,0.0,0.0,0.0,0.0,0.0,0.0,0.0,0.0,0.0,0.0,0.0,0.0,0.0,0.0,0.0,0.0,0.0,0.0,0.0,0.0,-3.9439,-3.9439,-3.9439,-3.9439,-3.9439,-3.9439,-3.9439,-3.9439,0.0,0.0,0.0,0.0,0.0,0.0,0.0,0.0,0.0,0.0,0.0,0.0,0.0,0.0,0.0,0.0,0.0,0.0,0.0,0.0,0.0,0.0,0.0,0.0,0.0,0.0,0.0,-3.8023,0.0,0.0,0.0,0.0,0.0,0.0,0.0,0.0,0.0,0.0,0.0,0.0,0.0,0.0,-4.0933,-4.0967,-4.1266,-4.161,0.0,0.0,-4.1824,-4.2315,-4.2129,-4.2222,0.0,0.0,0.0,0.0,0.0,0.0,0.0,0.0,0.0,0.0,0.0,0.0,0.0,0.0,0.0,0.0,0.0,0.0,0.0,0.0,0.0,0.0,0.0,0.0,0.0,0.0,0.0,0.0,0.0,0.0,0.0,0.0,0.0,0.0,0.0,0.0,0.0,0.0,0.0,0.0,0.0,0.0,0.0,0.0,0.0,0.0,0.0,0.0,0.0,0.0,0.0,0.0,0.0,0.0,0.0,-3.9439,-3.9439,-3.9439,-3.9439,-3.9439,-3.9439,-3.9439,-3.9439,-3.9439,0.0,0.0,0.0,0.0,0.0,0.0,0.0,0.0,0.0,0.0,0.0,0.0,0.0,0.0,0.0,0.0,0.0,0.0,0.0,0.0,0.0,0.0,0.0,0.0,0.0,0.0,0.0,0.0,0.0,0.0,0.0,0.0,0.0,0.0,0.0,0.0,0.0,0.0,0.0,0.0,0.0,-4.1977,-4.2303,-4.1953,-4.2076,0.0,0.0,-4.2642,-4.337,-4.3436,-4.3555,-4.3789,0.0,0.0,0.0,0.0,0.0,0.0,0.0,0.0,0.0,0.0,0.0,0.0,0.0,0.0,0.0,0.0,0.0,0.0,0.0,0.0,0.0,0.0,0.0,0.0,0.0,0.0,0.0,0.0,0.0,0.0,0.0,0.0,0.0,0.0,0.0,0.0,0.0,0.0,0.0,0.0,0.0,0.0,0.0,0.0,0.0,0.0,0.0,0.0,0.0,0.0,0.0,0.0,0.0,-3.9439,-3.9439,-3.9439,-3.9439,-3.9439,-3.9439,-3.9439,-3.9439,-3.9439,-3.9439,0.0,0.0,0.0,0.0,0.0,0.0,0.0,0.0,0.0,0.0,0.0,0.0,0.0,0.0,0.0,0.0,0.0,0.0,0.0,0.0,0.0,0.0,0.0,0.0,0.0,0.0,0.0,0.0,-3.9292,-3.9645,-3.9951,0.0,0.0,0.0,0.0,0.0,0.0,0.0,0.0,0.0,0.0,-4.2635,-4.2675,-4.2874,0.0,0.0,-4.358,-4.3448,-4.3754,-4.4119,-4.4411,-4.4411,-4.4837,0.0,0.0,0.0,0.0,0.0,0.0,0.0,0.0,0.0,0.0,0.0,0.0,0.0,0.0,0.0,0.0,0.0,0.0,0.0,0.0,0.0,0.0,0.0,0.0,0.0,0.0,0.0,0.0,0.0,0.0,0.0,0.0,0.0,0.0,0.0,0.0,0.0,0.0,0.0,0.0,0.0,0.0,0.0,0.0,0.0,0.0,0.0,0.0,0.0,0.0,0.0,0.0,-3.9798,-3.9978,-4.0008,-4.0008,-4.0008,-4.0008,-4.0008,-4.0008,-4.0008,-3.9918,0.0,0.0,0.0,0.0,0.0,0.0,0.0,0.0,0.0,0.0,0.0,0.0,0.0,0.0,0.0,0.0,0.0,0.0,0.0,0.0,0.0,0.0,0.0,0.0,0.0,0.0,0.0,0.0,-3.9801,-3.9917,-4.0347,0.0,0.0,0.0,0.0,0.0,0.0,0.0,0.0,0.0,0.0,-4.3327,-4.3213,-4.3623,-4.3997,-4.4205,-4.4171,-4.4238,-4.4411,-4.4903,-4.5202,-4.5142,0.0,0.0,0.0,0.0,0.0,0.0,0.0,0.0,0.0,0.0,0.0,0.0,0.0,0.0,0.0,0.0,0.0,0.0,0.0,0.0,0.0,0.0,0.0,0.0,0.0,0.0,0.0,0.0,0.0,0.0,-3.8115,0.0,0.0,0.0,0.0,0.0,0.0,0.0,0.0,0.0,0.0,0.0,0.0,0.0,0.0,0.0,0.0,0.0,0.0,0.0,0.0,0.0,0.0,-4.0696,-4.1324,-4.1294,-4.1324,-4.1324,-4.1324,-4.1324,-4.1294,-4.1324,-4.1025,-4.0397,0.0,0.0,0.0,0.0,0.0,0.0,0.0,0.0,0.0,0.0,0.0,0.0,0.0,0.0,0.0,0.0,0.0,0.0,0.0,0.0,0.0,0.0,0.0,0.0,0.0,0.0,-4.0409,-4.0509,-4.0509,0.0,0.0,0.0,0.0,0.0,0.0,0.0,0.0,0.0,0.0,-4.4179,-4.4097,-4.4097,-4.4015,-4.4223,-4.4849,-4.4803,-4.4915,-4.5596,-4.5957,-4.6062,0.0,0.0,0.0,0.0,0.0,0.0,0.0,0.0,0.0,0.0,0.0,0.0,0.0,0.0,0.0,0.0,0.0,0.0,0.0,0.0,0.0,0.0,0.0,0.0,0.0,0.0,0.0,-3.8202,-3.8202,0.0,0.0,0.0,0.0,0.0,0.0,0.0,0.0,0.0,0.0,0.0,-4.0753,-4.098,0.0,0.0,0.0,0.0,0.0,0.0,0.0,0.0,0.0,0.0,0.0,0.0,-4.1145,-4.1384,-4.1384,-4.1384,-4.1384,-4.1384,-4.1384,-4.1384,-4.1384,-4.1294,-4.1055,0.0,0.0,0.0,0.0,0.0,0.0,0.0,0.0,0.0,0.0,0.0,0.0,0.0,0.0,0.0,0.0,0.0,0.0,0.0,0.0,0.0,0.0,0.0,0.0,0.0,-4.0539,0.0,0.0,0.0,0.0,0.0,0.0,0.0,0.0,0.0,0.0,0.0,-4.4226,-4.4463,-4.4879,-4.5159,-4.5009,-4.5354,-4.563,0.0,0.0,0.0,0.0,0.0,0.0,0.0,0.0,0.0,0.0,0.0,0.0,0.0,0.0,-4.8829,-4.8342,-4.8274,-4.8247,-4.8274,0.0,0.0,0.0,0.0,0.0,0.0,0.0,0.0,0.0,0.0,0.0,0.0,0.0,0.0,0.0,0.0,-3.887,0.0,0.0,0.0,0.0,0.0,0.0,0.0,0.0,-4.0926,-4.1198,-4.1406,-4.156,-4.1756,0.0,-4.2073,-4.2073,0.0,0.0,0.0,0.0,0.0,0.0,0.0,0.0,-4.1833,-4.2043,-4.2043,-4.2073,-4.2073,-4.2043,-4.2043,-4.2043,-4.1833,-4.1713,-4.1713,-4.1504,-4.1384,0.0,0.0,0.0,0.0,0.0,0.0,0.0,0.0,0.0,0.0,0.0,0.0,0.0,0.0,0.0,0.0,0.0,0.0,0.0,0.0,0.0,0.0,0.0,-4.0539,0.0,0.0,0.0,0.0,0.0,0.0,0.0,0.0,0.0,-4.4788,-4.4993,-4.506,-4.5297,-4.5679,-4.5925,-4.5808,0.0,0.0,0.0,0.0,0.0,0.0,0.0,-4.7464,-4.74,-4.8096,-4.8792,-4.9122,-4.9446,-4.9805,-5.0371,0.0,0.0,-4.983,-4.9796,-4.9763,-4.9763,-4.8984,-4.8612,-4.9593,-4.9018,-4.8748,0.0,0.0,0.0,0.0,0.0,0.0,0.0,0.0,-4.006,-4.006,0.0,-4.006,0.0,0.0,0.0,0.0,0.0,-4.0617,0.0,0.0,-4.0938,-4.1466,-4.203,-4.206,-4.2387,-4.2981,-4.314,-4.314,-4.2971,-4.1966,0.0,0.0,0.0,0.0,0.0,0.0,-4.2701,-4.3269,-4.3299,-4.3329,-4.3299,-4.3329,-4.3329,-4.3299,-4.2701,-4.2479,-4.2372,-4.1803,-4.1444,-4.1444,-4.1444,0.0,0.0,0.0,0.0,0.0,0.0,0.0,0.0,0.0,0.0,0.0,0.0,0.0,0.0,0.0,0.0,0.0,0.0,0.0,0.0,-4.0539,0.0,0.0,0.0,0.0,0.0,0.0,0.0,0.0,0.0,0.0,-4.548,-4.5679,-4.5974,-4.6684,0.0,0.0,0.0,0.0,-4.6623,-4.7056,-4.7234,-4.7398,-4.7934,-4.8164,-4.8196,-4.8229,0.0,0.0,-5.1017,-5.1119,-5.1119,-5.1186,-5.1217,-5.1251,-5.1285,-5.1153,-5.1119,-5.115,-5.1048,-5.1183,-5.1217,-5.098,-5.1048,-4.125,0.0,0.0,0.0,0.0,-4.0089,-4.0089,-4.0089,-4.0089,-4.0089,-4.0089,-4.0089,0.0,0.0,0.0,0.0,0.0,0.0,-4.1317,-4.1836,-4.2027,-4.2166,-4.2474,-4.2474,-4.2643,-4.2981,-4.309,-4.317,-4.322,-4.2891,-4.2761,-4.2761,0.0,0.0,0.0,0.0,-4.315,-4.3329,-4.3329,-4.3329,-4.3329,-4.3329,-4.3329,-4.3329,-4.315,-4.306,-4.306,-4.288,-4.2761,-4.2761,-4.2342,0.0,0.0,0.0,0.0,0.0,0.0,0.0,0.0,0.0,0.0,0.0,0.0,0.0,0.0,0.0,0.0,0.0,0.0,0.0,-4.0539,-4.0539,-4.0724,0.0,0.0,0.0,0.0,0.0,0.0,0.0,0.0,0.0,-4.6208,-4.6029,-4.5979,0.0,0.0,-4.7537,-4.7537,-4.7916,-4.8192,-4.813,-4.8111,0.0,-4.873,-4.8796,-4.9028,-4.9559,-4.9892,-5.0226,-5.0593,-5.076,-5.106,-5.173,-5.1894,-5.216,-5.2638,-5.19,-5.1261,-5.1254,-5.1217,-5.1217,-5.1217,-5.1217,-5.1386,-4.186,-4.1453,-4.1047,-4.0902,-4.0902,-4.0902,-4.0902,-4.0902,-4.0902,-4.0873,-4.0873,-4.0902,-4.0873,-4.0902,-4.0873,0.0,0.0,0.0,-4.1849,-4.2228,-4.2392,-4.2474,-4.2637,-4.2526,-4.2607,-4.2769,-4.29,-4.301,-4.293,-4.317,-4.3399,-4.3558,0.0,0.0,-4.3329,-4.3329,-4.3329,-4.3329,-4.3329,-4.3329,-4.3329,-4.3329,-4.3329,-4.3329,-4.3329,-4.3329,-4.3329,-4.3329,-4.3329,-4.3329,-4.297,-4.2761,0.0,0.0,0.0,0.0,0.0,0.0,0.0,0.0,0.0,0.0,0.0,-4.0595,-4.0811,0.0,0.0,0.0,-4.1309,-4.137,-4.134,-4.137,0.0,0.0,0.0,0.0,0.0,0.0,0.0,-4.3559,-4.3591,-4.4306,-4.6118,-4.6258,-4.6513,-4.7545,-4.8071,-4.8281,-4.8158,0.0,-4.8899,-4.8785,-4.8788,-4.8992,-4.9457,-4.9523,-4.979,-5.0587,-5.0687,-5.0888,-5.1327,-5.1496,-5.1799,-5.2404,-5.2842,-5.328,-5.3822,-5.3415,-5.2706,-5.2167,-5.1899,-5.1899,-5.1899,-5.1965,-5.21,-4.2237,-4.2237,-4.2237,-4.2179,-4.2092,-4.2092,-4.2092,-4.2092,-4.2092,-4.2092,-4.2092,-4.2092,-4.2092,-4.2092,-4.2092,0.0,-4.2092,-4.231,-4.2257,-4.2179,-4.2398,-4.2509,-4.2538,-4.2567,-4.2538,-4.2538,-4.2917,-4.2917,-4.265,-4.3189,-4.3647,-4.405,-4.3647,-4.3399,-4.3509,-4.3509,-4.3479,-4.3479,-4.3509,-4.3509,-4.3509,-4.3479,-4.3509,-4.3509,-4.3449,-4.3419,-4.3419,-4.3359,-4.3329,-4.3329,-4.3329,-4.3329,-4.3329,0.0,0.0,0.0,0.0,0.0,0.0,0.0,0.0,0.0,0.0,0.0,0.0,0.0,0.0,0.0,-4.2582,0.0,-4.2602,-4.2602,0.0,0.0,0.0,-4.2694,-4.2756,-4.2756,-4.3002,-4.3587,0.0,0.0,-4.5561,-4.6308,-4.7337,-4.8803,-4.899,-4.8894,-4.8614,-4.8807,-4.8946,-4.9227,-4.936,-4.9593,-5.0218,-5.0383,-5.072,-5.1422,-5.1589,-5.1958,-5.2664,-5.3001,-5.314,-5.3312,-5.3921,-5.4464,-5.4634,-5.5103,-5.5201,-5.3616,-5.3278,-5.3174,-5.314,-5.3278,-5.3449,-4.3544,-4.3544,-4.3544,-4.2992,-4.2092,-4.2092,-4.2092,-4.2092,-4.2092,-4.2092,-4.2092,-4.2092,-4.2092,-4.2092,-4.2092,-4.2092,-4.2092,-4.2175,-4.2436,-4.276,-4.2873,-4.3135,-4.36,-4.3629,-4.3714,-4.3855,-4.3939,-4.3994,-4.4078,-4.4246,-4.4418,-4.4733,-4.4668,-4.4661,-4.4825,-4.4825,-4.4847,-4.4809,-4.4847,-4.4825,-4.4825,-4.4825,-4.4825,-4.4825,-4.4347,-4.4077,-4.4077,-4.3599,-4.3329,-4.3329,-4.3329,-4.3329,-4.3329,-4.3329,0.0,0.0,0.0,0.0,0.0,0.0,0.0,0.0,0.0,-4.1805,-4.201,0.0,-4.2414,0.0,-4.259,-4.2602,-4.2602,-4.2602,0.0,0.0,-4.334,-4.3556,-4.4048,-4.411,-4.4172,-4.4326,-4.4356,-4.4688,-4.5624,-4.634,-4.7365,-4.8762,-4.9009,-4.9159,-4.9413,-4.9513,-4.9684,-5.0026,-5.0126,-5.0358,-5.0949,-5.1545,-5.191,-5.2146,-5.2611,-5.3042,-5.328,-5.3923,-5.4434,-5.4649,-5.4864,-5.5175,-5.5412,-5.5505,-5.5396,-5.4996,-5.4965,-5.5036,-5.5036,-5.5002,-5.5106,-4.4008,-4.4008,-4.4008,-4.3573,-4.2934,-4.2934,-4.2934,-4.2934,-4.2934,-4.2934,-4.2934,-4.2934,-4.2934,-4.2934,-4.2934,-4.2934,-4.2934,-4.2934,-4.3108,-4.3427,-4.3427,-4.3631,-4.4008,-4.4008,-4.4065,-4.4151,-4.4237,-4.4294,-4.4294,-4.4549,-4.4752,-4.5161,-4.5361,-4.565,-4.5973,-4.552,-4.5327,-4.532,-4.5327,-4.5274,-4.5274,-4.5274,-4.5274,-4.5274,-4.4945,-4.4736,-4.4736,-4.4407,-4.4197,-4.4197,-4.3928,-4.3778,-4.3748,-4.3509,-4.3329,0.0,0.0,0.0,0.0,0.0,0.0,0.0,0.0,0.0,0.0,0.0,-4.3271,-4.3468,-4.3451,-4.3494,-4.3494,-4.3494,-4.3618,-4.3987,-4.4018,-4.4172,-4.4541,-4.4572,-4.4572,-4.4572,-4.4572,-4.4816,-4.5547,-4.6574,-4.7679,-4.8813,-4.9525,-5.0071,-5.0315,-5.0351,-5.0456,-5.0961,-5.096,-5.1223,-5.2042,-5.2572,-5.297,-5.3301,-5.3665,-5.3897,-5.3897,-5.4302,-5.4749,-5.4968,-5.5319,-5.5703,-5.5905,-5.613,-5.6258,-5.6264,-5.6303,-5.614,-5.5568,-5.5471,-5.5542,-4.424,-4.424,-4.424,-4.424,-4.424,-4.424,-4.4153,-4.4008,-4.4008,-4.4008,-4.4008,-4.4008,-4.4008,-4.4008,-4.4008,-4.4008,-4.4008,-4.4008,-4.4037,-4.4095,-4.4095,-4.4153,-4.424,-4.424,-4.424,-4.424,-4.4384,-4.4384,-4.424,-4.4613,-4.4993,-4.5434,-4.5841,-4.631,-4.6842,-4.5943,-4.5544,-4.5544,-4.5544,-4.5544,-4.5544,-4.5544,-4.5544,-4.5544,-4.5484,-4.5424,-4.5424,-4.5334,-4.5274,-4.5274,-4.4736,-4.4436,-4.4436,-4.3898,-4.3599,0.0,-4.3599,0.0,0.0,0.0,0.0,0.0,0.0,0.0,0.0,-4.4187,-4.4419,-4.4572,-4.4572,-4.4572,-4.4572,-4.4572,-4.4572,-4.4572,-4.4572,-4.4572,-4.4572,-4.4572,-4.4603,-4.4695,-4.4695,-4.4972,-4.5696,-4.6982,-4.811,-4.8828,-5.0017,-5.086,-5.1094,-5.1127,-5.1262,-5.1798,-5.1827,-5.2184,-5.3202,-5.3533,-5.3765,-5.4328,-5.4593,-5.4659,-5.4659,-5.4792,-5.4933,-5.5114,-5.5655,-5.6096,-5.6278,-5.6854,-5.7256,-5.7189,-5.7264,-5.6895,-5.5889,-5.5732,-5.5669,-4.5518,-4.5518,-4.5518,-4.5518,-4.5518,-4.5518,-4.4937,-4.4008,-4.4008,-4.4008,-4.4008,-4.4008,-4.4008,-4.4008,-4.4008,-4.4008,-4.4008,-4.4008,-4.424,-4.4705,-4.4705,-4.4995,-4.5518,-4.5518,-4.5518,-4.5547,-4.5607,-4.5607,-4.5547,-4.5607,-4.5754,-4.602,-4.6138,-4.6462,-4.6901,0.0,0.0,0.0,-4.692,-4.692,-4.692,-4.692,-4.692,-4.692,-4.6411,0.0,-4.6112,-4.5603,-4.5274,-4.5274,-4.5185,0.0,0.0,0.0,0.0,0.0,0.0,0.0,0.0,0.0,0.0,0.0,-4.3269,-4.3498,-4.3728,-4.4112,-4.4403,-4.4541,-4.4572,-4.4572,-4.4572,-4.4572,-4.4572,-4.4572,-4.4572,-4.4572,-4.4572,-4.4572,-4.4787,-4.5311,-4.5403,-4.5649,-4.6343,-4.7213,-4.804,-4.8751,-4.9628,-5.0615,-5.1706,-5.176,-5.1899,-5.236,-5.2819,-5.3374,-5.4162,-5.4295,-5.4361,-5.456,-5.5057,-5.5388,-5.5454,-5.5885,-5.6326,-5.6445,-5.6687,-5.6829,-5.698,-5.7222,-5.7289,-5.7289,-5.7289,-5.7264,-5.7144,-5.715,-5.7257,-4.5895,0.0,-4.5895,-4.5895,0.0,-4.5895,-4.5518,-4.4937,-4.4937,-4.4908,-4.4937,-4.4937,-4.4908,-4.4937,-4.4937,-4.4937,-4.4908,-4.4937,-4.5082,-4.5372,-4.5372,-4.5547,-4.5895,-4.5895,-4.5895,-4.5895,-4.5895,-4.5895,-4.5895,-4.5895,-4.5985,-4.6046,-4.6135,-4.6284,-4.658,-4.6756,-4.7019,-4.7309,-4.7309,-4.7309,-4.7309,-4.7309,-4.7309,-4.7309,-4.698,0.0,0.0,0.0,0.0,0.0,0.0,0.0,0.0,0.0,0.0,-4.5274,-4.5274,-4.5155,-4.4825,-4.4796,-4.4646,-4.4317,-4.4288,-4.4097,-4.3747,-4.3957,-4.4205,-4.4266,-4.4297,-4.4374,-4.4419,-4.4419,-4.4496,-4.4572,-4.4572,-4.4695,-4.5003,-4.5125,-4.5372,-4.5926,-4.6094,-4.637,-4.7004,-4.7747,-4.8464,-4.9251,-5.037,-5.1401,-5.2389,-5.2506,-5.2715,-5.3485,-5.3884,-5.4343,-5.504,-5.5206,-5.5372,-5.5705,-5.607,-5.6193,-5.615,-5.6525,-5.6834,-5.6834,-5.6987,-5.7139,-5.7139,-5.7214,-5.7289,-5.7289,-5.7289,-5.7364,-5.7514,-5.7588,-5.7662,-4.5895,-4.5895,-4.5895,-4.5895,-4.5895,-4.5895,-4.5895,-4.5895,0.0,0.0,0.0,-4.5895,-4.5895,-4.5895,-4.5895,-4.5895,-4.5895,-4.5895,-4.5895,-4.5895,-4.5895,-4.5895,-4.5895,-4.6011,-4.604,-4.6069,-4.6156,-4.6214,-4.6214,-4.6214,-4.6214,-4.6214,-4.6366,-4.6576,-4.6636,-4.7081,-4.7463,-4.7638,-4.7429,-4.7309,-4.7309,-4.7309,-4.7309,-4.7309,-4.7309,-4.7309,-4.7309,-4.7309,-4.7309,-4.7279,-4.68,-4.6501,-4.6471,-4.5963,-4.5663,-4.5663,-4.5663,-4.5603,-4.5484,-4.5484,-4.5424,-4.5304,-4.5242,-4.489,-4.4067,-4.4195,-4.4273,-4.4322,-4.4322,-4.443,-4.4555,-4.4555,-4.4633,-4.4788,-4.4864,-4.5187,-4.568,-4.5789,-4.6005,-4.6603,-4.6831,-4.7058,-4.7681,-4.8306,-4.9001,-4.9789,-5.0839,-5.2253,-5.3058,-5.3412,-5.3798,-5.446,-5.4734,-5.5181,-5.5813,-5.6046,-5.6279,-5.6711,-5.6844,-5.6911,-5.6757,-5.6834,-5.6834,-5.6757,-5.6987,-5.7063,-5.6987,-5.7063,-5.7214,-5.7214,-5.7214,-5.7289,-5.7514,-5.7514,-5.7588,-4.5895,-4.5895,-4.5895,-4.5895,-4.5895,-4.5895,-4.5895,-4.5895,-4.5895,-4.5895,-4.5895,-4.5895,-4.5895,-4.5895,-4.5895,-4.5895,-4.5895,-4.5895,-4.5895,0.0,-4.5895,-4.5895,-4.5924,-4.6446,-4.6708,-4.6737,-4.723,-4.7521,-4.7521,-4.7491,-4.7521,-4.7491,-4.7614,-4.777,-4.8168,-4.8715,-4.8985,-4.8985,-4.7878,-4.7309,-4.7309,-4.7309,-4.7309,-4.7309,-4.7339,-4.7309,-4.7309,-4.7309,-4.7309,-4.7309,-4.7219,-4.716,-4.716,-4.707,-4.704,-4.701,-4.701,-4.677,-4.6202,-4.6172,-4.5933,-4.5364,-4.5281,-4.5304,-4.5363,-4.5341,-4.5484,-4.5607,-4.5546,-4.5607,-4.5688,-4.5627,-4.5597,-4.5707,-4.5898,-4.6119,-4.6211,-4.6374,-4.6669,-4.7342,-4.7434,-4.7711,-4.8266,-4.8615,-4.8944,-4.9563,-5.036,-5.0849,-5.2635,-5.3978,-5.4659,-5.4766,-5.515,-5.5752,-5.6359,-5.6591,-5.6624,-5.6724,-5.6757,-5.6757,-5.668,-5.6757,-5.6757,-5.668,-5.6834,-5.6834,-5.6757,-5.6757,-5.6911,-5.6911,-5.6911,-5.6987,-5.7364,-5.7439,-5.7514,-4.6911,-4.6911,-4.6911,-4.6911,-4.6911,-4.6911,-4.6911,-4.6974,-4.6956,-4.6486,-4.5895,-4.5895,-4.5895,-4.5924,-4.6243,-4.6388,-4.6417,-4.6766,-4.6911,-4.6911,-4.6911,-4.6911,-4.694,-4.7201,-4.7346,-4.7375,-4.7637,-4.7782,-4.7782,-4.7782,-4.7782,-4.7782,-4.7969,-4.8155,-4.8525,-4.8892,-4.9164,-4.9254,-4.8686,-4.8356,-4.8386,-4.8386,-4.8356,-4.8356,-4.8356,-4.8356,-4.8386,-4.8356,-4.8356,-4.8356,-4.8057,-4.779,-4.7818,-4.7519,-4.7309,-4.7309,-4.7309,-4.716,-4.689,-4.686,-4.6711,-4.6411,-4.6386,-4.6416,-4.6551,-4.5843,-4.5484,-4.5552,-4.5552,-4.5634,-4.5716,-4.5686,-4.5849,-4.6123,-4.6123,-4.6275,-4.6742,-4.688,-4.7256,-4.7876,-4.806,-4.8235,-4.8573,-4.8943,-4.9281,-4.9766,-5.0599,-5.18,-5.2765,-5.4421,-5.5676,-5.5431,-5.5608,-5.6128,-5.6844,-5.7063,-5.6987,-5.6911,-5.6834,-5.6834,-5.6757,-5.6834,-5.6987,-5.6911,-5.7139,-5.7289,-5.7214,-5.7289,-5.7364,-5.7364,-5.7289,-5.7364,-5.7514,-5.7662,-5.7662,-4.7782,-4.7782,-4.7782,-4.7782,-4.7782,-4.7782,-4.7782,-4.7817,-4.7779,-4.7281,-4.645,-4.6301,-4.633,-4.6359,-4.6824,-4.7056,-4.7114,-4.755,-4.7782,-4.7782,-4.7782,-4.7782,-4.7811,-4.7927,-4.7985,-4.8014,-4.813,-4.8188,-4.8188,-4.8217,-4.8217,-4.8312,-4.8594,-4.8811,-4.8968,-4.9215,-4.9491,-4.9703,-4.9703,-4.9553,-4.9284,-4.9254,-4.9254,-4.9254,-4.9254,-4.9254,-4.9254,-4.9254,-4.9254,-4.9224,-4.8805,-4.8536,-4.8476,-4.8085,-4.7698,-4.7728,-4.7608,-4.7459,-4.7309,-4.7309,-4.7309,-4.7309,-4.7309,-4.7309,-4.7249,-4.633,-4.5734,-4.5783,-4.5813,-4.5867,-4.6064,-4.6033,-4.6169,-4.6498,-4.6416,-4.6576,-4.7219,-4.7426,-4.7681,-4.8263,-4.8622,-4.8859,-4.889,-4.9382,-4.9873,-5.0211,-5.1647,-5.2645,-5.2941,-5.4333,-5.5198,-5.549,-5.5876,-5.6536,-5.7214,-5.7289,-5.7214,-5.7063,-5.7063,-5.6987,-5.6911,-5.7063,-5.7214,-5.7139,-5.7439,-5.7588,-5.7588,-5.7588,-5.7662,-5.7662,-5.7514,-5.7588,-5.7735,-5.7808,-5.7881,-4.7782,-4.7782,-4.784,-4.7782,-4.7811,-4.7811,-4.784,-4.7811,-4.7817,-4.7788,-4.7608,-4.7608,-4.7608,-4.7608,-4.7666,-4.7695,-4.7695,-4.7753,-4.7811,-4.784,-4.7782,-4.7782,-4.7898,-4.8362,-4.8624,-4.8711,-4.9175,-4.9378,-4.9407,-4.9436,-4.9465,-4.9592,-5.0007,-5.0265,-5.0265,-5.0738,-5.102,-5.105,-5.105,-5.0451,-4.9344,-4.9254,-4.9254,-4.9254,-4.9284,-4.9254,-4.9344,-4.9254,-4.9284,-4.9254,-4.9284,-4.9224,-4.9224,-4.9164,-4.9104,-4.9104,-4.8536,-4.7938,-4.7399,-4.7309,-4.7369,-4.7309,-4.7339,-4.7339,-4.7309,-4.7189,-4.713,-4.704,-4.707,-4.701,-4.71,-4.704,-4.7066,-4.7091,-4.7237,-4.7473,-4.7558,-4.7964,-4.8248,-4.8271,-4.9035,-4.9494,-4.9341,-4.9886,-5.0441,-5.0814,-5.1603,-5.2183,-5.2213,-5.2634,-5.3253,-5.3978,-5.544,-5.692,-5.7222,-5.7289,-5.7214,-5.7214,-5.7139,-5.7063,-5.7139,-5.7139,-5.7063,-5.7289,-5.7364,-5.7439,-5.7439,-5.7364,-5.7439,-5.7514,-5.7514,-5.7439,-5.7588,-5.7808,-5.7881,-4.8885,-4.8914,-4.8914,-4.8885,-4.8914,-4.8914,-4.8914,-4.8914,-4.8914,-4.8914,-4.8914,-4.8914,-4.8478,-4.7811,-4.8159,-4.8333,-4.8362,-4.8711,-4.8914,-4.8914,-4.8914,-4.8914,-4.8943,-4.9146,-4.9291,-4.9291,-4.9553,-4.9698,-4.9698,-4.9698,-4.9698,-4.9766,-5.0183,-5.0501,-5.0501,-5.0947,-5.1229,-5.1229,-5.1229,-5.096,-5.0481,-5.0421,-5.0421,-5.0421,-5.0421,-5.0421,-5.0421,-5.0421,-5.0421,-5.0391,-5.006,-4.9851,-4.9853,-4.955,-4.925,-4.9284,-4.9015,-4.8745,-4.8476,-4.8476,-4.8297,-4.7908,-4.7878,-4.7728,-4.7339,-4.7309,-4.7309,-4.7309,-4.7309,-4.7309,-4.7309,-4.7309,-4.7309,-4.7482,-4.7568,-4.7654,-4.7654,-4.8304,-4.8632,-4.8602,-4.9438,-5.0069,-5.0013,-5.059,-5.1264,-5.1666,-5.2002,-5.2155,-5.2094,-5.2397,-5.317,-5.4008,-5.5507,-5.6272,-5.6421,-5.6316,-5.6547,-5.6954,-5.7063,-5.7063,-5.7289,-5.7364,-5.7364,-5.7439,-5.7588,-5.7588,-5.7662,-5.7662,-5.7662,-5.7662,-5.7662,-5.7662,-5.7588,-5.7735,-5.7881,-4.9698,-4.9698,-4.9698,-4.9698,-4.9698,-4.9698,-4.9698,-4.9698,-4.9698,-4.9698,-4.9698,-4.9698,-4.9175,-4.8449,-4.8798,-4.9001,-4.9059,-4.9465,-4.9698,-4.9698,-4.9698,-4.9669,-4.9698,-4.9698,-4.9698,-4.9698,-4.9669,-4.9698,-4.9698,-4.9698,-4.9766,-4.9863,-5.0279,-5.0471,-5.0567,-5.1011,-5.1229,-5.1229,-5.1229,-5.1229,-5.1199,-5.1229,-5.1229,-5.1229,-5.1229,-5.1229,-5.1229,-5.1229,-5.1229,-5.1229,-5.0773,-5.0441,-5.0418,-5.008,-4.9783,-4.9522,-4.9523,-4.9464,-4.9284,-4.9254,-4.9045,-4.8626,-4.8566,-4.8356,-4.7967,-4.7848,-4.7848,-4.7878,-4.7848,-4.7788,-4.7339,-4.7309,-4.7456,-4.7692,-4.7809,-4.7869,-4.8109,-4.8762,-4.9118,-4.9008,-4.9877,-5.0655,-5.0869,-5.1386,-5.1817,-5.2093,-5.2215,-5.2155,-5.2063,-5.2487,-5.3144,-5.3803,-5.4476,-5.5183,-5.582,-5.6359,-5.6536,-5.6877,-5.7289,-5.7289,-5.7439,-5.7588,-5.7662,-5.7662,-5.7808,-5.7881,-5.7808,-5.7881,-5.7881,-5.7881,-5.7881,-5.7808,-5.7735,-5.7808,-5.7881,-4.9698,-4.9698,-4.9698,-4.9698,-4.9698,-4.9698,-4.9698,-4.9698,-4.9698,-4.9698,-4.9698,-4.9698,-4.964,-4.9524,-4.9553,-4.964,-4.964,-4.964,-4.9698,-4.9698,-4.9698,-4.9698,-4.9698,-4.9698,-4.9698,-4.9698,-4.9698,-4.9698,-4.9698,-4.9698,-4.9863,-5.0086,-5.0405,-5.0567,-5.0728,-5.1041,-5.1229,-5.1229,-5.1229,-5.1229,-5.1229,-5.1229,-5.1229,-5.1229,-5.1229,-5.1229,-5.1229,-5.1229,-5.1229,-5.1229,-5.1199,-5.1169,-5.1169,-5.1046,-5.0747,-5.0301,-5.0182,-4.9942,-4.9434,-4.9374,-4.9314,-4.9224,-4.9224,-4.9194,-4.9015,-4.8985,-4.8985,-4.9105,-4.9015,-4.8596,-4.7638,-4.7549,-4.7698,-4.8265,-4.8325,-4.8595,-4.9134,-4.9425,-4.9573,-4.9702,-5.0577,-5.1425,-5.2062,-5.2063,-5.2063,-5.2063,-5.2094,-5.2002,-5.2002,-5.2063,-5.2307,-5.249,-5.2794,-5.3445,-5.6531,-5.6744,-5.703,-5.7588,-5.7514,-5.7588,-5.7662,-5.7735,-5.7808,-5.7808,-5.7881,-5.7881,-5.7881,-5.7881,-5.7881,-5.7881,-5.7881,-5.7881,-5.7808,-5.7915,-5.8017,-4.9698,-4.9698,-4.9698,-4.9698,-4.9698,-4.9698,-4.9698,-4.9698,-4.9698,-4.9698,-4.9698,-4.9698,-4.9698,-4.9698,-4.9698,-4.9698,-4.9698,-4.9698,-4.9698,-4.9698,-4.9698,-4.9698,-4.9698,-4.9698,-4.9698,-4.9698,-4.9698,-4.9698,-4.9698,-4.9698,-4.9766,-4.9863,-5.0279,-5.0501,-5.0662,-5.1041,-5.1229,-5.1229,-5.1229,-5.1229,-5.1229,-5.1229,-5.1229,-5.1229,-5.1229,-5.1229,-5.1229,-5.1229,-5.1229,-5.1229,-5.1229,-5.1229,-5.1229,-5.1229,-5.1109,-5.09,-5.087,-5.078,-5.0571,-5.0511,-5.0331,-4.9942,-4.9883,-4.9703,-4.9344,-4.9254,-4.9254,-4.9284,-4.9254,-4.8955,-4.8745,-4.8566,-4.8656,-4.8835,-4.9074,-4.9194,-4.9404,-5.0001,-5.0449,-5.0456,-5.1213,-5.2093,-5.2366,-5.2518,-5.2337,-5.2246,-5.2215,-5.2155,-5.2094,-5.2002,-5.2398,-5.3316,-5.373,-5.455,-5.7053,-5.6303,-5.5955,-5.7181,-5.7662,-5.7662,-5.7808,-5.7808,-5.7881,-5.7808,-5.7881,-5.7881,-5.7881,-5.7881,-5.7881,-5.7983,-5.7983,-5.8051,-5.7881,-5.8321,-5.8558,-4.9698,-4.9698,-4.9698,-4.9698,-4.9698,-4.9698,-4.9698,-4.9698,-4.9698,-4.9698,-4.9698,-4.9698,-4.9698,-4.9698,-4.9698,-4.9698,-4.9698,-4.9698,-4.9698,-4.9698,-4.9698,-4.9698,-4.9698,-4.9698,-4.9698,-4.9698,-4.9698,-4.9698,-4.9698,-4.9698,-4.9766,-4.9892,-5.0279,-5.0471,-5.0662,-5.1041,-5.1229,-5.1229,-5.1229,-5.1229,-5.1229,-5.1229,-5.1229,-5.1229,-5.1229,-5.1229,-5.1229,-5.1229,-5.1229,-5.1229,-5.1229,-5.1229,-5.1229,-5.1229,-5.1229,-5.1229,-5.1229,-5.1229,-5.1229,-5.1229,-5.102,-5.0631,-5.0541,-5.0331,-4.9942,-4.9912,-4.9883,-4.9883,-4.9883,-4.9912,-4.9883,-4.9912,-4.9823,-4.9643,-4.9764,-4.9854,-4.9974,-5.0668,-5.1091,-5.1243,-5.1789,-5.2366,-5.2608,-5.2698,-5.2608,-5.2397,-5.2397,-5.2337,-5.2276,-5.2549,-5.2944,-5.414,-5.4577,-5.5375,-5.6751,-5.6369,-5.6237,-5.7331,-5.7735,-5.7808,-5.7808,-5.7881,-5.7881,-5.7881,-5.7881,-5.7881,-5.7881,-5.7881,-5.8017,-5.8186,-5.8389,-5.8524,-5.8693,-5.9066,-5.9268,-4.9698,-4.9698,-4.9698,-4.9698,-4.9698,-4.9698,-4.9698,-4.9698,-4.9698,-4.9698,-4.9698,-4.9698,-4.9698,-4.9698,-4.9698,-4.9698,-4.9698,-4.9698,-4.9698,-4.9698,-4.9698,-4.9698,-4.9698,-4.9698,-4.9698,-4.9698,-4.9698,-4.9698,-4.9698,-4.9698,-4.9766,-5.0086,-5.0405,-5.0567,-5.0822,-5.1011,-5.1229,-5.1229,-5.1229,-5.1229,-5.1229,-5.1229,-5.1229,-5.1229,-5.1229,-5.1229,-5.1229,-5.1229,-5.1229,-5.1229,-5.1229,-5.1229,-5.1229,-5.1229,-5.1229,-5.1229,-5.1229,-5.1229,-5.1229,-5.1229,-5.1229,-5.1109,-5.1169,-5.1079,-5.099,-5.102,-5.102,-5.099,-5.102,-5.1109,-5.105,-5.105,-5.081,-5.0361,-5.0242,-5.0573,-5.096,-5.1383,-5.1786,-5.2063,-5.2336,-5.2397,-5.2608,-5.2729,-5.2698,-5.2608,-5.2608,-5.2608,-5.2698,-5.317,-5.3859,-5.426,-5.49,-5.5974,-5.6338,-5.6671,-5.7163,-5.7662,-5.7808,-5.7881,-5.7881,-5.7881,-5.7881,-5.7881,-5.7881,-5.7881,-5.8254,-5.8287,-5.8558,-5.8727,-5.8896,-5.9167,-5.9438,-5.9742,-6.0013,-4.9698,-4.9698,-4.9698,-4.9698,-4.9698,-4.9698,-4.9698,-4.9698,-4.9698,-4.9698,-4.9698,-4.9698,-4.9698,-4.9698,-4.9698,-4.9698,-4.9698,-4.9698,-4.9698,-4.9698,-4.9698,-4.9698,-4.9698,-4.9698,-4.9698,-4.9698,-4.9698,-4.9698,-4.9698,-4.9698,-4.9892,-5.0086,-5.0405,-5.0567,-5.0822,-5.1011,-5.1229,-5.1229,-5.1229,-5.1229,-5.1229,-5.1229,-5.1229,-5.1229,-5.1229,-5.1229,-5.1229,-5.1229,-5.1229,-5.1229,-5.1229,-5.1229,-5.1229,-5.1229,-5.1229,-5.1229,-5.1229,-5.1229,-5.1229,-5.1229,-5.1229,-5.1229,-5.1229,-5.1229,-5.1229,-5.1229,-5.1229,-5.1229,-5.1229,-5.1229,-5.1229,-5.1229,-5.1109,-5.093,-5.1086,-5.1116,-5.1263,-5.157,-5.2094,-5.2487,-5.2577,-5.2608,-5.2698,-5.2729,-5.2729,-5.2729,-5.2729,-5.2729,-5.2788,-5.3521,-5.4264,-5.4793,-5.5636,-5.6393,-5.6905,-5.7245,-5.7527,-5.7735,-5.7808,-5.7881,-5.7881,-5.7881,-5.7881,-5.7983,-5.7983,-5.8152,-5.849,-5.8795,-5.9066,-5.9438,-5.9742,-5.9945,-6.0114,-6.0419,-6.0757,-4.9698,-4.9698,-4.9698,-4.9698,-4.9698,-4.9698,-4.9698,-4.9698,-4.9698,-4.9698,-4.9698,-4.9698,-4.9698,-4.9698,-4.9698,-4.9698,-4.9698,-4.9698,-4.9698,-4.9698,-4.9698,-4.9698,-4.9698,-4.9698,-4.9698,-4.9698,-4.9698,-4.9698,-4.9669,-4.9766,-4.9892,-5.0086,-5.0471,-5.0662,-5.0822,-5.1011,-5.1229,-5.1229,-5.1229,-5.1229,-5.1229,-5.1229,-5.1229,-5.1229,-5.1229,-5.1229,-5.1229,-5.1229,-5.1229,-5.1229,-5.1229,-5.1229,-5.1229,-5.1229,-5.1229,-5.1229,-5.1229,-5.1229,-5.1229,-5.1229,-5.1229,-5.1229,-5.1229,-5.1229,-5.1229,-5.1229,-5.1229,-5.1229,-5.1229,-5.1229,-5.1229,-5.1229,-5.1229,-5.1229,-5.1293,-5.1416,-5.1446,-5.1818,-5.2185,-5.2549,-5.2729,-5.2729,-5.2729,-5.2729,-5.2729,-5.2729,-5.2729,-5.2729,-5.2966,-5.375,-5.4569,-5.5474,-5.6348,-5.7072,-5.7701,-5.7848,-5.7848,-5.7881,-5.7881,-5.7881,-5.7881,-5.7881,-5.7915,-5.8355,-5.849,-5.8829,-5.9167,-5.937,-5.9607,-6.0047,-6.0588,-6.0825,-6.1061,-6.1366,-6.167,-4.9698,-4.9698,-4.9698,-4.9698,-4.9698,-4.9698,-4.9698,-4.9698,-4.9698,-4.9698,-4.9698,-4.9698,-4.9698,-4.9698,-4.9698,-4.9698,-4.9698,-4.9698,-4.9698,-4.9669,-4.9571,-4.9473,-4.9669,-4.9473,-4.9375,-4.9473,-4.9375,-4.9346,-4.9149,-4.9571,-4.999,-4.996,-5.0412,-5.0793,-5.0917,-5.1105,-5.1229,-5.1229,-5.1229,-5.1229,-5.1229,-5.1229,-5.1229,-5.1229,-5.1229,-5.1229,-5.1229,-5.1229,-5.1229,-5.1229,-5.1229,-5.1229,-5.1229,-5.1229,-5.1229,-5.1229,-5.1229,-5.1229,-5.1229,-5.1229,-5.1229,-5.1229,-5.1229,-5.1229,-5.1229,-5.1229,-5.1229,-5.1229,-5.1229,-5.1229,-5.1229,-5.1229,-5.1229,-5.1229,-5.1323,-5.1446,-5.1908,-5.2032,-5.2276,-5.2639,-5.2729,-5.2729,-5.2729,-5.2729,-5.2729,-5.2729,-5.2729,-5.2729,-5.3024,-5.3836,-5.4985,-5.5876,-5.6691,-5.7406,-5.7881,-5.7881,-5.7881,-5.7949,-5.8017,-5.8118,-5.8084,-5.8084,-5.8389,-5.8795,-5.9099,-5.9471,-5.9844,-6.008,-6.0486,-6.1061,-6.1467,-6.1772,-6.1941,-6.2076,-6.2222,-4.9698,-4.9698,-4.9698,-4.9698,-4.9698,-4.9698,-4.9698,-4.9669,-4.9698,-4.9698,-4.9698,-4.9698,-4.9698,-4.9698,-4.9698,-4.9698,-4.9669,-4.9698,-4.9698,-4.9571,-4.8753,-4.8951,-4.9346,-4.8852,-4.8424,-4.8324,-4.7791,-4.7177,-4.7252,-4.8396,-4.8923,-4.9219,-5.022,-5.0793,-5.1105,-5.1105,-5.1229,-5.1229,-5.1229,-5.1229,-5.1259,-5.1259,-5.1229,-5.1229,-5.1259,-5.1259,-5.1229,-5.1229,-5.1229,-5.1229,-5.1229,-5.1229,-5.1229,-5.1229,-5.1229,-5.1229,-5.1229,-5.1229,-5.1229,-5.1229,-5.1229,-5.1229,-5.1229,-5.1229,-5.1229,-5.1229,-5.1229,-5.1229,-5.1229,-5.1229,-5.1229,-5.1229,-5.1323,-5.1509,-5.1509,-5.1695,-5.2124,-5.2276,-5.2337,-5.2608,-5.2729,-5.2729,-5.2729,-5.2729,-5.2729,-5.2729,-5.2788,-5.2788,-5.3201,-5.4264,-5.5555,-5.5876,-5.6503,-5.7406,-5.7881,-5.7881,-5.7915,-5.8017,-5.822,-5.8524,-5.849,-5.849,-5.9032,-5.9607,-5.9776,-6.008,-6.0588,-6.0994,-6.1535,-6.1873,-6.2042,-6.2144,-6.229,-6.2391,-6.2436,-4.9698,-4.9698,-4.9698,-4.9698,-4.9698,-4.9698,-4.9473,-4.9149,-4.9473,-4.9375,-4.9149,-4.9571,-4.9698,-4.9698,-4.9698,-4.9375,-4.905,-4.8951,-4.8724,-4.8122,-4.7587,-4.7689,-4.7993,-4.7485,-4.728,-4.728,-4.6632,-4.6424,-4.666,-4.7485,-4.7993,-4.8496,-4.9611,-5.0095,-4.9805,-5.0822,-5.0917,-5.0728,-5.0917,-5.1319,-5.1588,-5.1618,-5.1828,-5.1947,-5.2037,-5.2037,-5.2037,-5.1798,-5.1528,-5.1319,-5.1229,-5.1229,-5.1229,-5.1229,-5.1229,-5.1229,-5.1229,-5.1229,-5.1229,-5.1229,-5.1229,-5.1229,-5.1229,-5.1229,-5.1229,-5.1229,-5.1229,-5.1229,-5.1229,-5.1229,-5.1229,-5.1229,-5.1323,-5.1509,-5.1695,-5.188,-5.2276,-5.2337,-5.2397,-5.2608,-5.2729,-5.2729,-5.2729,-5.2729,-5.2729,-5.2788,-5.3113,-5.317,-5.349,-5.4819,-5.5814,-5.6151,-5.668,-5.7588,-5.8118,-5.822,-5.8524,-5.8592,-5.893,-5.9167,-5.9268,-5.9268,-5.9742,-6.0317,-6.0452,-6.0757,-6.1264,-6.1704,-6.1941,-6.2212,-6.2381,-6.2381,-6.2459,-6.2615,-6.2693,-4.9571,-4.9571,-4.9669,-4.9698,-4.9698,-4.9698,-4.905,-4.8324,-4.905,-4.8852,-4.8223,-4.8852,-4.905,-4.9346,-4.8951,-4.8753,-4.7819,-4.7819,-4.7177,-4.6556,-4.6137,-4.6137,-4.5899,-4.6137,-4.6137,-4.611,-4.6005,-4.5926,-4.6137,-4.666,-4.7102,-4.7587,-4.8696,-4.898,-4.9094,-5.0174,-5.0464,-5.0155,-5.1143,-5.1667,-5.2025,-5.2114,-5.2516,-5.2845,-5.2935,-5.2965,-5.2875,-5.2576,-5.2067,-5.1468,-5.1319,-5.1229,-5.1229,-5.1229,-5.1229,-5.1229,-5.1229,-5.1229,-5.1229,-5.1229,-5.1229,-5.1229,-5.1229,-5.1229,-5.1229,-5.1229,-5.1229,-5.1229,-5.1229,-5.1229,-5.1229,-5.1229,-5.1416,-5.1695,-5.188,-5.2063,-5.2306,-5.2306,-5.2397,-5.2608,-5.2729,-5.2729,-5.2729,-5.2729,-5.2729,-5.2788,-5.3201,-5.3577,-5.4062,-5.5231,-5.6009,-5.6482,-5.7122,-5.7803,-5.8254,-5.8592,-5.9032,-5.937,-5.9877,-6.0182,-6.0385,-6.0486,-6.0723,-6.1028,-6.1264,-6.1569,-6.1975,-6.2279,-6.2347,-6.2347,-6.2381,-6.2381,-6.2459,-6.2693,-6.277,-4.8324,-4.8453,-4.9346,-4.9698,-4.9698,-4.9698,-4.9079,-4.8078,-4.8252,-4.7801,-4.6998,-4.6971,-4.7177,-4.7177,-4.728,-4.684,-4.6632,-4.6556,-4.6032,-4.5208,-4.4993,-4.4453,-4.4126,-4.4561,-4.4993,-4.4886,-4.4126,-4.3932,-4.4344,-4.5395,-4.6032,-4.6478,-4.7699,-4.8449,-4.877,-4.9767,-5.0427,-5.0166,-5.159,-5.2112,-5.2063,-5.2545,-5.2957,-5.3294,-5.3264,-5.3234,-5.3174,-5.3054,-5.2905,-5.2546,-5.1858,-5.1379,-5.1379,-5.1289,-5.1289,-5.1289,-5.1229,-5.1229,-5.1229,-5.1229,-5.1229,-5.1229,-5.1229,-5.1229,-5.1229,-5.1229,-5.1229,-5.1229,-5.1229,-5.1229,-5.1199,-5.1416,-5.1602,-5.188,-5.2063,-5.2337,-5.2518,-5.2608,-5.2608,-5.2698,-5.2729,-5.2729,-5.2729,-5.2729,-5.2729,-5.2788,-5.3346,-5.3891,-5.4704,-5.5716,-5.6329,-5.6882,-5.7509,-5.8254,-5.8619,-5.9126,-5.9877,-6.0283,-6.0757,-6.1061,-6.1264,-6.1332,-6.1434,-6.1738,-6.2076,-6.2347,-6.2381,-6.2415,-6.2381,-6.2381,-6.2415,-6.2459,-6.2615,-6.277,-6.306,-4.8451,-4.8138,-4.9303,-4.9738,-4.9608,-4.9172,-4.8555,-4.8138,-4.8033,-4.7237,-4.6276,-4.6463,-4.6618,-4.6319,-4.6215,-4.611,-4.5502,-4.4967,-4.4453,-4.3932,-4.3932,-4.3628,-4.3184,-4.3517,-4.3932,-4.3823,-4.3517,-4.3406,-4.3848,-4.4531,-4.5286,-4.5847,-4.6992,-4.7558,-4.8023,-4.9342,-4.9983,-4.9925,-5.0841,-5.1845,-5.2712,-5.267,-5.3436,-5.3943,-5.4132,-5.4132,-5.4162,-5.3803,-5.3683,-5.3414,-5.2725,-5.2157,-5.2067,-5.1828,-5.1708,-5.1648,-5.1349,-5.1259,-5.1229,-5.1229,-5.1229,-5.1229,-5.1229,-5.1229,-5.1229,-5.1229,-5.1229,-5.1229,-5.1229,-5.1229,-5.1199,-5.1386,-5.1695,-5.2002,-5.2155,-5.2397,-5.2608,-5.2729,-5.2729,-5.2729,-5.2729,-5.2729,-5.2729,-5.2729,-5.2729,-5.2788,-5.4094,-5.4704,-5.5198,-5.6113,-5.6911,-5.7515,-5.8051,-5.8586,-5.8984,-5.9734,-6.0757,-6.1231,-6.167,-6.1839,-6.1975,-6.1975,-6.1975,-6.2178,-6.2347,-6.2347,-6.2415,-6.2415,-6.2415,-6.2415,-6.2493,-6.2537,-6.2829,-6.3333,-6.3657,-4.8678,-4.781,-4.9,-4.9532,-4.932,-4.8435,-4.7947,-4.7729,-4.781,-4.6777,-4.5741,-4.6405,-4.6166,-4.6116,-4.5955,-4.5473,-4.4765,-4.4045,-4.3639,-4.3613,-4.3639,-4.3526,-4.3388,-4.3501,-4.3588,-4.3237,-4.3411,-4.3635,-4.4207,-4.4403,-4.5181,-4.58,-4.6568,-4.7106,-4.7229,-4.8545,-4.9546,-4.9472,-5.0197,-5.1108,-5.2807,-5.2688,-5.351,-5.4678,-5.4999,-5.4999,-5.488,-5.461,-5.4341,-5.4311,-5.3803,-5.3563,-5.3294,-5.2755,-5.2336,-5.2306,-5.1798,-5.1498,-5.1439,-5.1319,-5.1229,-5.1229,-5.1229,-5.1229,-5.1229,-5.1229,-5.1229,-5.1229,-5.1229,-5.1229,-5.1199,-5.1509,-5.1787,-5.1972,-5.2246,-5.2427,-5.2608,-5.2729,-5.2729,-5.2729,-5.2729,-5.2729,-5.2729,-5.2729,-5.2729,-5.2966,-5.4317,-5.5393,-5.5829,-5.6669,-5.7591,-5.8193,-5.8788,-5.9471,-5.9903,-6.0478,-6.1501,-6.1772,-6.2279,-6.2313,-6.2381,-6.2279,-6.2212,-6.2279,-6.2381,-6.2415,-6.2415,-6.2415,-6.2415,-6.2493,-6.2741,-6.3101,-6.346,-6.3931,-6.429,-4.6705,-4.6705,-4.781,-4.8246,-4.8273,-4.8056,-4.7451,-4.6705,-4.6698,-4.5917,-4.4954,-4.4929,-4.5195,-4.4928,-4.4865,-4.4776,-4.4535,-4.4256,-4.4217,-4.4217,-4.4217,-4.4192,-4.4166,-4.4141,-4.4242,-4.4217,-4.408,-4.4396,-4.4991,-4.5423,-4.5684,-4.629,-4.654,-4.6743,-4.7476,-4.8423,-4.9057,-4.9072,-5.005,-5.0932,-5.1376,-5.2509,-5.3656,-5.4976,-5.5078,-5.5209,-5.5209,-5.5089,-5.5029,-5.5029,-5.491,-5.482,-5.4521,-5.3653,-5.3144,-5.2875,-5.2396,-5.2037,-5.2007,-5.1558,-5.1289,-5.1229,-5.1229,-5.1229,-5.1229,-5.1229,-5.1229,-5.1229,-5.1229,-5.1229,-5.1199,-5.1602,-5.188,-5.2063,-5.2337,-5.2608,-5.2698,-5.2729,-5.2729,-5.2729,-5.2729,-5.2729,-5.2729,-5.2729,-5.2729,-5.3113,-5.4317,-5.5246,-5.5783,-5.7066,-5.8496,-5.9059,-5.9464,-6.025,-6.0926,-6.1535,-6.2178,-6.211,-6.2347,-6.2347,-6.2381,-6.2381,-6.2415,-6.2415,-6.2415,-6.2415,-6.2415,-6.2448,-6.2629,-6.2809,-6.3271,-6.3689,-6.4196,-6.4736,-6.5267,-4.6823,-4.6411,-4.7512,-4.8053,-4.794,-4.7398,-4.7169,-4.7169,-4.6618,-4.5882,-4.5238,-4.507,-4.4895,-4.4694,-4.4618,-4.4618,-4.4644,-4.4618,-4.4618,-4.4618,-4.4618,-4.4618,-4.4644,-4.4644,-4.4936,-4.5128,-4.5027,-4.5055,-4.5565,-4.5882,-4.6342,-4.6778,-4.6917,-4.7205,-4.7765,-4.833,-4.8851,-4.908,-4.969,-5.0286,-5.078,-5.2551,-5.3652,-5.4171,-5.4845,-5.5179,-5.5209,-5.5209,-5.5179,-5.5179,-5.5179,-5.5209,-5.4999,-5.464,-5.4042,-5.3683,-5.3084,-5.2695,-5.2606,-5.2127,-5.1768,-5.1708,-5.1468,-5.1229,-5.1229,-5.1229,-5.1229,-5.1229,-5.1229,-5.1229,-5.1229,-5.1695,-5.2002,-5.2094,-5.2458,-5.2639,-5.2729,-5.2729,-5.2729,-5.2729,-5.2729,-5.2729,-5.2729,-5.2729,-5.2729,-5.3346,-5.4348,-5.5095,-5.5733,-5.7574,-5.9404,-5.9911,-6.0317,-6.0926,-6.1535,-6.1975,-6.2415,-6.2415,-6.2415,-6.2415,-6.2415,-6.2415,-6.2415,-6.2415,-6.2415,-6.2595,-6.2584,-6.2719,-6.2978,-6.326,-6.3961,-6.4674,-6.5113,-6.5577,-6.6067,-4.7205,-4.6421,-4.7298,-4.7769,-4.7534,-4.6755,-4.6849,-4.7416,-4.6704,-4.6024,-4.5698,-4.5648,-4.5397,-4.507,-4.4995,-4.4995,-4.4945,-4.502,-4.5045,-4.507,-4.507,-4.4995,-4.5087,-4.5112,-4.5481,-4.6137,-4.628,-4.6218,-4.6245,-4.6627,-4.7012,-4.7388,-4.7519,-4.7702,-4.8184,-4.821,-4.8837,-4.898,-4.8784,-4.9373,-5.1127,-5.2414,-5.3203,-5.3518,-5.4509,-5.5209,-5.5209,-5.5209,-5.5209,-5.5209,-5.5209,-5.5209,-5.5209,-5.5179,-5.494,-5.4401,-5.3773,-5.3473,-5.3234,-5.2755,-5.2396,-5.2366,-5.1768,-5.1528,-5.1409,-5.1409,-5.1229,-5.1229,-5.1229,-5.1229,-5.1229,-5.1695,-5.2002,-5.2094,-5.2367,-5.2729,-5.2729,-5.2729,-5.2729,-5.2729,-5.2729,-5.2729,-5.276,-5.2729,-5.2729,-5.3388,-5.4369,-5.5532,-5.6401,-5.8552,-6.0114,-6.0689,-6.1163,-6.1637,-6.2009,-6.2144,-6.2415,-6.2415,-6.2415,-6.2415,-6.2415,-6.2415,-6.2482,-6.2618,-6.2832,-6.3046,-6.3001,-6.317,-6.3566,-6.4176,-6.4903,-6.5549,-6.5955,-6.6445,-6.7005,-4.6421,-4.6301,-4.6421,-4.6541,-4.6541,-4.6421,-4.6301,-4.6541,-4.6421,-4.6276,-4.615,-4.6175,-4.6125,-4.5999,-4.5999,-4.605,-4.605,-4.5974,-4.5924,-4.5874,-4.5924,-4.6043,-4.6408,-4.6603,-4.6544,-4.6882,-4.7287,-4.7457,-4.7341,-4.7432,-4.7678,-4.7989,-4.7989,-4.812,-4.8146,-4.8172,-4.8198,-4.8393,-4.8341,-4.8868,-5.0123,-5.1293,-5.2323,-5.3203,-5.4304,-5.5078,-5.5078,-5.5078,-5.5209,-5.5209,-5.5209,-5.5209,-5.5209,-5.5209,-5.5179,-5.491,-5.4521,-5.4072,-5.3982,-5.3473,-5.3054,-5.2965,-5.2456,-5.2121,-5.1852,-5.1434,-5.1229,-5.1229,-5.1229,-5.1229,-5.1323,-5.1695,-5.188,-5.2155,-5.2427,-5.2608,-5.2729,-5.2729,-5.2729,-5.2729,-5.2729,-5.279,-5.2821,-5.276,-5.2819,-5.3596,-5.4482,-5.5738,-5.7201,-5.9376,-6.0825,-6.14,-6.1637,-6.2076,-6.2212,-6.2381,-6.2415,-6.2415,-6.2415,-6.2415,-6.2448,-6.255,-6.2854,-6.3024,-6.3317,-6.3702,-6.3973,-6.4223,-6.4449,-6.505,-6.5891,-6.6357,-6.6798,-6.7359,-6.7773,-4.6326,-4.6326,-4.6326,-4.6326,-4.6326,-4.6326,-4.6326,-4.6326,-4.6326,-4.6326,-4.6326,-4.6326,-4.6326,-4.6326,-4.6326,-4.6301,-4.6326,-4.6326,-4.6326,-4.6421,-4.6421,-4.6686,-4.6755,-4.7019,-4.7231,-4.7468,-4.756,-4.7795,-4.7938,-4.7938,-4.8055,-4.8172,-4.8172,-4.8172,-4.8172,-4.8172,-4.8172,-4.8198,-4.8172,-4.8405,-4.9045,-5.0041,-5.0934,-5.1565,-5.3337,-5.4126,-5.4436,-5.4976,-5.5179,-5.5209,-5.5209,-5.5209,-5.5209,-5.5209,-5.5179,-5.5149,-5.494,-5.476,-5.47,-5.4102,-5.3832,-5.3593,-5.3174,-5.2636,-5.2247,-5.1678,-5.1229,-5.1229,-5.1229,-5.1229,-5.1386,-5.1787,-5.1972,-5.2246,-5.2427,-5.2608,-5.2729,-5.2729,-5.2729,-5.2729,-5.279,-5.2975,-5.3129,-5.3067,-5.34,-5.4417,-5.557,-5.6918,-5.8494,-6.0571,-6.1582,-6.211,-6.2212,-6.2313,-6.2347,-6.2415,-6.2415,-6.2415,-6.2415,-6.2448,-6.255,-6.2719,-6.3125,-6.3611,-6.3962,-6.4461,-6.5028,-6.5312,-6.5528,-6.6131,-6.6804,-6.7133,-6.7463,-6.7601,-6.798,-4.6326,-4.6326,-4.6326,-4.6326,-4.6326,-4.6326,-4.6326,-4.6326,-4.6326,-4.6326,-4.6326,-4.6326,-4.6326,-4.6326,-4.6326,-4.6326,-4.6326,-4.6326,-4.6301,-4.6421,-4.6661,-4.69,-4.7138,-4.7349,-4.7442,-4.7821,-4.7821,-4.7938,-4.8055,-4.8172,-4.8172,-4.8172,-4.8172,-4.8172,-4.8172,-4.8198,-4.825,-4.8512,-4.8669,-4.8839,-4.9048,-4.9898,-5.0558,-5.1516,-5.267,-5.3925,-5.4228,-5.4908,-5.5478,-5.5209,-5.5209,-5.5209,-5.5209,-5.5209,-5.5209,-5.5179,-5.5089,-5.5119,-5.4999,-5.47,-5.4491,-5.4281,-5.3764,-5.3107,-5.2247,-5.1678,-5.1289,-5.1259,-5.1229,-5.1323,-5.1572,-5.1787,-5.2063,-5.2246,-5.2518,-5.2608,-5.276,-5.2821,-5.3006,-5.316,-5.3283,-5.3498,-5.356,-5.3468,-5.4013,-5.5153,-5.6488,-5.7985,-5.9743,-6.1581,-6.2021,-6.2381,-6.2381,-6.2415,-6.2415,-6.2415,-6.2415,-6.2448,-6.2448,-6.2618,-6.2821,-6.3159,-6.3599,-6.4085,-6.4686,-6.5425,-6.6131,-6.6348,-6.6611,-6.7044,-6.7477,-6.7684,-6.7935,-6.8083,-6.8118,-4.6326,-4.6326,-4.6326,-4.6326,-4.6326,-4.6326,-4.6326,-4.6326,-4.6326,-4.6326,-4.6326,-4.6326,-4.6326,-4.6326,-4.6301,-4.6301,-4.6301,-4.6301,-4.6541,-4.6661,-4.6806,-4.7138,-4.7468,-4.7703,-4.7821,-4.8055,-4.8055,-4.8055,-4.8172,-4.8172,-4.8172,-4.8172,-4.8172,-4.8172,-4.8277,-4.8433,-4.8669,-4.9008,-4.9322,-4.9557,-4.9943,-5.0746,-5.1884,-5.3051,-5.4304,-5.5411,-5.5931,-5.5914,-5.5807,-5.5329,-5.5239,-5.5209,-5.5209,-5.5209,-5.5209,-5.5209,-5.5209,-5.5209,-5.5119,-5.5089,-5.5119,-5.4899,-5.438,-5.3605,-5.2725,-5.2257,-5.1867,-5.1409,-5.1409,-5.1476,-5.1632,-5.188,-5.2155,-5.252,-5.2825,-5.3008,-5.3129,-5.3067,-5.3252,-5.3529,-5.3806,-5.3991,-5.436,-5.433,-5.509,-5.632,-5.8157,-5.9679,-6.0645,-6.2201,-6.2234,-6.2381,-6.2415,-6.2415,-6.2415,-6.2415,-6.2415,-6.2516,-6.2584,-6.2922,-6.326,-6.37,-6.4309,-6.4979,-6.5685,-6.646,-6.7146,-6.7056,-6.7216,-6.7798,-6.8083,-6.8083,-6.8004,-6.8083,-6.8152,-4.6326,-4.6326,-4.6326,-4.6326,-4.6326,-4.6326,-4.6326,-4.6326,-4.6326,-4.6326,-4.6301,-4.6326,-4.6326,-4.6301,-4.6301,-4.6421,-4.6566,-4.6566,-4.678,-4.6993,-4.7231,-4.7468,-4.7703,-4.7938,-4.8055,-4.8172,-4.8172,-4.8172,-4.8172,-4.8224,-4.8198,-4.8172,-4.825,-4.846,-4.8643,-4.9008,-4.9348,-4.9505,-4.9766,-4.9897,-5.0112,-5.1041,-5.1953,-5.2531,-5.4562,-5.538,-5.5624,-5.6035,-5.5944,-5.5748,-5.5418,-5.5269,-5.5209,-5.5209,-5.5209,-5.5209,-5.5209,-5.5209,-5.5209,-5.5209,-5.5209,-5.5119,-5.4589,-5.3952,-5.3324,-5.3061,-5.2492,-5.2162,-5.1922,-5.2051,-5.1878,-5.2094,-5.2429,-5.2947,-5.3284,-5.3438,-5.3591,-5.3651,-5.3775,-5.4206,-5.4421,-5.4573,-5.4944,-5.5284,-5.6333,-5.7469,-5.9512,-6.1146,-6.1896,-6.2415,-6.2415,-6.2415,-6.2415,-6.2415,-6.2415,-6.2415,-6.2415,-6.2584,-6.2787,-6.326,-6.3802,-6.4681,-6.5338,-6.6011,-6.648,-6.7065,-6.7398,-6.757,-6.7798,-6.8049,-6.8083,-6.8083,-6.8083,-6.8152,-6.8428,-4.6326,-4.6421,-4.6421,-4.6421,-4.6301,-4.6326,-4.6326,-4.6301,-4.6421,-4.6421,-4.6421,-4.6566,-4.6566,-4.6446,-4.6541,-4.6661,-4.69,-4.6874,-4.7112,-4.7324,-4.756,-4.7703,-4.7938,-4.8055,-4.8172,-4.8172,-4.8172,-4.8172,-4.8198,-4.8355,-4.8486,-4.8538,-4.8616,-4.8956,-4.9087,-4.9793,-5.0159,-5.0185,-5.0342,-5.0394,-5.0664,-5.1269,-5.2079,-5.2462,-5.3974,-5.5189,-5.5649,-5.6084,-5.6169,-5.6064,-5.5748,-5.5418,-5.5269,-5.5209,-5.5209,-5.5209,-5.5209,-5.5209,-5.5209,-5.5209,-5.5209,-5.5149,-5.4899,-5.451,-5.4092,-5.3704,-5.3226,-5.2606,-5.2678,-5.2812,-5.2548,-5.2947,-5.3316,-5.3899,-5.3929,-5.4145,-5.4206,-5.436,-5.4576,-5.4914,-5.5036,-5.5315,-5.6092,-5.6622,-5.7449,-5.8723,-6.0374,-6.1589,-6.2043,-6.2415,-6.2415,-6.2415,-6.2415,-6.2415,-6.2415,-6.2415,-6.2516,-6.299,-6.326,-6.3768,-6.441,-6.529,-6.6016,-6.6486,-6.7005,-6.7488,-6.7765,-6.7787,-6.7901,-6.8083,-6.8118,-6.8187,-6.8601,-6.8739,-6.9049,-4.6421,-4.6806,-4.6806,-4.6566,-4.6421,-4.6301,-4.6301,-4.6421,-4.6686,-4.6806,-4.6806,-4.6951,-4.6951,-4.6925,-4.6993,-4.7087,-4.7231,-4.7205,-4.7324,-4.7703,-4.7821,-4.7938,-4.8055,-4.8172,-4.8172,-4.8172,-4.8198,-4.8198,-4.8277,-4.8695,-4.893,-4.9218,-4.9453,-4.961,-4.927,-5.0237,-5.0734,-5.0838,-5.123,-5.1335,-5.1459,-5.1654,-5.2459,-5.3158,-5.4082,-5.5225,-5.6066,-5.6464,-5.664,-5.6541,-5.6196,-5.5807,-5.5418,-5.5239,-5.5209,-5.5209,-5.5209,-5.5209,-5.5209,-5.5209,-5.5209,-5.5209,-5.4958,-5.488,-5.4361,-5.4082,-5.3933,-5.3391,-5.3465,-5.3754,-5.3884,-5.4138,-5.4359,-5.4575,-5.4699,-5.4853,-5.507,-5.5193,-5.5438,-5.5622,-5.5779,-5.6028,-5.7059,-5.8024,-5.8748,-5.9924,-6.1365,-6.2144,-6.2302,-6.2415,-6.2415,-6.2415,-6.2415,-6.2415,-6.2415,-6.2482,-6.2685,-6.3193,-6.3802,-6.441,-6.5033,-6.5793,-6.6452,-6.7025,-6.7325,-6.7719,-6.7879,-6.7925,-6.8142,-6.8325,-6.829,-6.8428,-6.8877,-6.936,-6.967,-4.6686,-4.6806,-4.6993,-4.6993,-4.6849,-4.6874,-4.6874,-4.6874,-4.7044,-4.7044,-4.7019,-4.7189,-4.7189,-4.7112,-4.7231,-4.7324,-4.756,-4.756,-4.7703,-4.7938,-4.7938,-4.8055,-4.8172,-4.8172,-4.8198,-4.8198,-4.8224,-4.8486,-4.8799,-4.9139,-4.9374,-4.9662,-5.0185,-5.0368,-5.0446,-5.0969,-5.1335,-5.1361,-5.1518,-5.1596,-5.1721,-5.2315,-5.3025,-5.3483,-5.4769,-5.5908,-5.6698,-5.702,-5.7202,-5.7139,-5.6825,-5.6107,-5.5718,-5.5538,-5.5209,-5.5209,-5.5209,-5.5209,-5.5209,-5.5209,-5.5209,-5.5209,-5.5179,-5.5089,-5.488,-5.4809,-5.4521,-5.4269,-5.4352,-5.4395,-5.4352,-5.4449,-5.4698,-5.5253,-5.5438,-5.5745,-5.593,-5.618,-5.6269,-5.6361,-5.6519,-5.6457,-5.6991,-5.7933,-5.8908,-5.9935,-6.1185,-6.203,-6.2381,-6.2381,-6.2415,-6.2415,-6.2415,-6.2415,-6.2448,-6.2719,-6.3125,-6.3666,-6.441,-6.5271,-6.5895,-6.635,-6.6868,-6.7407,-6.7604,-6.7879,-6.7994,-6.8142,-6.8497,-6.8601,-6.8808,-6.898,-6.9394,-6.9911,-7.036,-4.7019,-4.7138,-4.7349,-4.7442,-4.7442,-4.7324,-4.7205,-4.7349,-4.7334,-4.7308,-4.7349,-4.7519,-4.7519,-4.7468,-4.756,-4.756,-4.7821,-4.7821,-4.7938,-4.8172,-4.8172,-4.8172,-4.8172,-4.8224,-4.8355,-4.8407,-4.8564,-4.8799,-4.9374,-4.9584,-5.0028,-5.0524,-5.0864,-5.0995,-5.1152,-5.1387,-5.157,-5.1544,-5.1596,-5.1596,-5.1846,-5.2315,-5.2903,-5.3724,-5.4887,-5.6108,-5.6959,-5.7533,-5.7892,-5.769,-5.7274,-5.6436,-5.6137,-5.5628,-5.5239,-5.5209,-5.5209,-5.5209,-5.5209,-5.5209,-5.5209,-5.5209,-5.5209,-5.5209,-5.5209,-5.5149,-5.507,-5.5069,-5.5115,-5.5165,-5.5119,-5.5156,-5.5499,-5.5992,-5.6084,-5.6392,-5.6453,-5.6577,-5.6607,-5.67,-5.673,-5.6761,-5.6954,-5.7746,-5.8637,-5.9762,-6.0903,-6.1595,-6.2302,-6.2381,-6.2415,-6.2415,-6.2516,-6.2618,-6.2821,-6.3159,-6.3599,-6.4174,-6.5033,-6.5846,-6.6418,-6.6923,-6.7339,-6.7719,-6.7879,-6.7959,-6.8108,-6.8359,-6.8773,-6.9291,-6.9808,-6.9946,-7.0015,-7.0463,-7.1015,-4.7442,-4.7703,-4.7703,-4.7938,-4.8055,-4.7586,-4.7442,-4.7703,-4.7715,-4.7689,-4.7703,-4.8055,-4.7938,-4.7821,-4.8055,-4.8172,-4.8172,-4.8172,-4.8172,-4.8224,-4.8303,-4.8303,-4.8355,-4.8433,-4.8747,-4.9008,-4.9165,-4.9374,-4.9923,-5.0394,-5.0943,-5.1335,-5.1387,-5.1465,-5.1492,-5.1544,-5.1596,-5.1596,-5.1596,-5.1596,-5.1721,-5.1721,-5.2439,-5.3146,-5.3844,-5.5239,-5.6251,-5.7212,-5.7614,-5.7665,-5.7527,-5.687,-5.6286,-5.5568,-5.5329,-5.5209,-5.5209,-5.5209,-5.5209,-5.5209,-5.5209,-5.5209,-5.5209,-5.5209,-5.5209,-5.5179,-5.529,-5.546,-5.5538,-5.5925,-5.6189,-5.6322,-5.6484,-5.6607,-5.6607,-5.67,-5.67,-5.673,-5.673,-5.6761,-5.6761,-5.6858,-5.7211,-5.784,-5.8765,-5.9849,-6.0903,-6.1513,-6.211,-6.2381,-6.2415,-6.2448,-6.2618,-6.2888,-6.3193,-6.3666,-6.4275,-6.4884,-6.5392,-6.6185,-6.684,-6.7243,-6.7523,-6.7799,-6.7925,-6.8187,-6.8463,-6.8842,-6.9222,-6.9808,-7.0532,-7.0705,-7.0739,-7.1187,-7.1739,-4.756,-4.7703,-4.7938,-4.8172,-4.8172,-4.7938,-4.7938,-4.8081,-4.8107,-4.8081,-4.8055,-4.8172,-4.8055,-4.8055,-4.8172,-4.8172,-4.8172,-4.8172,-4.8172,-4.8329,-4.8643,-4.8773,-4.893,-4.9139,-4.9453,-4.9584,-4.974,-4.9949,-5.0524,-5.11,-5.1335,-5.1544,-5.1596,-5.1596,-5.1596,-5.1596,-5.1596,-5.1596,-5.1596,-5.1596,-5.1596,-5.1596,-5.2068,-5.2535,-5.3362,-5.4651,-5.5964,-5.7104,-5.7709,-5.8386,-5.763,-5.6944,-5.6885,-5.5867,-5.5209,-5.5209,-5.5209,-5.5209,-5.5209,-5.5209,-5.5209,-5.5209,-5.5209,-5.5209,-5.5209,-5.5179,-5.528,-5.5581,-5.588,-5.6077,-5.6372,-5.6567,-5.6761,-5.6761,-5.6761,-5.6761,-5.6761,-5.6761,-5.6761,-5.6792,-5.6792,-5.7301,-5.7651,-5.8122,-5.9019,-6.0098,-6.0986,-6.1547,-6.203,-6.2302,-6.2629,-6.2662,-6.2888,-6.3226,-6.3835,-6.4377,-6.4986,-6.5595,-6.6034,-6.6539,-6.7025,-6.7441,-6.7719,-6.7914,-6.8142,-6.8566,-6.8946,-6.936,-6.9877,-7.0567,-7.1222,-7.136,-7.1567,-7.1995,-7.2237,-4.7938,-4.7938,-4.8055,-4.8172,-4.8172,-4.8172,-4.8172,-4.8172,-4.8172,-4.8172,-4.8172,-4.8172,-4.8172,-4.8172,-4.8172,-4.8198,-4.8198,-4.8486,-4.859,-4.8747,-4.9139,-4.9322,-4.9557,-4.974,-4.9976,-5.0132,-5.0315,-5.0551,-5.1047,-5.1361,-5.1596,-5.1596,-5.1596,-5.1596,-5.1596,-5.1596,-5.1596,-5.1596,-5.1596,-5.1596,-5.1596,-5.1721,-5.2068,-5.2903,-5.3844,-5.4915,-5.6537,-5.7552,-5.8276,-5.8763,-5.7761,-5.7136,-5.69,-5.5927,-5.5209,-5.5209,-5.5209,-5.5209,-5.5209,-5.5209,-5.5209,-5.5209,-5.5209,-5.5209,-5.5209,-5.5179,-5.5381,-5.5581,-5.588,-5.6077,-5.6372,-5.6664,-5.6664,-5.6761,-5.6761,-5.6761,-5.6761,-5.6761,-5.6792,-5.6823,-5.7205,-5.7774,-5.8279,-5.8656,-5.9398,-6.0815,-6.1501,-6.1814,-6.2119,-6.2302,-6.273,-6.3012,-6.3306,-6.3666,-6.4343,-6.4971,-6.5561,-6.6034,-6.6373,-6.6844,-6.7312,-6.7591,-6.7719,-6.8017,-6.8428,-6.8842,-6.936,-7.0049,-7.0636,-7.1291,-7.1774,-7.1981,-7.2168,-7.2458,-7.2749,-4.8172,-4.8198,-4.8172,-4.8172,-4.8172,-4.8172,-4.8172,-4.8172,-4.8172,-4.8172,-4.8172,-4.8172,-4.8172,-4.8198,-4.8303,-4.8355,-4.8564,-4.8878,-4.9139,-4.9165,-4.9714,-4.9976,-5.0002,-5.0054,-5.0524,-5.076,-5.089,-5.1047,-5.1413,-5.1596,-5.1596,-5.1596,-5.1596,-5.1596,-5.1596,-5.1596,-5.1596,-5.1596,-5.1596,-5.1596,-5.1596,-5.197,-5.2658,-5.4442,-5.5267,-5.6079,-5.7944,-5.8852,-5.8961,-5.8614,-5.7951,-5.7131,-5.6378,-5.5897,-5.5329,-5.5209,-5.5209,-5.5209,-5.5209,-5.5209,-5.5209,-5.5209,-5.5209,-5.5209,-5.5209,-5.5209,-5.5381,-5.5481,-5.578,-5.5979,-5.6274,-5.6567,-5.6761,-5.6761,-5.6761,-5.6761,-5.6761,-5.6946,-5.7254,-5.7346,-5.7752,-5.8363,-5.9002,-5.9474,-5.9836,-6.1349,-6.185,-6.1865,-6.2354,-6.255,-6.2933,-6.3464,-6.3983,-6.4444,-6.4971,-6.5613,-6.6068,-6.6474,-6.6711,-6.7063,-6.7394,-6.7591,-6.7753,-6.8303,-6.8808,-6.9256,-6.9773,-7.0498,-7.1153,-7.167,-7.2153,-7.2498,-7.2755,-7.2887,-7.297,-4.8172,-4.8172,-4.8172,-4.8172,-4.8172,-4.8172,-4.8198,-4.8172,-4.8172,-4.8224,-4.8198,-4.8198,-4.825,-4.8355,-4.8721,-4.8852,-4.9008,-4.9427,-4.9636,-4.9871,-5.0289,-5.0551,-5.0655,-5.0864,-5.1178,-5.1335,-5.1439,-5.1413,-5.1544,-5.1596,-5.1596,-5.1596,-5.1596,-5.1596,-5.1596,-5.1596,-5.1596,-5.1846,-5.1846,-5.197,-5.1944,-5.1944,-5.2412,-5.3724,-5.4442,-5.5732,-5.7104,-5.7804,-5.8386,-5.8624,-5.7675,-5.6763,-5.5718,-5.5359,-5.5209,-5.5209,-5.5209,-5.5209,-5.5209,-5.5209,-5.5209,-5.5209,-5.5209,-5.5209,-5.5209,-5.5209,-5.528,-5.5481,-5.5681,-5.588,-5.6176,-5.6567,-5.6823,-5.6823,-5.6823,-5.6823,-5.6854,-5.7285,-5.7715,-5.8054,-5.8362,-5.8985,-5.96,-6.0073,-6.0612,-6.0935,-6.1132,-6.1467,-6.2488,-6.2922,-6.3408,-6.3996,-6.483,-6.5358,-6.5782,-6.6086,-6.644,-6.6693,-6.6862,-6.7146,-6.751,-6.7809,-6.8108,-6.8682,-6.9256,-6.9808,-7.0429,-7.1015,-7.1636,-7.2084,-7.2326,-7.2602,-7.2838,-7.297,-7.3088,-4.893,-4.893,-4.8956,-4.8956,-4.893,-4.8956,-4.8956,-4.893,-4.8956,-4.893,-4.8878,-4.8721,-4.8695,-4.8878,-4.9322,-4.9453,-4.9557,-5.0028,-5.0237,-5.0472,-5.0786,-5.1073,-5.1309,-5.1439,-5.1465,-5.1596,-5.1596,-5.1596,-5.1596,-5.1596,-5.1596,-5.1596,-5.1596,-5.1596,-5.1596,-5.1596,-5.1819,-5.2439,-5.2439,-5.2658,-5.2903,-5.2903,-5.3604,-5.4414,-5.5472,-5.6394,-5.7216,-5.8026,-5.8386,-5.8554,-5.7791,-5.6541,-5.5688,-5.5239,-5.5209,-5.5209,-5.5209,-5.5209,-5.5209,-5.5209,-5.5209,-5.5209,-5.5209,-5.5209,-5.5209,-5.5209,-5.5209,-5.5381,-5.578,-5.5979,-5.6176,-5.647,-5.6972,-5.7223,-5.7346,-5.7408,-5.7752,-5.8153,-5.8362,-5.8508,-5.8831,-5.9073,-5.9724,-6.0139,-6.0661,-6.1611,-6.1649,-6.19,-6.2791,-6.3565,-6.4017,-6.4504,-6.5338,-6.5933,-6.6339,-6.6458,-6.6677,-6.6896,-6.7014,-6.738,-6.7659,-6.8177,-6.8613,-6.921,-6.9877,-7.0601,-7.1187,-7.167,-7.2015,-7.2429,-7.2567,-7.2755,-7.2922,-7.3088,-7.3252,-4.9845,-4.9897,-4.9871,-4.9871,-4.9871,-4.9871,-4.9845,-4.9845,-4.9871,-4.9923,-4.9923,-4.9505,-4.961,-4.9766,-5.0002,-5.0002,-5.0185,-5.0629,-5.0838,-5.0995,-5.1335,-5.1413,-5.1492,-5.1596,-5.1596,-5.1596,-5.1596,-5.1596,-5.1596,-5.1596,-5.1596,-5.1596,-5.1596,-5.1596,-5.1596,-5.1721,-5.2068,-5.2903,-5.351,-5.4204,-5.4442,-5.456,-5.5239,-5.628,-5.7328,-5.7886,-5.8634,-5.9099,-5.9099,-5.862,-5.7766,-5.6585,-5.5688,-5.5209,-5.5209,-5.5209,-5.5209,-5.5209,-5.5209,-5.5209,-5.5209,-5.5209,-5.5209,-5.5179,-5.5209,-5.528,-5.528,-5.5481,-5.578,-5.6077,-5.6274,-5.6654,-5.7218,-5.7623,-5.7875,-5.8122,-5.8591,-5.8869,-5.8824,-5.8837,-5.9116,-5.9358,-5.959,-6.0042,-6.0732,-6.1699,-6.2496,-6.2983,-6.3482,-6.4248,-6.4898,-6.5284,-6.5745,-6.6271,-6.6711,-6.6779,-6.6812,-6.6896,-6.7097,-6.7462,-6.7924,-6.8464,-6.9141,-6.9877,-7.0498,-7.1187,-7.1705,-7.2153,-7.2498,-7.2671,-7.2671,-7.2755,-7.2922,-7.317,-7.3334,-4.9897,-4.9897,-4.9897,-4.9897,-4.9923,-4.9923,-4.9897,-4.9897,-4.9923,-5.0132,-5.0498,-5.0524,-5.0342,-4.9949,-5.0446,-5.0603,-5.0681,-5.1152,-5.1361,-5.1518,-5.1544,-5.157,-5.1596,-5.1596,-5.1596,-5.1596,-5.1596,-5.1596,-5.1596,-5.1596,-5.1596,-5.1596,-5.1596,-5.1596,-5.1596,-5.1819,-5.2439,-5.3362,-5.4176,-5.4769,-5.6079,-5.6194,-5.5964,-5.6622,-5.7216,-5.8026,-5.8743,-5.9099,-5.9099,-5.871,-5.7842,-5.6526,-5.5688,-5.5209,-5.5209,-5.5209,-5.5209,-5.5209,-5.5209,-5.5209,-5.5209,-5.5209,-5.5209,-5.5209,-5.528,-5.5381,-5.5481,-5.5581,-5.588,-5.6176,-5.6464,-5.7027,-5.7562,-5.7937,-5.8153,-5.8814,-5.9346,-5.9284,-5.9054,-5.9016,-5.9054,-5.9092,-5.9061,-5.9461,-5.9852,-6.0913,-6.2068,-6.2661,-6.3768,-6.4757,-6.5779,-6.5982,-6.6219,-6.644,-6.6812,-6.6812,-6.6812,-6.698,-6.7248,-6.7817,-6.8336,-6.8969,-6.9601,-7.0429,-7.1015,-7.1636,-7.2153,-7.2498,-7.2567,-7.2671,-7.2671,-7.2755,-7.3005,-7.3252,-7.3496]}]]